GFSSW_2pvu_pres_000.txt.gz
Presure
256 256 239 217 273 232 226 225 221 225 152 132 134 160 212 223 213 184 210 202 165 166 177 193 179 185 165 175 177 169 173 187 193 191 126 201 199 200 205 209 133 168 135 101 101
263 258 264 218 244 261 232 212 230 224 212 135 135 136 189 217 208 212 212 217 212 173 172 172 191 201 172 204 174 179 179 183 183 187 183 195 163 188 197 206 197 190 157 88 140
271 260 322 303 263 263 250 232 217 215 216 210 184 148 175 196 176 209 204 210 212 209 181 179 169 183 211 178 173 192 166 122 202 183 182 189 181 99 121 198 202 198 205 192 106
267 267 295 235 293 280 260 238 215 215 217 220 213 141 214 206 206 215 204 206 206 202 212 170 199 222 200 177 173 204 190 192 150 186 208 225 224 219 188 204 210 188 145 122 192
258 292 280 251 271 272 260 234 215 220 217 215 205 205 202 207 214 205 219 200 202 203 201 208 190 212 177 212 219 224 218 220 219 202 195 223 218 218 211 221 170 176 209 192 143
291 285 273 277 268 261 254 243 226 225 212 214 219 215 201 208 211 214 208 207 195 202 204 202 199 181 185 215 218 221 216 229 222 223 231 228 228 213 211 225 205 85 222 211 187
287 286 252 268 252 252 248 232 219 226 223 217 216 214 214 213 213 216 212 213 205 193 202 201 194 214 193 213 219 219 232 230 223 236 223 236 226 213 210 221 245 200 78 165 200
284 285 266 264 248 244 235 227 249 317 271 246 239 230 225 128 218 212 217 217 196 200 189 198 205 209 206 220 211 225 233 219 228 232 240 227 142 213 221 235 240 251 244 116 74
284 282 260 244 245 240 235 229 301 297 288 268 254 244 234 174 170 219 215 216 207 196 201 205 201 202 206 201 214 227 159 231 218 226 229 240 154 220 209 224 230 250 250 246 253
293 276 267 256 244 247 236 230 294 285 271 260 249 242 236 228 223 216 209 212 210 213 205 208 210 207 209 213 220 221 214 227 242 234 230 228 241 229 222 212 222 237 297 242 248
271 288 268 256 233 240 238 229 240 275 260 252 242 233 229 224 215 215 212 212 211 212 213 215 204 206 213 214 211 224 229 241 236 216 237 218 235 240 231 226 215 286 280 282 240
245 263 262 263 248 240 236 229 235 270 256 250 235 234 227 223 224 218 208 206 210 208 211 217 219 215 211 217 218 221 227 230 242 235 227 202 205 243 240 230 228 228 276 271 276
246 237 257 266 238 241 233 230 225 249 257 244 236 237 233 233 219 219 153 209 211 190 213 225 219 220 227 229 230 239 230 234 236 234 239 226 217 229 235 231 224 226 273 269 268
242 244 230 234 267 244 236 231 228 217 266 258 242 235 236 227 230 232 233 222 189 225 231 230 226 232 247 244 236 224 226 229 223 230 237 240 242 231 225 226 211 214 264 268 125
246 235 243 239 241 261 232 236 232 224 217 223 257 240 242 232 230 231 235 233 233 236 245 251 251 255 263 254 246 254 253 249 244 245 247 243 243 226 226 221 209 221 257 207 97
293 260 251 239 240 246 258 234 233 231 223 206 193 229 240 248 250 235 229 222 214 217 222 223 219 217 223 228 233 242 246 258 258 265 269 247 252 225 246 145 205 227 245 251 245
479 285 264 235 236 239 254 260 232 238 219 209 213 209 209 204 210 201 212 213 209 210 215 219 217 219 231 235 254 277 282 290 296 298 283 271 242 169 243 209 106 139 241 247 247
479 341 279 251 238 237 227 239 271 244 228 215 208 209 212 209 211 215 210 214 219 220 217 221 224 291 316 310 301 312 314 312 301 303 292 274 144 274 242 208 219 226 240 222 213
470 362 319 262 246 231 244 240 229 211 218 232 218 214 210 150 203 211 213 213 216 217 231 318 344 410 104 425 402 301 274 281 300 300 304 291 95 280 229 203 216 220 237 235 233
415 354 347 270 244 237 245 226 232 229 216 216 217 220 217 212 211 213 212 208 213 275 284 317 316 367 407 409 407 384 386 292 277 163 274 75 299 99 266 207 137 219 202 246 230
393 362 354 300 262 245 237 236 230 230 228 223 214 205 206 207 214 208 209 207 262 299 323 326 313 312 331 349 80 278 264 120 345 304 285 249 188 273 249 230 123 211 224 243 234
362 353 343 360 277 253 232 238 222 224 220 221 208 209 210 203 209 192 205 292 275 262 257 292 317 317 319 332 332 351 350 360 358 373 383 398 437 289 250 247 78 224 228 243 118
349 369 352 333 306 269 244 237 224 212 208 208 209 210 208 209 203 205 264 240 251 238 247 253 276 282 304 331 330 322 179 108 381 400 393 358 363 378 365 339 245 233 230 244 224
347 322 318 324 320 325 239 227 227 222 214 210 209 209 210 215 181 284 240 241 175 233 228 251 212 252 259 258 264 359 392 353 345 338 334 334 333 325 338 356 84 99 127 224 233
336 307 315 321 315 342 295 235 227 218 212 214 206 203 205 192 294 225 221 218 231 235 232 248 244 237 231 257 265 265 265 218 299 321 315 313 302 305 314 319 335 343 135 180 118
327 312 304 304 311 321 335 253 231 224 223 210 218 209 198 222 251 235 223 242 235 226 237 238 247 233 238 234 238 255 249 254 258 275 259 272 255 288 285 293 305 333 230 85 242
310 310 301 292 304 240 286 311 256 239 228 222 220 181 217 229 229 222 186 212 200 228 227 237 234 240 237 232 240 241 244 251 264 243 265 250 244 257 249 259 267 269 276 275 260

GFSSW_2pvu_pres_003.txt.gz
Presure
260 252 243 221 249 224 240 253 242 231 231 210 226 162 213 222 214 197 211 220 207 207 224 201 200 199 212 197 212 177 182 142 125 215 139 206 157 172 213 207 211 211 211 133 214
258 253 256 248 244 219 236 249 245 236 227 229 214 221 218 168 161 185 133 207 213 214 206 215 212 207 173 161 175 174 196 194 192 175 173 169 168 169 80 178 184 199 199 204 143
264 245 246 232 248 236 233 270 266 236 246 232 225 216 217 214 179 155 134 205 222 231 221 209 218 196 210 192 175 169 167 185 178 190 175 189 175 182 178 186 91 187 173 183 115
267 254 253 250 250 261 250 242 304 240 217 220 233 227 208 214 214 222 138 136 202 193 211 210 212 209 210 184 194 176 180 177 200 215 200 76 185 187 176 127 180 182 181 182 189
279 266 262 256 260 257 265 253 260 315 233 260 233 222 212 219 213 206 211 152 210 204 211 186 204 212 215 210 197 183 186 210 201 194 201 199 214 204 181 181 198 186 221 194 186
280 279 275 271 260 261 244 270 267 294 245 276 234 237 221 211 210 208 205 193 174 184 210 217 212 201 201 215 209 208 208 203 230 209 208 230 199 217 223 229 219 215 84 227 205
353 346 297 287 283 283 279 272 266 224 282 271 254 236 221 209 207 212 211 209 144 200 213 214 217 204 204 204 203 207 198 187 181 188 221 227 233 215 89 175 224 207 223 221 220
278 303 326 311 277 289 282 271 267 265 273 263 258 237 222 211 210 211 208 214 209 202 202 210 217 217 201 195 208 208 212 204 212 215 223 222 230 97 238 231 226 230 219 222 218
266 275 291 310 298 284 281 268 268 263 262 261 253 240 217 206 216 223 216 207 213 207 201 207 212 218 215 196 195 201 211 212 215 214 228 218 209 238 163 236 227 220 228 225 202
263 242 267 285 300 285 282 267 271 253 247 244 244 238 224 216 214 213 216 203 150 163 208 210 212 212 215 203 204 203 196 207 209 217 208 217 231 226 238 228 228 240 226 224 218
251 257 241 264 306 290 283 267 257 250 233 238 226 223 223 224 223 216 214 213 215 219 217 215 216 215 216 218 197 198 206 211 212 215 221 223 231 216 234 232 229 225 236 230 227
254 242 253 237 245 296 287 261 256 243 234 237 219 273 292 285 239 233 234 228 226 221 223 220 218 215 213 216 212 222 218 216 212 214 218 212 218 228 223 241 227 229 227 235 232
398 268 245 250 248 296 294 259 256 244 244 234 219 285 281 278 267 252 246 240 236 229 227 220 219 210 213 212 212 217 220 223 226 226 227 226 224 227 221 231 230 224 217 227 243
480 410 262 244 245 255 294 258 246 243 242 231 248 282 276 271 264 256 247 242 233 230 226 218 209 216 213 212 217 216 220 223 226 231 227 232 240 229 240 227 230 224 217 205 234
491 487 304 252 241 243 276 256 246 240 239 237 241 275 267 267 249 243 239 235 235 213 225 222 216 217 221 222 227 233 238 245 253 259 259 252 255 250 232 234 219 226 179 190 221
544 473 367 260 241 226 250 261 258 242 238 229 219 276 266 256 241 240 235 236 231 224 223 224 225 230 234 240 247 248 254 268 279 288 295 313 313 258 232 226 220 221 227 225 220
524 496 476 295 248 238 229 279 261 236 232 228 218 228 263 191 239 236 234 229 231 230 224 221 231 228 226 221 232 235 236 236 220 227 154 234 244 177 199 256 244 234 238 222 223
476 531 489 367 259 243 232 243 282 245 224 226 220 212 211 214 212 214 208 206 207 208 209 201 207 215 225 222 222 239 290 310 167 185 297 230 229 246 244 234 238 246 199 224 227
471 532 489 362 270 249 235 246 245 250 216 223 222 218 211 212 208 200 204 202 205 207 210 207 217 223 219 323 316 347 396 441 285 385 399 402 91 110 103 251 246 252 240 238 212
463 493 486 356 282 255 245 218 234 265 239 215 228 224 214 210 208 206 142 208 207 208 217 210 209 281 327 325 340 348 360 371 386 349 360 390 423 89 317 191 168 190 244 242 251
430 460 477 363 320 267 243 217 231 236 262 239 227 226 220 217 212 210 212 209 208 210 208 214 243 341 339 164 346 336 329 336 348 370 348 284 82 381 286 305 303 270 251 240 125
433 479 395 363 357 271 239 228 230 222 231 259 245 219 225 209 216 218 207 207 196 205 214 248 261 238 218 252 352 83 320 337 332 328 148 367 393 374 227 305 305 278 259 228 227
383 414 389 354 387 283 232 234 224 227 228 223 219 209 209 211 212 204 207 207 213 215 225 237 233 222 264 276 276 345 116 364 374 369 354 160 357 353 362 288 308 122 130 226 229
367 368 377 354 368 297 244 236 224 230 217 221 223 219 219 215 208 209 214 205 216 244 201 246 232 241 259 261 259 271 268 202 257 226 384 363 353 373 391 329 287 300 276 255 229
353 350 320 343 358 318 274 235 227 227 224 215 217 217 213 208 214 212 204 206 242 183 185 240 240 244 253 234 235 253 249 265 264 298 311 323 353 362 357 371 361 280 121 221 221
327 321 343 332 324 319 300 246 225 232 214 217 209 209 210 212 210 202 201 224 171 240 225 220 248 225 235 227 181 243 245 261 264 101 287 280 292 312 147 338 354 356 256 259 256
325 342 319 312 313 325 270 278 232 233 220 214 209 210 212 211 198 206 209 235 227 218 172 236 231 222 221 222 234 225 231 239 250 252 255 264 262 274 284 297 311 320 276 241 236

GFSSW_2pvu_pres_006.txt.gz
Presure
276 261 262 255 246 246 245 227 246 241 221 238 231 230 238 219 204 207 215 202 203 201 178 203 175 170 173 182 178 161 161 172 184 163 182 195 186 183 124 194 201 247 215 231 179
325 277 271 282 259 243 255 247 224 248 247 223 225 220 221 222 218 203 214 200 207 203 206 214 208 206 200 195 199 190 193 207 176 207 182 233 227 194 138 228 228 229 224 123 232
314 322 251 250 249 256 252 223 244 233 241 219 245 229 217 224 224 206 151 213 201 203 209 205 205 191 183 208 206 200 219 213 200 227 227 214 169 150 201 180 166 170 170 176 186
275 306 299 259 264 248 246 240 248 246 247 262 243 251 262 231 224 217 207 146 208 155 205 212 176 216 199 205 211 174 190 179 209 175 177 180 187 174 182 172 162 169 144 169 182
331 296 296 279 273 255 251 261 245 232 241 243 238 256 224 256 211 225 217 203 217 212 164 166 148 181 220 210 216 220 211 211 217 186 185 205 184 182 175 188 209 201 179 179 164
298 333 276 278 273 274 262 261 254 239 237 240 250 240 254 275 237 216 224 220 202 209 191 203 135 186 165 216 210 214 212 214 210 209 225 199 200 217 198 201 202 203 185 191 163
268 284 294 313 271 260 260 267 252 253 252 246 248 258 262 289 209 224 220 220 216 203 211 205 213 216 210 209 217 157 206 199 215 212 210 211 216 196 197 208 91 214 211 225 206
280 271 272 283 287 297 263 253 267 261 258 265 257 267 253 305 230 238 226 218 215 212 207 211 209 200 146 206 190 212 220 207 207 211 209 210 208 220 227 228 219 238 213 238 225
253 269 276 267 279 277 314 301 268 269 262 256 253 265 255 296 271 253 226 222 217 206 209 213 205 208 178 194 164 204 219 217 203 206 205 207 204 210 208 220 216 217 95 204 227
256 255 248 265 268 270 274 312 321 297 278 273 279 259 258 279 234 260 241 223 223 215 205 213 208 209 208 210 206 151 214 216 222 205 204 205 212 203 211 216 192 223 213 235 229
310 295 265 254 252 266 266 273 308 294 267 274 272 262 260 272 261 261 239 230 222 214 207 203 205 206 207 212 199 198 203 212 217 218 204 205 197 208 212 211 213 213 209 232 232
556 665 317 273 253 255 268 270 287 286 278 272 264 255 263 254 257 248 239 233 225 216 213 209 207 210 211 208 212 208 207 211 217 221 224 206 209 208 205 209 216 214 214 218 225
521 495 504 309 266 251 266 255 277 280 277 266 262 265 256 253 248 242 237 231 224 210 207 214 218 213 209 212 209 207 217 215 220 218 222 225 202 197 207 202 209 216 213 212 226
507 525 504 468 298 259 251 252 266 281 276 263 259 255 242 238 237 234 234 231 222 216 214 216 220 214 214 213 217 221 223 79 138 216 225 222 230 216 214 219 212 215 209 213 221
499 525 491 460 315 261 249 250 262 277 278 261 259 244 231 234 227 219 215 213 219 220 217 220 219 219 220 223 226 227 228 227 225 231 196 225 232 233 217 219 217 220 220 221 221
450 482 553 458 384 264 251 245 261 281 272 261 251 243 229 234 221 214 281 277 270 272 249 242 237 237 238 239 239 237 234 228 229 232 238 236 249 196 188 222 215 217 222 232 233
434 471 526 457 365 262 253 244 259 291 279 258 238 234 229 220 277 278 273 267 267 266 264 266 258 247 240 234 235 233 231 237 244 251 245 262 267 151 251 226 248 235 238 243 241
419 473 544 437 356 262 254 248 247 292 257 239 234 233 221 284 277 272 265 263 260 260 248 231 231 224 223 227 233 232 219 220 225 229 238 184 271 254 125 152 233 250 268 302 249
423 505 564 457 347 264 254 253 244 288 257 236 232 227 220 285 274 267 258 254 243 224 225 219 215 209 212 217 219 220 225 345 340 340 338 343 87 138 99 104 204 222 200 248 277
424 487 487 456 330 261 255 252 228 281 232 232 230 225 223 247 255 228 227 222 216 210 209 209 208 214 218 204 248 257 294 345 346 312 367 370 362 87 257 258 114 110 201 232 264
418 435 480 366 324 259 254 219 224 281 237 227 229 229 219 214 215 216 214 215 213 210 210 213 215 198 214 246 237 282 372 368 319 303 341 349 352 370 89 371 381 371 244 237 222
427 465 489 338 318 261 250 206 230 269 243 229 223 230 225 218 214 217 214 209 210 164 213 211 204 259 245 235 250 251 247 231 279 351 356 350 108 103 95 355 362 365 362 243 235
415 485 422 330 323 282 167 206 234 261 247 236 224 218 225 217 215 210 215 213 216 218 205 221 228 242 232 232 226 250 84 251 246 94 391 375 332 342 349 241 361 364 360 274 239
376 462 380 325 236 309 246 228 227 227 262 252 231 220 221 221 224 222 218 218 212 207 211 239 204 203 231 230 225 243 225 186 239 253 336 230 355 364 366 366 383 272 352 309 277
384 485 422 324 352 299 242 238 227 222 252 262 240 225 222 224 219 209 216 215 210 209 229 226 183 223 235 217 223 236 241 249 267 270 286 302 321 345 373 394 379 430 294 149 309
376 426 344 337 353 298 236 236 228 216 228 225 254 232 218 212 210 218 215 217 208 220 229 218 226 241 231 230 224 223 228 234 247 257 269 282 289 310 327 369 359 412 282 309 292
384 328 334 348 342 280 198 234 231 226 226 224 240 222 229 220 221 212 219 205 217 232 232 235 204 239 235 246 214 228 225 218 236 206 257 184 245 266 302 325 367 283 306 303 287

GFSSW_2pvu_pres_009.txt.gz
Presure
340 350 331 255 255 265 262 253 248 233 238 227 231 226 225 221 232 214 205 193 187 183 192 185 182 172 177 165 168 169 171 165 169 172 162 169 169 171 166 178 180 179 169 174 159
315 327 350 295 270 258 248 250 253 253 239 245 236 214 231 228 219 228 215 206 192 195 191 181 173 173 173 174 170 176 162 144 169 168 167 163 171 169 132 126 166 159 153 174 189
336 317 324 306 284 266 243 256 262 253 223 244 239 229 221 233 217 224 225 216 210 206 203 192 188 184 176 177 194 171 198 175 207 168 174 164 169 176 161 175 175 182 182 169 124
297 333 310 316 333 279 271 262 244 243 245 229 235 247 241 213 220 226 224 232 210 205 207 212 202 196 181 205 206 214 181 211 196 190 175 175 210 193 177 137 179 219 182 218 222
293 293 301 308 302 322 275 275 250 245 247 231 237 235 249 257 238 221 232 216 224 207 201 208 200 203 203 205 207 207 199 206 212 204 184 213 219 214 211 239 212 191 220 169 185
288 286 288 296 326 294 305 313 271 246 260 236 234 232 234 226 237 244 212 224 224 219 216 203 203 203 204 204 201 203 207 205 201 207 204 201 211 212 224 221 204 175 203 173 181
302 291 279 283 291 326 282 291 289 291 240 241 253 241 248 231 237 240 234 217 233 214 216 221 205 199 204 210 207 138 209 209 214 215 210 215 224 223 184 219 170 170 189 181 184
295 285 269 274 279 288 311 287 282 276 267 255 234 243 224 224 241 244 251 221 218 226 222 216 216 210 206 209 214 143 199 198 207 204 200 213 210 217 214 219 218 223 225 201 181
263 261 263 256 255 276 283 307 276 257 272 243 261 243 251 236 240 236 245 226 241 224 246 214 220 212 206 198 201 208 169 167 210 196 188 219 218 213 201 211 200 212 214 216 216
480 297 279 253 248 248 273 280 296 267 259 241 255 258 242 248 237 233 244 244 222 239 230 231 215 216 216 212 204 203 210 207 217 210 210 213 208 212 110 208 207 207 217 212 215
540 540 549 302 259 246 245 270 278 290 282 255 254 262 256 238 240 248 251 260 271 320 275 239 222 219 218 213 206 206 204 207 203 208 209 197 199 214 222 208 205 205 205 210 195
472 474 544 589 312 262 248 245 272 272 255 314 280 258 249 255 254 251 257 252 247 288 263 235 229 219 217 214 211 205 208 207 206 195 203 190 185 205 210 215 222 205 207 206 208
493 505 502 536 491 299 254 250 249 251 260 274 309 299 257 261 259 266 254 270 242 269 235 259 236 218 217 216 212 203 209 210 208 210 209 212 211 212 205 209 214 222 206 195 204
468 499 501 514 475 395 279 248 239 255 259 260 289 288 285 280 272 278 276 256 259 258 252 249 243 227 217 217 217 213 206 206 205 208 212 210 212 162 202 209 211 220 221 205 205
451 456 476 446 531 465 292 257 242 243 258 260 287 281 275 269 262 262 261 253 256 253 236 252 238 231 223 218 212 211 210 212 214 206 76 209 215 211 207 207 217 217 220 226 212
422 426 439 498 510 470 295 272 247 239 257 253 287 275 267 263 260 254 253 249 239 246 248 236 237 228 226 222 210 209 208 213 217 220 221 208 223 76 213 218 200 226 231 231 234
403 426 446 465 485 410 308 283 249 240 272 260 282 266 264 258 257 254 243 241 239 236 235 235 230 227 222 216 214 213 211 214 218 219 225 206 244 86 199 155 251 247 241 243 241
411 435 478 496 449 364 315 277 254 245 260 271 276 263 258 253 251 239 236 234 231 232 228 223 218 219 222 218 220 218 222 236 269 264 259 240 249 101 231 116 131 266 235 241 233
418 456 537 589 433 353 306 258 263 247 244 279 274 261 255 245 238 233 224 229 232 222 212 281 279 279 280 271 265 256 233 231 227 225 227 225 143 251 109 178 245 278 210 192 266
429 475 498 465 422 330 306 260 251 240 246 285 256 250 244 239 240 234 227 227 284 277 269 259 247 240 236 234 224 216 214 220 217 239 309 352 362 255 288 98 108 107 122 251 348
435 455 461 433 351 331 293 253 247 241 270 269 254 241 235 234 227 219 283 272 258 249 240 232 234 225 219 208 206 210 234 251 266 265 301 264 333 87 331 362 284 372 305 380 129
424 457 464 470 338 322 261 250 238 241 279 253 240 232 227 225 282 293 273 240 237 232 227 220 216 213 221 206 233 231 246 244 242 268 292 310 352 376 381 360 367 375 372 138 352
460 491 483 365 296 161 239 247 221 257 271 249 236 227 217 221 248 244 238 235 211 219 217 210 206 206 208 212 238 230 228 234 237 255 233 283 171 336 352 343 322 374 351 347 371
447 471 453 345 254 264 247 244 221 271 254 233 229 221 216 213 213 213 219 219 218 217 216 203 197 226 227 242 229 225 221 228 184 249 269 270 294 304 324 356 347 114 352 357 379
495 420 325 324 307 257 252 241 213 270 245 232 228 220 219 221 221 214 215 217 220 220 199 203 232 229 236 219 225 216 221 232 227 129 240 90 131 305 310 354 384 356 355 355 366
394 385 341 311 313 258 229 214 232 264 244 236 226 219 225 222 218 216 225 220 219 201 196 228 225 227 239 229 228 224 234 210 236 239 238 250 270 277 312 360 357 384 357 356 366
398 377 336 321 310 244 223 198 230 257 250 239 235 222 219 222 224 225 219 214 215 193 235 254 219 189 229 236 219 221 208 224 224 226 241 241 254 276 326 341 389 353 347 337 325

GFSSW_2pvu_pres_012.txt.gz
Presure
314 321 327 332 363 346 301 260 264 251 255 173 255 207 162 231 235 156 209 196 188 187 184 184 195 184 187 179 171 170 167 167 168 170 167 165 170 134 167 142 166 158 165 173 145
310 308 323 321 333 336 309 296 237 253 249 249 215 259 201 213 191 232 222 213 207 192 196 198 178 179 193 188 178 173 173 168 175 165 174 171 140 173 131 167 147 172 160 165 173
320 308 305 307 318 330 330 256 291 259 259 262 255 216 177 236 206 201 223 227 214 205 192 191 171 181 180 185 181 172 168 178 176 171 173 176 162 170 167 168 171 166 153 177 167
310 309 302 298 296 320 313 349 287 268 246 249 249 218 247 223 230 197 221 216 233 221 201 202 186 188 188 175 180 185 180 180 170 174 166 160 168 165 168 172 78 172 146 168 173
302 296 297 299 295 294 313 315 332 296 259 255 249 233 240 253 244 227 230 226 208 211 228 212 204 203 192 187 188 195 197 196 184 187 176 175 178 176 171 160 173 167 167 170 176
309 312 288 292 295 292 289 303 319 297 286 253 251 247 243 236 254 234 229 226 216 219 219 231 209 209 209 203 194 189 189 186 182 178 184 184 184 173 168 164 207 211 178 167 181
313 317 297 284 284 287 288 293 295 288 292 264 254 264 243 237 243 235 243 233 224 240 222 226 212 212 205 207 205 200 198 200 196 198 188 182 181 202 212 212 206 206 208 189 176
272 274 277 279 302 284 284 283 309 294 311 277 264 254 238 241 246 232 230 233 242 227 212 233 216 223 205 206 206 201 204 205 207 206 208 214 211 209 204 206 211 224 220 224 224
555 619 381 319 301 278 281 280 277 313 290 307 269 264 261 235 231 242 222 234 228 244 239 217 232 219 227 197 204 204 194 201 199 196 204 210 215 205 204 211 205 208 212 211 215
465 428 430 445 560 310 275 258 260 275 312 285 304 260 264 254 236 242 235 223 223 232 230 219 242 219 235 222 212 203 206 205 201 180 175 132 210 212 211 210 210 209 204 220 220
531 541 468 462 507 542 283 280 269 277 268 293 272 281 291 283 242 245 230 229 230 233 235 237 233 246 219 219 219 218 218 210 206 205 205 176 211 138 153 214 151 199 152 209 207
451 438 445 497 509 562 362 265 262 257 267 265 282 268 268 268 287 247 232 242 229 227 227 239 242 249 238 219 220 231 219 218 218 217 214 201 201 204 209 210 211 207 208 217 208
459 445 468 505 497 536 495 265 260 252 251 260 285 270 261 266 253 263 241 232 230 229 229 237 235 237 241 218 237 223 235 228 222 217 213 215 213 208 206 206 203 202 209 212 206
413 441 430 476 516 517 478 267 259 252 240 254 266 285 262 262 256 253 245 241 236 239 244 239 241 238 236 215 279 256 225 242 216 218 219 214 209 203 203 203 202 205 215 210 217
426 414 430 423 522 544 458 282 254 252 251 253 258 266 276 285 246 262 248 252 242 233 235 240 237 252 260 285 271 257 221 233 235 219 220 214 219 206 201 204 104 201 211 213 215
414 406 423 444 493 457 398 360 265 249 244 245 259 261 269 271 310 267 254 250 251 253 253 251 254 268 270 264 251 241 253 236 229 223 113 163 221 95 201 201 157 218 218 218 217
412 416 431 461 497 453 358 383 281 254 245 243 251 256 259 291 286 284 282 249 254 256 272 268 259 255 259 254 249 248 243 240 244 230 214 219 214 206 98 79 168 226 225 225 233
441 430 475 480 510 383 355 344 278 256 245 246 236 257 254 284 277 270 272 276 272 265 255 248 251 255 248 238 235 242 242 240 232 225 220 219 217 214 99 148 95 237 206 230 242
417 477 488 495 446 353 350 339 286 251 249 240 236 245 292 277 269 263 260 265 253 247 251 241 235 240 240 240 238 233 230 228 226 224 218 216 209 227 115 126 114 133 169 176 127
437 487 555 534 353 343 334 319 281 253 245 226 245 267 268 264 259 256 254 254 250 238 238 239 236 236 235 234 220 203 213 211 214 227 226 238 240 246 266 284 89 204 148 337 395
476 465 534 421 364 341 326 308 267 250 241 232 240 278 268 259 255 246 247 241 237 235 232 230 228 226 211 211 237 247 238 234 229 227 231 249 267 240 247 310 311 323 103 112 97
507 466 475 364 344 344 316 287 257 248 228 242 285 272 250 250 245 238 239 237 230 230 226 219 265 255 244 239 229 224 222 231 238 251 242 248 252 254 287 309 100 94 166 334 351
519 492 361 355 350 344 305 269 249 237 243 249 267 253 242 238 236 234 232 229 235 270 257 251 245 239 227 216 217 218 215 215 235 233 230 237 245 91 296 302 309 324 277 362 360
451 445 339 343 347 306 268 251 208 230 260 273 249 240 236 235 233 229 276 266 256 252 241 235 227 220 216 178 229 241 241 232 223 236 226 242 253 182 303 329 324 341 347 363 372
498 466 406 337 307 279 257 250 242 239 290 249 238 231 233 229 249 273 258 247 245 235 229 211 215 214 208 228 215 240 223 224 222 221 239 236 254 279 305 330 344 379 373 357 358
451 383 353 337 292 272 253 233 246 280 250 238 232 230 224 219 218 214 213 213 218 209 217 208 223 227 233 223 245 227 223 221 217 226 91 236 248 93 263 265 340 354 365 356 351
404 387 372 308 274 257 237 218 259 270 250 236 230 228 225 219 217 210 215 218 213 218 213 207 209 237 238 238 226 215 216 211 215 218 231 240 237 262 248 275 272 328 366 365 348

GFSSW_2pvu_pres_015.txt.gz
Presure
338 334 341 327 323 344 347 365 280 279 254 249 246 257 200 177 207 164 211 232 214 216 205 195 192 184 190 161 179 188 183 169 166 172 175 175 172 163 158 161 169 175 160 121 144
218 334 320 339 322 319 340 313 342 295 263 253 256 247 253 190 220 165 202 170 225 207 214 205 193 190 183 172 177 165 183 179 175 176 174 170 175 110 152 169 133 126 169 172 175
335 326 331 314 330 317 314 334 329 314 285 252 245 251 205 246 215 206 164 208 225 220 222 195 204 183 188 185 175 169 166 167 187 179 177 179 161 161 174 144 177 170 176 167 160
104 300 276 318 311 317 309 306 329 332 354 268 262 259 258 248 244 214 231 217 157 217 215 206 196 195 190 188 189 172 175 173 168 188 186 173 173 178 173 164 174 176 165 166 167
344 342 337 314 314 303 308 305 308 318 329 346 263 263 248 239 245 212 165 214 177 234 212 219 220 213 209 179 183 185 176 187 185 174 187 182 178 181 174 177 173 177 183 168 167
321 297 292 312 324 269 299 301 299 302 312 326 262 263 249 252 232 249 229 196 203 205 237 211 218 216 210 214 180 185 191 190 180 183 190 184 196 187 175 174 174 175 177 175 175
464 458 447 325 301 329 307 296 301 295 318 308 317 274 261 249 240 227 246 220 193 202 200 211 218 212 204 208 201 199 199 186 200 189 182 186 176 180 183 187 182 182 181 170 172
494 441 445 555 448 309 324 304 295 297 291 311 296 326 264 255 250 238 228 238 234 213 223 204 174 215 219 210 209 203 200 196 192 186 186 189 186 189 193 191 207 201 198 190 191
526 518 532 494 459 391 301 282 293 294 293 295 311 316 277 275 249 240 245 241 222 241 218 228 207 231 210 224 218 211 206 203 203 199 192 199 190 187 188 188 190 189 186 187 187
535 532 523 516 536 435 342 284 280 288 288 286 308 311 317 257 250 246 240 246 226 228 247 205 223 219 227 219 179 214 207 214 206 206 205 208 207 204 203 205 208 210 213 210 207
445 449 470 516 451 503 419 307 273 280 288 290 290 296 302 289 277 238 245 247 239 245 227 238 234 231 223 226 241 217 228 218 214 207 213 211 202 202 206 204 205 206 201 204 208
428 427 439 471 507 494 525 413 286 273 271 284 279 295 287 308 283 269 246 245 237 232 231 240 230 236 239 229 217 214 231 219 227 215 214 211 206 203 207 206 201 134 199 196 207
432 417 418 450 478 510 519 420 316 271 270 273 272 295 278 280 300 270 253 242 249 234 237 239 222 231 226 227 240 240 235 229 223 226 224 211 205 202 202 203 205 134 202 170 169
425 419 416 433 422 520 536 494 440 272 267 272 275 272 286 277 282 301 260 234 249 232 232 228 238 224 221 224 234 238 235 227 258 236 245 224 225 216 209 207 206 205 209 218 217
418 419 427 431 453 526 521 462 381 275 270 269 253 269 298 275 270 278 292 245 255 257 233 232 236 233 231 219 229 232 235 247 254 258 251 223 222 228 231 216 214 206 214 216 215
408 431 459 449 459 507 483 431 346 271 260 265 258 268 254 303 270 263 262 271 278 283 254 238 234 230 227 224 228 233 238 239 246 251 247 216 235 264 206 221 233 210 220 219 220
421 453 464 474 486 533 408 383 270 278 266 254 246 254 262 276 284 264 261 257 250 253 262 239 229 244 239 232 238 241 246 251 256 291 283 264 260 176 197 153 226 223 179 220 223
449 483 558 493 508 389 383 348 301 266 255 251 248 248 255 266 265 279 271 259 258 248 249 243 243 235 231 236 240 243 252 270 276 258 247 248 247 218 187 78 129 243 230 165 218
487 523 509 518 393 372 358 329 282 261 251 248 240 235 258 250 269 253 307 297 252 255 258 247 250 248 245 250 269 279 260 255 251 241 234 235 238 239 233 233 231 119 105 117 227
501 575 424 381 392 366 343 333 268 258 246 241 242 233 243 256 261 284 281 278 278 282 251 253 257 256 270 261 254 254 246 243 241 233 233 230 230 223 228 228 229 140 242 244 252
500 398 362 354 369 359 185 342 262 252 246 240 236 231 254 249 277 270 266 266 265 267 269 274 269 261 249 237 236 235 233 234 229 222 216 216 213 230 241 245 159 251 266 320 172
497 372 366 341 339 348 362 291 265 249 248 249 230 243 244 289 275 271 265 259 258 255 246 243 245 243 236 234 225 227 219 211 212 235 241 237 235 90 243 203 254 261 223 240 98
402 375 364 338 359 356 327 290 267 249 247 242 236 237 285 269 257 250 253 250 247 244 236 233 232 228 231 225 217 217 237 236 228 218 221 236 243 249 242 254 101 274 316 360 353
385 368 331 339 353 346 300 270 251 253 240 237 240 286 265 250 247 243 239 239 239 236 229 229 219 231 251 240 236 229 223 228 225 217 220 229 233 235 201 279 285 311 369 368 365
364 376 369 355 326 294 280 267 251 243 243 242 290 258 248 243 239 238 239 235 230 222 255 263 254 238 229 229 225 218 228 208 234 224 219 216 227 257 235 257 303 313 387 368 363
375 389 350 378 296 279 219 238 243 237 258 283 251 245 240 239 240 232 227 283 266 259 251 243 225 229 219 232 204 216 220 231 228 226 215 237 232 239 259 240 296 293 343 349 348
281 377 360 281 254 245 242 228 241 260 268 249 240 238 238 235 285 284 270 260 247 244 236 227 216 223 234 226 250 240 231 229 213 215 224 222 229 219 252 272 285 278 288 315 338

GFSSW_2pvu_pres_018.txt.gz
Presure
292 336 299 337 330 334 343 330 362 341 282 268 267 260 267 255 222 202 196 226 164 217 212 198 180 190 173 172 179 175 176 189 168 172 185 195 194 162 134 137 101 158 97 149 150
313 325 373 309 329 329 330 336 321 341 284 291 266 253 234 268 243 211 201 193 214 157 221 206 203 189 188 174 178 168 165 170 183 181 176 176 183 188 178 117 147 183 139 148 140
320 370 345 332 355 326 301 333 325 335 335 295 266 268 263 255 266 219 199 221 194 192 153 225 210 194 190 194 179 163 165 166 168 186 184 181 171 185 180 173 167 158 176 157 154
345 359 324 331 313 339 323 299 325 315 340 330 290 263 262 261 264 253 208 194 207 157 184 174 226 216 195 196 198 187 163 160 164 163 169 132 180 174 171 170 176 184 162 169 171
374 393 526 436 428 339 339 319 323 317 310 324 293 275 263 259 245 252 238 201 218 199 161 175 210 222 220 212 207 196 190 171 173 176 172 158 165 182 187 176 170 179 176 168 172
374 522 459 244 527 153 321 336 310 312 309 321 322 310 269 260 256 245 232 260 201 213 177 177 217 189 180 220 219 215 206 203 190 184 183 166 169 173 165 172 183 185 179 174 176
600 544 524 503 472 463 114 312 333 304 302 296 321 334 301 257 254 245 236 229 207 203 220 184 192 216 153 223 215 206 207 200 197 203 184 178 171 170 175 177 171 171 179 189 184
377 535 535 519 524 309 425 361 310 299 305 297 310 317 339 272 255 251 239 242 248 248 210 205 215 179 220 226 221 217 217 207 190 191 188 187 181 179 178 175 157 179 178 182 185
506 470 456 459 541 534 489 441 319 301 300 295 292 312 317 296 264 246 247 239 241 247 238 206 227 165 177 215 214 214 210 206 200 195 193 193 179 180 184 184 182 190 181 178 180
444 464 447 440 459 536 536 421 326 307 295 292 295 299 308 299 313 256 245 241 249 235 245 229 202 218 205 178 197 188 180 212 213 214 213 213 211 178 183 184 181 186 191 198 181
425 418 440 438 446 486 449 479 541 300 288 288 296 285 299 321 310 289 249 245 244 235 232 251 211 244 206 191 196 239 210 156 213 209 204 209 200 192 196 197 196 196 199 193 192
420 406 432 434 441 460 438 429 624 304 296 291 285 276 295 299 291 290 252 245 247 245 234 236 240 223 209 249 199 195 232 184 178 178 209 204 205 201 207 203 203 197 198 200 202
420 400 415 432 450 438 528 428 477 297 300 278 278 275 288 294 302 299 281 245 251 225 242 231 228 237 214 226 241 214 207 217 226 217 201 199 203 207 206 207 207 207 209 207 208
425 412 436 447 459 458 472 418 482 297 290 262 276 277 283 294 298 296 289 269 249 245 252 236 233 234 234 229 233 244 236 226 206 231 224 225 214 217 206 200 214 216 211 208 209
433 428 462 451 449 479 439 404 483 298 278 266 270 267 274 289 292 288 294 272 271 262 239 240 243 233 238 222 223 232 237 233 220 219 225 227 236 227 223 225 221 215 213 213 210
450 469 465 463 431 495 531 392 435 269 276 267 259 277 271 287 286 290 293 281 270 248 269 237 238 241 247 234 234 226 243 226 228 231 233 239 244 219 214 223 221 232 227 231 224
489 509 491 473 487 492 410 425 380 284 274 206 278 276 265 284 274 280 279 301 264 262 261 253 233 240 247 231 225 234 240 222 229 232 222 228 169 180 225 239 238 249 258 257 183
547 505 513 528 458 440 417 376 337 288 268 261 264 260 259 291 280 269 273 274 288 286 265 262 250 237 238 235 233 230 236 238 230 228 227 233 235 233 216 244 283 289 283 97 264
527 441 452 431 405 378 361 347 243 280 268 260 257 248 261 248 294 271 263 265 267 277 282 257 253 258 252 250 231 230 234 230 228 231 232 243 246 239 273 258 131 264 261 254 251
417 423 393 366 366 362 349 356 272 265 257 253 245 236 255 259 263 283 273 263 261 258 264 265 266 268 269 266 265 238 229 241 239 238 240 248 271 260 255 216 117 151 244 244 186
406 378 358 360 268 371 331 285 265 254 252 248 250 244 259 254 264 266 262 268 271 254 260 250 252 244 246 241 243 228 231 236 246 270 268 249 238 236 231 230 233 242 243 219 104
388 342 371 338 374 303 285 268 266 231 252 239 234 235 245 261 258 256 296 292 293 277 264 249 259 245 242 247 250 257 264 267 254 249 237 229 228 227 229 222 222 247 245 164 246
360 385 271 357 362 301 279 263 267 239 242 238 237 234 256 248 285 278 273 272 271 271 270 273 275 247 248 253 273 258 239 236 232 232 242 220 236 122 236 233 232 245 291 302 310
387 379 380 367 386 269 271 253 250 254 246 232 231 242 263 280 267 262 258 255 257 256 254 256 259 259 255 247 238 233 228 226 224 229 228 233 226 238 243 238 247 267 284 296 358
352 359 382 381 301 288 269 262 250 255 235 238 245 239 277 264 253 253 250 250 251 252 249 244 240 236 233 232 228 219 227 235 235 232 237 231 226 224 239 261 261 279 272 308 335
332 318 315 305 262 279 261 269 255 241 247 238 241 282 262 256 248 250 250 252 251 247 238 231 229 225 221 226 249 238 233 230 215 230 217 234 231 226 234 86 235 263 255 279 315
289 336 295 276 256 251 239 245 240 242 243 255 284 261 253 251 246 242 242 242 239 235 223 219 245 247 254 238 232 227 208 217 236 233 228 221 224 225 223 243 273 145 256 267 264

GFSSW_2pvu_pres_021.txt.gz
Presure
260 305 310 315 341 340 352 357 315 342 327 364 359 289 274 273 270 255 208 212 203 200 211 166 191 215 206 198 189 189 182 171 176 181 180 176 169 169 168 161 152 153 88 116 114
268 305 304 352 374 414 299 311 337 331 333 325 338 310 267 275 258 250 249 241 208 186 167 183 179 195 182 210 189 185 182 173 183 186 188 186 179 174 146 164 164 164 113 86 163
273 192 342 359 478 459 87 331 348 317 336 327 341 365 297 269 256 259 229 247 237 203 185 186 166 224 203 222 200 188 159 174 181 187 194 188 174 174 149 136 174 170 168 168 154
314 337 351 101 542 560 479 418 324 336 322 332 312 352 304 279 261 242 237 252 236 213 202 195 227 173 197 221 211 194 180 165 168 181 180 185 190 195 180 147 152 181 188 190 188
326 348 368 566 536 509 522 318 247 319 317 330 315 342 355 284 260 261 240 225 253 227 199 201 175 192 199 230 222 204 186 179 171 178 177 182 126 182 178 185 190 174 176 183 184
341 351 438 496 544 510 493 540 436 322 335 309 318 315 336 291 264 254 264 233 260 248 238 199 196 187 203 155 229 218 183 188 186 176 169 172 182 169 167 182 186 187 178 168 161
339 342 458 443 469 509 519 118 441 355 323 310 285 307 326 340 267 261 254 240 251 258 234 207 201 206 163 220 154 217 201 193 175 180 181 187 173 165 173 177 172 168 171 180 178
340 448 447 430 463 473 538 527 494 382 320 310 304 302 321 340 285 255 251 249 242 259 251 230 213 185 231 207 169 218 217 206 196 199 189 193 186 184 167 168 161 160 166 162 158
351 460 432 422 431 459 487 523 466 385 321 311 293 301 310 322 329 267 256 249 236 250 254 244 225 194 192 212 147 159 222 218 216 206 194 192 184 190 192 187 182 111 144 182 163
368 462 422 422 423 450 468 529 477 399 322 315 301 304 298 307 340 276 261 259 245 249 260 240 234 206 192 222 189 208 169 172 222 220 217 214 204 203 209 205 203 200 189 190 179
486 445 422 420 426 449 463 537 509 395 318 307 309 294 286 311 329 298 264 247 251 245 247 251 217 201 197 185 205 188 171 171 225 166 184 213 214 198 201 202 203 189 186 184 181
456 445 431 420 443 466 464 539 441 489 316 297 291 287 284 302 323 311 275 258 241 248 251 252 256 254 223 198 204 208 187 168 171 216 222 215 210 205 209 206 206 198 191 197 187
464 458 435 441 454 457 467 535 434 431 318 294 284 288 280 289 303 321 299 265 251 244 253 242 238 224 242 217 182 213 203 191 208 176 176 218 214 210 203 209 208 206 206 206 209
482 457 451 458 441 448 475 529 243 407 310 296 282 280 280 280 297 317 301 295 258 245 241 246 233 230 239 228 235 198 211 197 180 227 188 187 184 181 189 207 210 211 211 210 201
499 484 442 439 442 463 536 418 538 329 303 284 280 277 277 280 288 319 305 294 287 253 246 238 239 240 241 242 243 230 194 199 204 197 229 205 193 209 199 201 203 189 196 202 200
513 526 476 479 447 503 418 530 430 322 297 287 279 273 148 281 290 303 303 300 295 268 251 249 239 236 244 229 223 246 233 234 237 200 195 208 194 183 192 226 209 205 200 202 205
554 525 500 485 514 433 450 463 284 310 289 286 269 275 273 270 293 291 291 289 288 283 282 253 238 235 239 240 230 234 229 233 239 220 211 226 238 128 213 224 226 227 231 233 234
425 482 502 439 400 438 444 411 315 301 293 267 255 262 269 266 287 288 291 281 275 274 279 274 244 240 239 221 231 240 231 229 232 238 209 210 229 89 239 229 226 239 238 240 242
376 461 433 403 384 370 371 322 208 284 265 267 268 270 263 290 287 281 277 286 287 271 271 274 270 240 238 243 241 247 244 231 227 241 227 238 234 235 197 232 118 235 231 222 225
373 397 390 376 356 367 331 290 261 258 256 269 256 255 260 283 279 270 272 284 291 286 271 263 265 269 268 272 237 232 235 233 239 233 229 227 232 241 249 235 233 236 237 189 184
391 371 373 382 372 313 275 269 268 257 252 251 250 264 256 282 286 276 270 272 274 286 282 264 257 269 267 237 258 253 239 229 238 241 239 231 229 236 239 233 237 233 216 153 205
388 380 362 314 304 295 267 263 263 254 247 243 244 260 258 266 273 288 279 261 261 264 269 276 277 282 272 253 254 253 255 254 250 252 251 233 231 230 181 222 260 256 97 245 252
371 394 320 303 270 277 273 271 258 255 251 247 239 250 252 250 251 253 258 265 268 255 255 252 253 248 253 256 260 264 265 260 254 251 251 246 257 250 251 248 244 241 244 246 263
333 398 312 271 280 267 271 249 255 248 250 244 237 242 250 249 267 281 278 265 249 252 260 253 248 246 246 250 252 251 245 243 245 250 258 246 242 238 234 238 232 239 242 249 290
321 346 283 301 288 275 269 270 253 246 238 235 240 246 248 287 277 267 269 272 274 274 274 269 262 246 245 254 253 243 243 255 256 244 233 232 233 232 227 248 248 230 243 281 267
286 309 274 286 283 273 260 268 256 244 245 240 245 234 281 276 267 258 257 259 261 263 264 263 263 263 266 269 262 258 252 241 234 226 230 227 236 209 237 231 236 237 286 258 251
267 291 297 266 259 262 248 251 243 241 247 249 234 256 278 266 258 257 256 254 255 256 252 251 248 250 248 247 243 236 230 225 227 243 229 231 235 235 208 228 248 258 258 244 238

GFSSW_2pvu_pres_024.txt.gz
Presure
279 267 302 300 303 315 287 367 429 368 340 346 331 338 373 316 289 283 218 197 214 213 200 208 179 199 195 188 195 189 171 177 171 192 165 174 173 164 157 139 164 150 144 87 140
282 270 318 259 331 339 371 509 478 438 402 326 337 349 349 387 299 283 269 272 203 210 209 198 186 180 203 170 188 192 183 164 169 175 188 167 178 159 153 153 143 154 158 141 123
282 295 324 325 343 384 507 505 570 460 412 333 340 326 332 362 317 283 278 269 264 209 191 209 206 182 150 152 167 189 183 182 169 184 180 198 179 173 166 167 170 165 163 155 151
284 323 323 288 357 480 509 498 496 509 425 342 330 317 330 349 371 294 275 278 248 252 208 209 212 202 184 211 203 171 184 189 191 177 179 179 193 180 171 159 158 158 156 170 171
289 331 331 342 427 454 449 488 470 503 425 363 323 328 337 332 356 314 282 280 267 208 254 218 207 204 209 182 185 167 192 188 188 193 189 188 173 191 181 173 183 180 180 179 179
331 322 347 411 454 436 436 478 483 477 424 377 322 332 322 316 336 334 292 279 268 258 260 231 214 208 205 185 185 178 163 193 200 200 196 192 187 187 180 179 181 187 179 180 175
331 332 325 470 437 421 430 457 473 303 103 381 323 331 317 310 338 332 298 280 273 261 231 249 222 214 210 205 151 193 183 175 196 212 205 203 201 171 178 185 185 187 188 139 181
333 348 467 465 430 415 422 449 484 487 500 380 321 329 308 306 318 288 314 280 264 261 253 258 237 217 211 208 185 195 194 179 199 187 191 209 204 191 179 166 169 178 174 171 167
334 438 459 418 432 421 419 447 481 478 472 376 317 318 310 305 298 309 321 277 258 252 255 249 251 208 202 209 200 205 188 177 176 172 199 217 216 199 190 185 177 169 166 165 174
372 463 438 433 433 420 429 451 475 465 436 367 319 304 301 300 301 318 334 284 254 253 252 248 238 251 235 213 199 189 198 180 158 154 163 201 63 206 198 188 185 186 177 173 173
508 486 472 444 431 420 458 459 529 451 416 354 323 286 293 292 302 320 340 277 254 248 248 260 248 232 240 236 232 217 189 197 170 185 200 155 166 217 212 191 188 184 180 178 177
508 469 468 443 453 446 447 464 516 468 385 341 315 296 298 294 299 306 327 276 257 252 251 261 247 250 239 242 233 236 202 188 186 150 180 194 206 207 207 204 201 199 201 199 196
504 470 435 461 448 429 460 491 496 470 376 328 310 292 294 293 289 307 341 278 255 251 251 257 259 228 245 248 227 236 217 196 213 190 167 222 167 165 205 196 218 217 216 212 208
528 493 485 451 451 461 482 526 453 393 348 313 296 299 288 283 280 299 319 302 261 252 245 252 248 246 230 251 247 235 220 213 201 185 185 202 203 156 171 187 210 207 206 193 209
546 540 492 473 463 476 539 424 430 361 328 298 299 298 287 281 288 307 313 299 260 257 250 249 252 246 241 249 252 239 220 223 200 195 180 216 173 178 190 176 169 174 216 214 218
444 515 492 493 482 484 424 439 375 338 310 300 225 233 285 281 279 301 324 305 290 257 254 262 254 253 246 229 251 250 234 216 187 197 183 191 222 203 203 187 206 199 192 202 207
433 407 444 420 425 419 399 387 349 315 296 286 273 287 284 277 273 298 315 301 303 264 256 258 255 258 258 257 243 245 245 241 219 202 196 195 187 204 199 201 211 188 204 212 202
412 403 446 501 469 430 380 356 323 302 293 299 275 276 275 272 282 289 296 323 298 295 261 260 254 257 244 244 245 251 249 238 237 236 234 215 233 185 118 197 198 200 202 236 228
401 393 320 410 387 364 333 301 291 305 292 261 265 270 272 270 280 285 292 311 305 298 295 261 263 254 254 238 245 246 226 227 228 240 242 235 230 230 229 233 238 236 222 231 240
397 329 318 305 298 295 285 276 269 254 260 263 264 267 268 266 275 287 289 288 297 296 285 282 278 257 250 244 241 237 234 240 249 249 227 218 240 238 217 190 237 232 229 227 214
379 321 321 295 268 279 271 272 275 273 265 274 271 270 270 292 290 285 287 293 275 282 281 287 286 286 281 253 246 239 238 228 231 235 236 242 241 236 231 231 244 246 239 234 236
359 326 309 270 285 288 270 266 258 257 257 253 262 261 260 293 281 275 267 274 287 278 268 273 270 275 275 277 258 242 237 235 231 235 243 242 246 249 242 239 238 240 259 237 246
358 301 292 300 289 276 255 264 263 253 245 253 261 260 264 271 290 274 267 268 276 281 283 282 268 260 257 263 263 264 263 241 233 228 238 245 240 229 229 234 255 251 251 253 251
346 318 285 271 261 276 254 258 251 250 242 239 239 251 255 248 260 269 281 258 264 264 269 270 270 268 255 256 254 262 264 268 268 258 259 258 255 249 252 245 241 253 265 262 239
304 328 288 284 269 263 256 259 253 247 241 240 238 250 247 270 275 261 262 266 272 254 261 256 262 262 267 272 272 272 269 269 266 262 252 253 248 239 240 253 254 248 234 243 242
305 328 293 292 268 273 264 245 251 245 242 246 243 247 239 283 281 279 280 285 252 260 267 257 249 251 252 248 247 247 247 248 253 254 245 235 249 253 249 236 231 239 229 230 255
283 277 317 288 292 285 271 264 253 251 249 247 253 250 249 280 275 272 267 268 274 275 276 257 260 260 250 251 248 247 250 247 246 239 251 245 246 233 226 228 243 227 223 258 252

GFSSW_2pvu_pres_027.txt.gz
Presure
249 284 323 317 319 303 320 316 206 319 349 348 340 342 328 356 363 328 261 231 211 201 183 189 190 182 199 179 192 189 178 172 162 159 172 165 110 153 156 148 148 141 124 136 148
259 288 321 317 321 326 315 337 358 297 437 443 436 400 351 338 348 387 320 244 233 217 200 178 187 217 191 189 185 163 186 169 175 171 175 172 175 163 163 141 142 135 135 138 152
292 304 318 319 334 329 352 413 184 476 480 529 471 429 384 329 341 350 333 303 263 238 211 200 184 187 188 205 177 164 180 180 168 184 181 173 162 157 157 166 165 162 157 147 95
300 323 323 337 326 379 415 452 461 450 468 455 552 433 382 324 323 322 378 309 261 286 237 218 219 189 192 223 209 191 143 178 190 187 184 185 172 168 168 163 167 160 159 161 144
327 334 335 335 423 461 442 452 431 427 434 447 488 422 375 331 336 326 344 367 287 239 223 227 213 232 197 190 217 203 168 157 182 179 182 180 179 176 167 177 179 179 175 161 161
312 331 338 488 462 467 440 418 411 417 494 447 473 412 371 333 251 321 327 369 295 285 225 226 221 216 186 198 209 189 186 170 186 189 189 193 178 177 159 177 175 171 190 180 179
333 344 519 484 465 447 410 417 413 414 466 454 477 399 370 323 321 320 314 341 326 286 273 267 220 210 216 186 199 211 215 180 175 181 174 185 192 185 104 168 170 172 178 178 191
339 434 480 450 423 418 401 427 416 425 478 472 465 391 354 321 323 292 337 347 322 292 276 269 236 228 210 219 186 191 202 202 180 176 180 162 177 187 188 184 181 170 170 171 154
382 474 501 465 429 414 426 429 419 455 510 479 411 383 335 314 309 302 305 319 320 324 274 272 245 235 225 212 216 201 190 208 187 177 208 193 191 183 186 186 191 189 190 180 180
505 483 456 452 457 431 431 421 444 464 469 526 395 363 318 306 308 299 301 326 327 308 282 267 269 228 198 215 207 202 176 187 190 186 181 205 222 161 191 186 190 193 197 196 187
456 482 434 436 453 446 445 449 463 505 485 408 378 323 299 313 303 291 301 318 321 293 280 268 268 265 215 215 213 201 210 210 203 146 197 148 172 215 211 199 180 194 207 206 202
487 449 444 445 447 434 436 458 525 467 444 375 339 311 291 305 292 300 290 317 305 286 281 264 267 267 271 255 205 213 202 203 213 188 199 184 172 186 212 169 161 177 188 188 204
549 452 462 482 461 457 462 524 459 451 381 341 317 303 298 283 292 291 264 308 297 277 286 267 264 268 273 263 217 187 209 203 212 219 244 200 171 180 187 170 193 162 199 191 189
565 448 508 490 475 477 525 453 449 390 347 329 305 282 293 283 293 289 277 302 299 269 274 271 266 259 270 259 230 237 226 224 211 207 205 212 196 189 181 187 176 182 205 188 217
401 452 512 532 516 489 456 426 394 355 327 311 289 277 290 285 286 297 276 291 276 271 263 270 264 272 263 260 256 219 236 214 213 217 201 199 199 202 191 180 172 175 153 191 181
501 455 457 453 452 429 409 387 362 335 318 283 272 272 288 286 288 285 295 297 279 265 268 264 264 284 262 260 254 247 241 242 212 207 206 201 199 200 175 195 188 151 175 215 176
363 352 435 422 405 400 384 371 345 326 317 290 280 293 285 294 283 260 305 288 275 266 263 269 266 264 255 263 244 254 241 235 240 237 219 212 193 230 217 216 190 185 184 215 218
322 300 336 323 308 311 308 302 295 280 284 293 301 286 292 287 278 266 296 315 285 267 266 265 274 272 267 264 250 252 253 244 240 236 231 237 231 229 215 203 203 202 188 188 195
311 302 305 315 314 311 306 299 283 271 274 265 275 281 280 280 272 276 301 300 306 286 267 266 272 275 263 260 258 253 261 231 234 238 236 242 243 232 225 210 222 199 194 193 188
319 302 264 302 296 299 284 292 286 283 281 281 282 283 279 276 274 286 285 289 314 310 280 259 282 271 270 255 245 250 253 251 235 244 247 250 242 236 224 183 203 86 206 211 213
317 306 274 277 280 285 277 273 274 280 285 274 272 270 270 267 284 280 282 289 299 319 297 273 266 273 263 258 257 256 249 254 257 221 244 247 244 240 243 236 189 230 238 238 233
302 321 301 279 286 282 279 270 264 265 260 259 262 278 291 287 279 277 274 281 283 296 308 288 281 276 264 263 255 253 262 250 246 250 247 250 241 239 232 226 224 241 239 233 217
327 301 290 288 274 278 270 259 255 259 254 262 264 268 300 290 283 279 276 277 280 275 288 300 286 280 282 271 271 257 254 248 243 238 242 244 239 227 246 240 241 240 239 234 248
289 309 288 281 283 265 277 258 253 247 241 243 241 257 254 253 286 273 271 271 275 282 271 271 276 281 280 281 281 276 274 263 248 247 240 241 234 228 223 228 236 228 243 257 276
273 294 303 304 294 282 266 257 254 251 249 244 241 252 243 257 267 253 273 269 267 273 275 277 266 264 266 264 263 255 263 268 269 275 263 239 232 233 237 230 232 254 261 263 264
301 302 293 323 297 273 280 250 264 246 254 249 251 252 252 249 294 284 254 270 260 260 267 267 274 280 268 259 256 251 250 255 254 249 246 249 256 259 257 261 253 248 248 260 239
272 280 288 273 303 291 283 274 264 257 260 242 249 249 254 263 281 281 285 269 262 265 256 259 258 263 265 270 273 265 255 247 246 257 261 260 256 253 249 244 239 249 239 244 234

GFSSW_2pvu_pres_030.txt.gz
Presure
284 296 295 324 308 319 322 319 316 316 317 156 317 317 312 321 324 335 373 285 261 232 211 194 187 176 200 166 196 175 143 163 160 159 162 157 157 148 146 135 140 135 139 84 111
298 299 298 307 331 320 325 328 324 325 327 324 329 329 298 320 314 325 343 308 262 258 225 203 215 184 182 172 166 180 193 148 164 166 164 161 159 152 152 147 141 102 139 135 141
308 299 310 328 330 344 356 383 396 399 391 385 405 371 343 334 321 316 331 355 289 283 249 221 205 224 186 183 167 184 155 164 143 172 174 169 168 158 153 150 151 146 141 80 157
312 304 329 356 502 508 491 469 449 438 431 421 425 416 423 414 371 332 321 337 295 269 264 241 218 203 179 186 187 198 185 191 178 154 153 177 170 168 165 157 157 153 148 151 143
320 350 310 476 529 505 469 449 437 420 419 425 452 450 490 415 420 360 322 333 339 306 273 249 228 216 192 206 180 195 193 179 191 145 162 152 182 170 166 173 163 158 160 159 151
317 362 465 489 465 461 461 435 422 429 415 425 418 409 444 506 286 382 320 332 337 352 262 271 239 223 225 188 196 186 198 172 183 178 185 178 180 179 178 177 175 170 163 165 170
321 484 418 454 451 436 419 404 410 404 409 411 410 450 438 502 424 343 306 347 314 350 337 251 254 232 222 158 193 179 189 196 174 193 182 169 139 140 181 176 178 174 169 168 160
458 366 450 451 432 466 425 403 400 405 424 422 432 470 440 453 400 340 315 314 330 343 345 267 261 247 227 211 192 181 177 193 190 175 196 187 145 182 155 181 175 174 178 178 171
371 356 455 448 430 444 442 420 420 421 419 436 464 443 445 414 363 325 315 302 332 331 345 310 271 260 241 223 211 190 186 172 175 183 190 183 150 134 154 179 180 175 181 180 179
366 398 482 449 435 449 438 435 445 438 447 450 448 447 413 381 344 317 305 302 299 299 353 320 290 273 237 236 203 182 182 186 175 176 178 191 174 174 188 189 190 186 184 175 175
359 522 486 451 445 459 439 445 446 476 458 459 424 397 376 344 326 312 295 303 298 293 345 340 292 254 272 225 229 212 212 207 190 185 187 217 203 187 176 180 192 186 189 189 187
354 524 503 483 467 470 467 492 481 479 439 407 384 367 349 328 302 295 292 305 275 294 334 337 292 285 259 282 223 229 214 212 217 196 179 198 185 194 195 193 192 176 184 186 189
343 341 517 493 496 507 512 472 433 402 379 361 353 343 328 307 295 296 277 266 254 323 308 328 296 283 282 243 265 216 221 212 217 213 211 171 189 211 196 188 179 174 178 196 166
332 396 492 501 486 469 427 403 386 370 356 344 328 317 305 295 287 304 274 265 248 281 317 302 302 274 279 280 253 252 214 210 212 217 207 212 175 183 185 206 206 186 180 179 207
324 337 454 461 433 415 389 375 362 343 334 323 310 271 286 289 303 288 284 262 285 267 288 297 299 298 276 276 267 269 246 213 210 209 213 211 207 177 178 186 201 188 186 188 179
322 306 325 329 403 385 373 360 351 334 290 292 281 282 300 302 290 265 262 278 268 269 260 277 291 294 293 284 265 262 255 234 213 209 202 208 211 211 208 187 191 187 188 193 199
321 302 322 328 311 311 317 348 329 314 321 294 301 306 294 279 276 283 290 259 271 269 273 275 287 299 286 275 276 265 270 260 227 215 208 201 212 209 215 208 244 220 202 189 224
288 285 292 299 324 312 315 309 296 278 283 297 307 289 300 283 283 271 302 280 285 270 269 276 278 297 304 284 273 268 258 273 224 241 218 206 201 204 200 205 203 203 208 210 211
284 292 292 255 296 293 301 303 303 302 293 288 276 297 288 295 285 279 282 280 293 282 272 274 272 275 291 303 273 262 259 266 262 230 237 223 209 207 204 189 214 216 215 208 204
298 279 294 281 283 284 294 295 284 280 281 291 293 292 287 279 287 269 293 286 295 274 276 267 280 281 270 278 290 263 262 264 265 261 245 232 229 221 218 217 211 211 209 208 207
270 292 292 294 282 279 273 279 273 276 279 277 276 273 271 272 269 277 288 287 283 278 275 271 269 276 279 272 257 267 262 259 256 251 250 238 219 242 225 213 212 212 212 132 167
287 327 302 297 288 277 270 264 260 271 272 269 286 286 276 274 283 284 277 282 288 279 285 273 271 273 267 282 276 272 270 246 254 258 247 252 245 238 238 240 240 241 183 184 243
262 282 297 300 286 277 266 262 261 256 249 247 265 268 301 296 289 287 287 288 285 309 300 275 275 277 279 272 266 259 255 255 261 251 244 239 251 235 237 238 231 222 258 250 245
286 308 263 314 298 284 277 262 260 257 253 251 248 254 255 263 278 283 280 278 283 284 295 307 284 271 264 271 288 272 256 255 249 252 254 250 253 249 255 231 232 224 234 237 242
198 283 258 318 297 290 284 275 264 258 254 253 253 250 249 243 276 263 271 273 276 278 277 278 289 291 277 274 274 273 284 286 252 251 251 247 247 256 250 244 235 234 237 233 229
320 203 283 306 312 296 291 282 273 264 264 249 249 245 251 257 283 275 262 267 271 271 275 272 271 276 280 286 280 276 269 267 285 287 269 246 242 239 243 255 240 231 241 240 241
298 287 297 156 303 303 294 298 281 277 267 263 256 252 246 250 287 289 274 268 257 267 271 273 271 264 263 262 263 265 271 277 275 274 272 276 278 275 271 259 250 238 249 251 261

GFSSW_2pvu_pres_033.txt.gz
Presure
302 307 307 302 324 327 338 336 332 330 327 322 322 320 304 297 310 314 333 303 267 260 240 233 220 195 174 204 185 173 181 140 165 157 166 162 165 149 152 165 144 142 142 111 126
312 311 311 345 328 353 336 334 336 340 329 330 324 319 302 317 281 313 317 332 312 288 250 231 209 211 195 195 171 197 182 174 157 165 159 168 157 163 152 142 148 145 147 140 138
319 318 321 374 345 420 556 536 544 482 366 343 326 317 321 318 325 273 307 309 335 319 292 224 227 229 196 189 175 146 186 165 185 167 166 161 162 162 158 164 141 144 145 154 146
324 324 372 353 542 494 515 497 503 493 455 435 360 328 321 313 308 310 301 317 307 337 298 271 235 213 218 197 192 198 179 189 151 176 174 166 144 156 157 158 152 160 158 103 149
332 332 360 358 484 473 453 462 459 465 457 450 436 409 350 327 320 315 306 297 312 309 337 276 249 231 224 211 188 176 174 184 183 160 169 185 167 165 158 154 157 160 147 156 145
334 373 360 476 450 435 430 434 434 435 430 430 432 424 409 375 345 329 314 294 295 312 341 277 276 232 227 211 213 180 159 169 185 192 193 159 185 173 163 160 156 156 158 156 156
337 363 450 472 451 433 419 434 421 402 415 414 413 411 415 398 391 372 332 311 285 316 307 322 288 251 231 228 211 200 173 171 169 198 194 173 156 180 150 167 166 162 155 155 158
372 355 514 457 448 434 437 449 428 404 401 415 407 419 437 433 454 406 386 321 286 288 316 336 270 273 232 233 223 207 204 177 184 199 195 192 186 160 180 156 164 166 162 163 162
364 354 516 464 443 435 453 443 420 412 398 407 416 433 427 436 446 456 414 367 275 283 300 327 325 296 259 227 235 219 203 187 171 181 193 182 184 196 170 185 181 141 152 169 177
356 354 509 470 459 461 438 429 446 436 424 417 421 461 463 462 497 430 378 367 306 282 290 303 344 362 277 254 230 228 209 198 193 168 170 197 173 168 195 195 189 180 157 171 177
317 330 515 492 480 473 458 464 442 455 443 456 445 436 466 325 374 359 296 308 286 338 303 291 324 374 285 238 245 232 221 206 200 195 175 171 185 174 171 177 192 190 184 184 181
308 342 534 520 516 508 489 489 479 471 443 436 432 446 356 338 320 299 317 282 291 299 308 302 316 346 326 260 249 237 230 207 210 198 202 184 180 168 191 169 178 182 178 150 175
295 331 361 432 436 431 421 414 411 403 396 396 400 360 329 323 316 316 294 272 311 319 325 293 332 337 326 322 260 257 233 225 209 203 199 186 176 173 192 192 188 178 174 177 175
173 321 333 414 410 404 391 391 380 372 368 367 357 319 322 331 334 305 299 277 284 297 286 333 299 340 327 316 265 253 248 232 220 209 213 199 207 206 174 166 166 169 179 190 190
304 313 320 310 335 382 367 368 358 360 345 346 344 339 335 315 348 284 291 280 282 285 328 318 358 351 323 314 307 254 256 244 230 214 106 213 196 178 175 179 205 206 199 177 182
286 298 300 299 335 320 311 335 358 357 326 307 314 297 283 280 280 280 266 277 261 264 288 310 303 340 316 311 305 296 239 243 237 223 216 215 212 192 188 185 178 178 183 183 215
284 308 308 287 276 323 312 298 305 287 317 308 303 303 283 272 285 275 264 257 258 268 278 283 279 302 315 305 312 298 279 243 246 231 221 215 213 211 152 160 196 193 184 181 170
291 293 304 295 262 299 324 311 299 313 305 307 305 310 299 283 275 267 265 262 263 262 270 289 293 290 305 308 312 288 285 266 259 249 222 213 212 214 219 221 220 216 206 214 214
275 288 302 299 284 281 294 311 298 305 294 311 300 291 288 289 303 281 272 270 279 277 272 286 279 295 304 302 306 289 281 276 279 256 243 217 211 215 214 215 211 215 219 217 200
295 290 321 282 290 280 272 293 299 296 302 298 289 299 305 302 286 286 284 288 268 277 268 270 278 277 283 307 314 306 282 279 278 271 247 260 225 217 211 210 213 212 214 209 209
304 296 291 306 297 280 270 272 266 285 286 286 281 276 270 273 278 266 263 269 287 283 273 274 282 277 277 292 295 305 300 299 271 267 261 259 236 240 225 220 212 213 211 212 207
312 316 290 294 299 286 274 270 268 263 259 295 294 281 275 274 277 273 282 281 260 277 274 278 272 273 273 269 276 295 286 276 276 272 262 267 265 242 234 227 225 216 209 206 203
326 312 296 303 299 296 281 271 266 263 258 254 261 267 300 291 286 284 281 280 289 275 283 265 284 279 278 269 270 261 277 283 263 262 259 262 266 264 258 234 225 220 217 220 217
327 325 275 189 316 300 292 273 272 268 261 257 253 252 252 277 291 287 287 281 280 280 277 285 269 270 272 276 266 256 254 259 274 261 253 255 250 250 252 251 241 224 218 214 211
113 310 313 176 240 308 295 289 272 272 267 254 255 256 261 259 282 281 284 281 286 289 309 297 275 271 276 291 290 296 257 260 253 255 270 256 254 246 242 246 247 246 243 239 237
338 318 314 177 189 309 292 293 283 278 271 262 258 252 252 255 277 280 270 272 274 278 284 294 319 276 267 268 263 259 283 293 256 248 248 252 246 240 249 245 241 239 243 244 243
191 317 309 295 202 307 299 310 292 287 279 273 265 262 252 253 263 286 280 266 265 268 278 280 279 292 301 277 267 266 274 271 283 258 247 242 243 249 251 245 242 243 237 245 250

GFSSW_2pvu_pres_036.txt.gz
Presure
274 324 298 359 358 337 328 328 327 325 334 336 325 307 319 320 320 313 329 342 307 340 263 226 211 197 191 165 179 180 194 177 145 174 159 172 158 146 140 147 146 143 149 140 137
127 257 342 366 357 367 451 443 401 356 324 325 333 325 315 307 316 298 308 333 345 346 313 245 208 208 194 188 160 177 197 167 178 128 155 165 171 166 151 145 142 155 149 143 133
269 322 362 373 395 493 486 477 484 559 465 383 321 335 317 310 313 293 298 305 331 317 297 278 221 204 205 189 184 157 177 176 170 168 150 172 160 168 167 155 147 144 140 132 146
143 320 362 385 502 495 508 494 482 481 458 505 512 323 329 315 305 294 281 312 305 331 304 306 270 209 221 202 208 174 164 181 173 195 173 147 158 158 158 170 158 164 151 115 141
152 321 352 418 474 467 457 447 436 453 450 480 480 463 343 327 305 311 308 285 314 332 315 306 254 238 196 221 202 186 190 161 191 181 187 171 135 170 160 155 167 167 144 145 152
304 321 373 509 470 445 445 423 423 435 429 448 457 459 426 330 313 310 300 268 287 304 322 339 306 275 228 208 223 176 196 186 164 189 114 182 163 144 165 164 157 161 165 160 143
328 321 528 491 461 452 438 426 424 408 415 424 423 442 439 343 322 306 299 283 280 294 318 320 287 299 266 227 221 225 180 194 160 166 197 182 184 173 149 155 170 160 162 163 162
331 324 532 483 456 446 451 465 448 424 406 406 422 420 425 421 331 310 276 293 299 285 291 324 302 327 273 235 231 231 219 201 196 169 61 163 177 192 172 160 158 164 167 162 161
222 325 441 510 482 476 454 442 434 451 402 408 419 419 412 427 402 326 307 261 285 295 281 294 287 312 301 260 236 228 220 208 187 189 195 172 67 128 191 161 162 162 160 161 163
326 339 386 518 516 490 468 463 451 432 422 406 409 420 433 431 435 379 322 299 275 275 287 282 295 317 330 288 260 227 225 214 216 183 187 184 144 189 167 180 174 166 143 140 162
324 335 341 389 458 480 492 461 437 442 444 437 443 456 466 457 456 453 369 326 300 275 279 299 305 302 316 306 289 237 226 230 201 209 189 191 209 161 193 188 176 174 187 176 139
154 331 327 365 439 432 433 443 445 450 446 462 442 458 467 447 442 440 427 364 327 313 271 282 287 323 313 346 311 281 237 231 229 216 204 194 180 177 172 157 189 188 177 182 178
333 316 322 348 368 396 415 421 393 371 379 367 348 342 335 365 391 394 400 398 389 305 329 266 282 294 330 313 348 278 274 236 235 224 215 200 200 179 168 206 180 161 188 185 190
325 312 324 320 349 388 426 390 350 344 329 330 322 326 296 300 308 322 303 311 293 313 309 284 271 314 298 332 371 352 269 266 241 224 224 207 200 208 193 169 163 159 158 196 176
153 331 310 307 330 331 316 368 346 346 339 355 331 325 312 302 296 284 297 300 281 295 297 350 314 268 283 288 369 362 280 254 255 236 229 226 211 201 202 194 184 170 166 157 154
340 321 303 308 307 293 333 310 340 354 345 325 310 321 331 297 279 278 276 280 291 291 318 295 328 311 285 310 304 356 361 269 265 254 232 226 225 212 205 200 196 196 181 172 170
319 319 319 293 245 278 323 319 324 334 317 322 340 320 306 292 282 272 271 266 267 279 308 294 276 338 331 320 303 349 348 342 264 263 251 229 226 220 220 190 200 195 195 196 186
346 330 300 313 200 292 309 312 306 304 313 297 302 304 298 291 285 283 280 270 275 283 293 294 311 302 362 333 309 325 327 330 296 270 260 253 232 226 215 219 216 198 189 192 197
338 250 238 298 290 202 278 318 314 301 296 301 291 295 291 279 284 280 279 273 276 269 280 294 296 296 296 320 316 325 334 331 318 281 266 259 251 233 219 221 222 219 204 200 193
193 331 319 233 311 271 234 279 298 309 299 288 278 294 287 286 276 278 279 274 284 279 279 278 280 290 285 305 310 316 309 329 318 310 285 263 245 255 237 222 220 222 223 220 210
203 280 330 140 304 298 215 281 273 283 288 303 290 289 279 289 277 275 271 259 265 270 278 276 273 279 288 293 261 295 303 321 321 305 287 269 260 243 247 239 225 205 221 223 221
372 250 335 306 185 304 297 290 279 274 267 289 285 281 281 283 272 267 284 262 282 262 271 276 277 276 273 275 298 297 303 307 314 296 297 269 266 254 250 221 236 233 221 214 215
376 349 168 320 300 299 280 292 276 278 272 265 260 262 284 277 279 278 271 269 265 270 255 258 263 264 274 276 273 280 290 304 293 302 282 287 273 258 252 246 224 222 232 242 252
280 299 300 311 313 308 301 298 286 279 273 267 262 260 256 290 287 282 278 277 278 284 267 262 279 269 271 273 260 263 268 285 291 286 295 274 283 279 271 250 241 232 230 233 224
365 344 333 176 314 300 297 273 293 283 281 274 263 261 261 264 282 282 286 283 284 276 307 277 274 271 270 268 276 277 257 257 272 283 277 289 291 277 265 265 259 255 254 225 222
145 360 330 326 313 308 294 283 297 286 281 277 271 269 263 260 256 286 274 294 287 284 288 288 274 273 276 272 280 271 286 256 257 259 272 281 270 257 266 266 262 265 268 259 260
376 337 340 304 212 310 294 291 284 290 287 281 277 273 272 266 263 271 287 275 271 272 278 283 287 297 307 272 268 269 294 276 252 251 253 254 270 246 253 259 257 257 251 251 249

GFSSW_2pvu_pres_039.txt.gz
Presure
180 349 336 365 372 366 507 402 372 354 327 329 347 335 310 310 310 301 299 313 340 371 322 263 202 207 197 187 181 169 207 183 150 150 163 172 133 170 141 161 153 146 142 142 130
205 346 355 366 393 526 521 508 519 472 420 341 325 349 325 331 292 303 305 307 313 366 331 356 224 199 197 191 186 201 206 189 170 163 154 135 170 153 146 155 149 143 148 143 144
211 244 375 366 523 495 483 485 497 472 521 468 338 328 343 320 307 281 299 308 305 341 360 338 265 203 212 197 186 168 166 183 191 175 176 157 167 156 162 163 147 146 143 146 143
223 357 288 377 517 481 469 456 458 476 475 469 488 327 331 337 313 299 293 308 295 305 360 316 317 229 202 203 195 184 204 181 187 188 184 164 159 128 171 124 162 156 147 149 142
373 223 123 524 513 473 462 453 440 434 445 462 470 482 326 341 315 301 291 293 301 292 338 328 301 276 226 200 199 190 184 160 194 158 148 179 172 180 154 169 169 160 105 146 143
375 372 343 250 502 465 455 449 432 429 429 436 443 467 447 310 325 297 296 290 296 287 304 351 324 311 251 207 204 197 188 185 173 197 182 176 185 163 171 127 172 164 119 149 143
371 270 362 412 524 490 467 452 444 437 423 421 432 433 442 343 320 306 297 295 294 292 285 329 299 307 263 239 221 206 197 187 187 193 192 171 187 186 163 161 167 163 167 165 149
358 354 353 343 459 513 479 458 471 444 412 412 428 433 426 436 313 314 292 299 289 253 281 307 337 295 303 250 222 208 219 199 186 173 161 184 191 183 183 161 175 164 161 169 167
305 278 347 336 439 463 477 471 456 448 424 413 423 422 431 437 408 317 300 288 293 283 293 284 317 290 324 251 238 231 227 173 203 191 192 116 183 189 183 180 157 158 138 158 159
259 215 342 329 388 434 468 470 457 441 437 414 426 430 436 433 435 314 304 290 288 285 287 287 292 319 345 309 245 220 221 227 202 194 186 181 162 159 194 133 182 158 168 138 143
360 342 338 324 331 455 453 449 472 479 458 433 419 430 433 426 430 335 316 294 284 283 289 278 287 316 320 331 266 245 235 227 220 202 198 186 190 59 160 158 174 191 168 166 170
142 349 333 322 318 386 385 378 367 358 378 485 468 457 445 428 435 398 320 302 293 281 287 281 280 311 304 331 334 263 234 231 236 230 214 197 176 185 185 157 160 181 191 182 173
179 345 333 322 319 381 345 363 360 365 362 357 357 362 454 481 444 442 323 308 297 284 277 282 269 283 300 307 335 325 284 239 233 237 220 222 199 189 170 189 161 162 189 179 193
308 342 330 317 313 307 358 341 352 333 352 340 338 336 341 357 461 455 337 315 299 283 297 277 297 302 283 303 313 333 321 281 253 231 238 228 219 204 192 170 189 186 157 155 186
342 263 328 315 302 317 270 320 314 317 329 350 321 309 328 328 334 427 435 322 295 287 289 277 276 284 305 287 301 328 287 333 269 251 237 241 233 216 224 190 190 179 181 181 191
247 361 282 317 266 276 319 323 327 366 365 337 316 320 320 307 320 320 375 411 303 291 281 276 293 275 294 298 315 319 331 299 321 278 257 250 241 234 227 224 190 194 183 177 189
243 364 336 320 308 300 298 310 342 324 293 311 295 274 298 267 301 310 308 325 354 302 283 269 286 278 274 316 290 305 331 368 377 279 266 263 264 232 228 231 227 204 199 189 186
150 376 190 321 314 295 297 326 315 296 318 319 302 302 289 254 283 287 298 303 302 305 309 338 279 286 315 322 312 253 280 313 328 376 264 257 264 259 245 222 226 224 226 204 195
297 377 345 322 311 297 291 314 306 313 320 313 278 295 288 278 285 277 275 280 273 287 318 321 321 314 306 325 314 314 307 270 299 365 364 339 272 264 255 249 247 226 225 225 205
313 393 365 338 317 302 293 286 296 311 301 299 298 294 293 293 293 289 285 286 289 285 307 305 312 306 325 311 271 145 319 325 340 333 352 350 291 281 268 260 254 252 238 229 223
213 403 350 334 326 307 290 299 288 278 309 287 285 302 280 279 270 283 262 253 282 278 294 277 300 294 297 292 295 195 316 310 310 335 339 338 332 281 267 256 246 248 250 247 237
299 330 379 127 135 313 265 288 280 280 269 294 292 279 288 274 278 265 265 266 263 263 256 269 275 272 275 294 290 287 283 204 302 322 324 333 329 310 266 264 249 238 241 245 244
149 374 222 293 335 318 303 287 276 288 277 269 268 279 286 282 279 271 275 263 263 269 266 270 267 276 273 264 270 277 285 292 295 300 308 325 320 311 298 264 261 258 250 239 238
131 201 171 234 338 323 186 233 293 281 286 277 271 264 268 283 288 282 280 272 273 266 266 267 268 265 262 270 277 280 285 296 311 292 296 309 317 303 294 282 276 268 256 250 247
100 133 405 141 167 223 314 301 287 297 288 279 277 266 263 265 262 284 286 291 282 273 272 273 271 260 263 277 272 265 264 271 272 288 293 292 301 299 295 277 270 265 262 259 250
194 122 422 380 129 331 311 309 300 293 294 283 279 274 268 269 258 262 288 278 289 279 277 283 283 269 278 272 280 281 257 262 260 270 273 297 294 292 289 292 265 261 258 253 248
125 114 409 214 126 155 320 309 297 296 279 289 282 275 273 271 270 263 261 288 278 288 283 283 290 289 290 278 271 265 272 276 255 260 263 268 287 287 293 290 288 261 255 249 245

GFSSW_2pvu_pres_042.txt.gz
Presure
123 177 385 381 306 358 484 515 516 511 535 359 340 350 328 315 81 295 290 321 323 316 358 332 330 226 152 207 185 145 152 146 164 182 92 140 152 159 148 157 144 149 116 143 101
184 396 390 342 126 503 492 480 463 468 487 500 355 335 347 322 320 252 293 311 323 318 332 391 313 267 210 216 195 170 185 174 194 160 152 172 167 160 172 155 153 150 141 160 144
118 327 398 285 361 516 483 466 469 465 474 500 479 330 328 338 311 304 326 303 322 312 305 359 305 343 220 205 185 174 112 181 112 206 188 179 173 135 161 154 156 137 163 148 144
211 274 396 378 364 359 468 458 446 432 456 476 497 396 321 338 310 312 319 301 302 305 310 324 380 305 329 217 209 187 176 160 179 139 180 187 167 140 174 140 158 147 137 149 140
309 263 385 374 403 359 492 471 457 441 430 452 468 465 360 314 329 308 305 304 301 293 301 308 358 318 345 211 199 179 194 176 189 171 192 149 186 170 139 175 160 159 140 145 144
118 383 380 371 384 519 512 478 459 435 423 433 444 464 468 327 329 309 290 308 289 292 297 307 343 366 294 280 213 195 169 184 178 210 164 194 149 178 138 164 160 166 150 147 145
130 250 370 364 376 506 480 482 481 435 432 433 421 442 455 444 312 317 298 305 289 287 284 303 312 355 325 329 225 204 228 177 190 185 206 164 191 181 175 172 171 169 131 152 166
250 370 300 356 347 308 512 474 471 465 439 425 428 419 476 454 321 319 303 304 292 280 288 292 303 346 356 313 257 212 195 200 193 185 182 205 154 196 191 171 163 142 171 165 161
250 290 272 354 339 366 397 459 476 474 446 425 436 419 429 442 433 312 307 310 294 285 281 291 300 312 354 324 343 225 219 199 187 195 179 201 193 178 206 184 174 160 169 168 166
191 328 357 351 339 314 195 376 384 451 442 430 431 444 433 421 454 307 309 312 291 282 279 289 293 303 344 354 340 232 215 208 197 190 153 184 209 174 211 191 182 170 160 166 170
182 200 359 332 337 325 386 336 368 361 379 442 444 440 434 432 439 307 315 303 289 288 278 278 302 286 321 348 321 265 226 212 196 205 87 194 183 194 168 189 181 175 168 171 165
148 272 360 330 336 325 313 342 362 324 355 362 452 446 437 441 441 308 310 304 292 285 278 275 313 293 299 333 302 306 229 220 214 199 224 198 190 186 167 166 119 189 183 184 178
203 134 304 344 336 322 316 321 344 341 347 348 360 445 448 436 435 414 293 301 291 290 279 277 285 299 285 314 341 296 287 250 219 215 216 207 194 189 182 181 169 170 175 187 171
192 307 336 277 339 322 317 307 361 358 361 341 353 356 448 439 428 419 304 302 288 287 282 282 289 281 285 293 321 340 308 277 243 222 222 222 204 197 193 187 171 160 109 154 158
172 187 265 349 332 321 310 306 327 317 353 345 334 343 358 481 405 420 322 292 279 289 288 283 274 306 309 281 299 323 342 310 260 235 237 232 238 213 173 199 198 180 177 165 154
205 177 268 340 334 288 311 309 329 313 326 330 332 330 336 364 447 404 336 304 289 272 284 281 286 281 282 289 284 304 328 273 307 247 246 243 241 240 235 209 194 188 188 178 185
154 200 162 265 303 328 309 294 326 313 307 303 317 287 320 326 388 418 400 303 285 283 281 279 280 280 280 285 284 282 305 316 326 329 245 249 250 229 235 239 243 205 188 188 194
162 277 191 206 130 324 307 301 305 306 312 305 288 290 316 315 250 413 400 304 291 282 280 276 281 290 293 292 294 276 289 308 321 346 315 235 237 222 239 238 238 241 238 194 192
160 236 162 190 141 323 317 299 296 309 316 315 300 294 286 291 308 324 368 308 299 292 279 286 280 282 280 274 280 289 276 311 324 317 321 356 311 257 234 234 242 240 234 238 245
147 240 176 275 199 135 310 303 294 291 294 300 301 293 300 296 294 291 283 336 357 302 283 277 284 275 285 277 284 275 280 298 303 315 315 320 401 292 254 254 263 258 248 247 234
181 132 133 120 369 223 317 308 297 293 283 299 296 294 288 285 276 282 272 296 279 276 332 310 318 321 322 314 193 272 301 221 297 308 306 289 308 341 335 261 249 252 262 259 259
147 171 123 176 381 223 328 310 304 287 281 282 295 284 292 284 272 270 271 266 277 274 308 268 312 307 297 302 332 334 320 245 344 300 321 336 279 294 357 305 273 257 258 252 256
153 194 129 173 166 207 336 315 301 290 282 273 273 278 292 288 286 280 274 271 270 265 257 267 279 296 306 289 280 300 275 302 209 308 313 320 326 299 296 334 337 298 274 259 257
164 111 165 153 353 123 290 324 306 298 286 281 276 267 271 262 289 278 280 276 272 267 272 269 274 266 270 272 281 281 285 287 290 295 298 308 319 328 327 323 307 303 284 257 255
202 162 162 179 118 229 353 198 313 302 291 280 268 274 269 266 263 268 278 290 285 276 276 266 280 265 263 272 271 277 284 285 293 286 316 303 299 318 323 320 319 295 293 294 281
130 141 116 150 123 119 125 142 323 307 303 286 284 274 268 271 259 266 259 288 284 276 280 270 273 272 269 273 267 274 271 272 273 279 284 299 291 290 313 306 307 317 298 283 286
149 201 116 205 128 338 113 109 146 312 301 297 286 279 276 269 269 260 262 257 286 287 287 280 274 271 273 273 277 270 273 265 268 267 269 275 285 300 287 298 305 305 297 300 281

GFSSW_2pvu_pres_045.txt.gz
Presure
171 133 316 119 403 365 534 503 417 461 484 463 421 367 345 357 306 308 297 232 280 288 292 281 278 279 314 312 238 214 183 162 166 204 154 151 188 174 188 159 84 87 96 88 73
162 136 305 404 229 367 530 478 469 458 454 462 474 407 347 337 343 302 178 290 287 292 293 285 283 279 306 315 264 213 218 172 206 133 158 172 140 184 130 170 135 114 146 115 88
163 129 291 400 390 374 529 471 464 454 465 456 457 480 408 339 336 319 301 290 290 294 296 285 286 287 329 310 285 224 212 162 192 172 158 184 163 193 159 130 160 157 148 146 151
122 133 170 149 387 392 508 511 464 466 433 444 457 472 421 333 319 355 297 286 287 295 302 286 291 295 435 355 296 233 216 145 169 179 175 169 211 189 173 135 158 160 155 141 146
95 149 315 377 381 377 428 525 485 468 453 438 466 458 470 372 315 325 328 308 286 289 301 281 334 287 370 322 312 253 217 211 199 172 138 141 213 184 185 140 167 158 123 155 146
148 222 230 331 373 240 369 461 516 458 447 436 445 440 451 433 329 308 322 303 284 279 318 284 319 318 343 361 292 275 227 215 197 167 168 184 181 162 186 178 175 133 159 152 135
180 143 138 378 367 357 368 372 452 477 438 441 432 443 447 470 330 306 324 303 303 280 297 305 308 284 332 308 317 308 229 218 208 191 171 150 191 117 150 183 171 174 164 141 163
131 155 187 364 360 355 359 359 384 464 461 452 439 443 453 476 340 308 313 321 304 273 285 282 285 321 319 361 307 291 244 228 210 198 187 172 184 177 164 187 176 177 143 166 165
130 158 151 297 358 355 337 389 384 379 463 444 445 417 451 469 441 311 296 311 294 299 274 278 294 314 303 336 331 323 313 230 205 209 187 191 185 192 167 179 169 180 179 171 167
178 211 180 353 360 353 337 328 370 376 377 454 448 432 448 435 445 313 295 306 293 276 264 281 299 319 297 317 376 319 299 224 208 190 192 185 167 189 212 165 152 151 184 178 171
153 202 165 205 364 238 339 321 375 359 374 470 456 461 437 449 446 321 298 311 293 280 280 271 286 311 292 306 339 379 326 294 210 210 217 188 187 182 174 215 168 159 150 182 164
118 148 197 173 357 345 340 317 353 346 347 373 467 458 444 439 455 379 301 296 293 284 277 287 282 294 289 293 319 359 287 305 237 209 209 208 179 183 185 147 200 181 159 176 188
149 141 164 172 258 345 340 322 320 346 351 360 377 464 447 441 460 386 302 285 294 288 289 291 284 290 323 299 307 340 350 286 273 217 209 203 204 184 190 195 183 203 196 166 178
167 169 177 152 145 344 339 326 330 330 358 351 365 410 451 454 452 381 303 281 299 283 283 290 283 278 291 284 297 316 348 280 313 246 215 213 197 189 191 190 166 197 189 202 162
169 159 208 128 170 352 335 322 324 320 315 338 347 370 444 444 440 374 307 285 278 295 290 294 286 282 289 305 290 298 334 343 284 265 235 226 215 201 194 195 169 151 188 176 156
168 140 156 196 134 349 339 325 312 323 322 335 338 348 434 410 421 355 305 294 288 282 296 281 293 282 287 283 320 285 308 338 281 342 247 240 232 219 212 197 206 202 191 180 176
163 144 166 129 154 198 342 319 306 318 318 312 309 332 358 411 387 339 297 285 287 284 292 246 285 295 278 281 297 309 286 321 343 320 326 248 244 222 225 215 209 198 200 194 186
168 229 149 109 161 176 301 323 314 301 307 318 314 317 323 306 411 393 301 294 291 296 281 290 280 285 285 281 274 277 288 283 326 262 300 287 246 228 237 231 223 214 207 192 192
192 157 197 128 126 160 341 307 311 303 301 319 305 301 317 331 416 411 305 289 282 283 286 293 284 282 287 275 288 278 308 310 308 331 286 304 263 248 238 236 237 230 220 214 204
142 192 210 217 162 142 299 152 265 305 296 286 304 295 295 302 330 389 363 296 284 283 277 270 281 291 284 283 282 279 273 291 301 296 318 327 296 290 263 248 239 240 241 243 231
140 157 178 123 168 126 305 337 324 310 299 295 287 298 291 288 292 324 383 296 286 281 271 270 278 285 288 294 276 284 277 283 283 299 313 309 317 343 264 262 261 260 255 247 246
210 171 203 127 146 124 130 175 216 305 298 286 281 291 294 286 273 271 285 343 296 278 272 273 275 275 273 279 280 284 278 285 273 299 287 307 292 307 338 266 259 253 270 265 255
147 123 158 125 144 128 118 118 180 139 298 283 284 279 288 292 279 282 271 276 282 316 291 287 288 289 290 290 289 280 283 230 275 287 295 310 309 285 311 315 327 283 263 259 257
198 171 178 227 176 153 125 124 337 139 228 298 285 279 275 269 278 286 282 276 267 268 294 301 305 308 308 323 296 302 313 327 333 329 226 322 321 308 298 156 220 313 359 286 263
160 124 153 100 152 145 146 118 127 294 278 297 220 243 276 271 267 270 284 280 282 277 272 260 266 264 274 279 282 279 276 297 291 282 161 277 171 307 324 318 335 225 96 163 335
120 184 158 129 164 136 207 127 355 234 273 133 186 286 277 276 272 263 263 263 282 277 282 276 269 270 263 279 276 275 281 281 282 289 293 295 309 304 302 310 319 340 287 283 346
147 175 161 171 188 184 106 111 315 241 163 267 298 294 284 274 273 267 263 262 258 278 282 278 276 274 269 257 260 263 266 267 270 272 280 280 278 287 298 303 312 333 320 333 281

GFSSW_2pvu_pres_048.txt.gz
Presure
146 123 118 122 134 407 394 377 509 494 483 472 488 484 349 348 344 315 307 312 294 289 261 243 236 211 201 202 208 226 209 183 199 190 193 179 176 158 125 144 177 108 131 82 78
120 144 125 151 322 396 386 401 528 481 458 453 448 456 460 336 344 335 305 294 299 298 281 257 254 218 209 206 225 213 201 173 214 190 164 157 178 184 148 162 137 179 173 133 81
145 133 135 128 175 387 374 380 417 497 475 457 453 451 457 385 334 336 304 294 304 302 293 282 252 242 217 212 195 175 197 207 164 195 214 195 134 173 157 152 173 175 173 175 82
136 170 128 98 96 385 374 371 430 516 487 473 453 462 454 458 353 327 332 300 296 290 302 289 293 245 235 217 215 227 245 198 183 204 182 184 194 170 181 151 133 169 185 185 149
124 124 163 178 110 301 314 363 257 472 481 469 454 460 469 463 431 340 323 342 295 295 293 286 289 278 242 234 219 219 225 235 206 217 212 167 187 186 169 162 148 170 167 185 140
133 161 146 163 177 379 369 355 364 395 480 462 450 435 455 462 485 337 327 320 362 289 294 283 283 282 265 251 229 260 268 250 130 213 240 213 179 237 129 161 165 185 179 153 129
111 191 170 228 187 373 368 353 356 373 478 475 455 443 445 444 468 354 323 309 341 335 289 282 280 280 267 253 269 269 271 255 223 257 248 229 208 183 115 193 159 165 182 186 147
127 149 125 143 269 190 362 350 352 367 399 466 457 448 440 449 460 375 311 307 316 332 283 282 278 280 274 265 273 271 272 258 148 228 245 246 211 190 188 165 160 161 155 141 193
158 152 168 154 179 164 364 350 345 362 382 471 464 437 453 433 433 382 312 295 310 327 309 284 279 281 303 270 276 275 270 261 307 311 253 247 220 187 187 178 110 169 165 187 184
193 125 186 155 171 133 369 346 333 341 335 390 473 443 455 449 469 355 321 293 297 314 309 275 280 283 299 291 271 271 266 306 292 300 265 247 225 207 198 180 185 161 170 149 150
160 154 156 150 196 187 184 350 330 332 344 386 477 463 452 448 441 352 318 301 295 309 295 281 290 273 267 293 268 290 364 350 289 302 268 254 234 207 217 185 175 167 169 179 151
119 105 166 138 135 167 157 351 331 322 328 382 424 472 449 434 459 345 316 300 290 300 299 289 296 282 291 308 324 295 325 357 322 279 278 282 239 209 188 199 193 169 156 175 204
96 150 183 150 127 170 271 153 332 322 323 360 392 472 459 445 456 339 312 293 294 293 282 280 287 285 275 281 308 293 296 372 334 293 288 272 246 217 217 209 198 178 178 168 202
118 154 153 169 128 237 185 352 332 326 322 334 385 470 452 455 452 339 309 297 294 299 285 285 292 281 283 309 294 310 303 324 373 325 285 289 245 226 212 212 208 197 154 164 175
103 148 171 155 123 123 141 353 330 330 312 334 368 447 467 461 467 335 291 297 293 276 287 296 303 305 292 282 297 318 279 313 365 289 304 300 262 229 215 207 211 204 191 175 169
105 161 164 146 111 131 339 177 221 322 312 317 350 410 458 472 451 333 303 298 285 282 283 284 295 294 298 263 274 315 302 269 332 354 314 305 308 244 219 216 201 191 202 189 185
128 143 195 171 148 123 201 186 251 321 314 299 327 369 450 459 452 329 303 287 286 298 287 290 291 290 284 285 292 283 306 296 319 348 349 289 311 279 233 219 210 200 210 205 200
137 122 134 168 147 190 125 184 212 326 312 299 318 335 403 434 415 334 302 289 289 281 272 282 293 290 284 283 277 266 300 285 288 304 317 361 294 280 272 235 213 209 205 212 205
134 161 129 151 126 110 116 112 173 243 315 303 315 320 347 403 398 319 305 294 285 287 296 288 291 291 286 281 306 281 277 286 316 288 306 333 342 328 283 283 237 221 214 214 209
127 147 161 121 173 193 113 111 345 191 314 303 292 309 317 440 413 317 297 278 288 285 285 288 294 293 286 291 283 267 284 272 285 295 284 313 333 333 265 308 284 240 240 229 213
154 148 128 171 170 200 118 114 136 147 313 306 216 303 292 327 437 318 300 288 296 282 278 279 274 281 283 294 291 281 288 282 268 266 301 291 304 326 302 304 284 270 243 249 249
154 136 146 136 110 157 199 133 314 129 135 300 153 284 306 295 331 403 300 297 291 275 275 282 277 268 279 278 284 285 288 281 279 286 270 284 261 286 316 293 257 281 270 249 245
103 162 122 189 163 149 118 115 113 206 151 300 286 287 281 296 290 308 338 282 287 277 272 279 282 285 283 258 261 269 268 271 250 282 278 283 292 275 294 311 283 322 302 275 267
141 139 129 179 172 203 160 417 111 331 228 133 295 289 283 273 287 287 279 327 304 292 279 277 271 269 269 271 277 274 275 278 270 278 294 296 291 268 282 290 310 320 327 319 272
142 147 128 140 168 191 149 153 166 172 132 257 303 294 286 278 272 277 291 276 272 291 315 285 278 278 271 276 276 298 314 309 305 306 330 315 331 162 314 294 304 311 314 325 328
141 157 133 116 223 181 157 157 186 153 314 153 304 298 288 280 276 271 265 267 293 282 267 266 276 302 298 294 287 288 281 281 285 289 291 297 302 292 305 318 319 326 341 299 310
146 138 150 125 129 141 163 280 183 301 160 135 148 304 292 280 278 275 267 263 264 269 283 284 282 270 261 261 263 269 272 275 275 271 273 286 279 293 300 299 304 307 307 318 312

GFSSW_2pvu_pres_051.txt.gz
Presure
150 122 121 107 161 121 169 213 387 389 501 501 471 471 449 365 357 352 335 299 282 309 309 290 239 226 232 220 164 175 127 186 152 186 184 190 182 177 193 160 130 163 159 143 107
111 136 138 167 127 164 111 213 382 368 485 487 453 465 462 480 358 351 344 319 286 272 317 292 252 237 226 211 218 218 189 181 191 204 182 186 141 172 181 186 158 174 168 133 81
124 132 103 84 169 189 309 213 374 369 382 517 476 456 449 457 434 338 341 320 304 310 347 301 282 247 228 202 216 185 199 208 145 153 215 185 194 173 178 171 186 127 168 169 155
137 119 170 163 190 200 277 387 371 368 387 512 499 480 453 449 477 342 326 330 300 303 272 341 252 265 246 243 236 219 186 197 190 242 159 223 196 134 179 173 187 179 158 157 169
122 199 108 165 168 190 219 185 366 359 368 476 481 463 457 459 455 369 320 326 319 301 306 266 292 273 250 237 257 218 204 194 220 183 197 182 212 209 197 151 173 157 181 133 170
119 125 128 126 140 168 134 205 360 355 349 405 484 464 450 473 471 473 331 318 326 292 287 292 295 280 260 244 238 247 200 192 201 194 173 178 203 227 209 190 175 173 160 175 126
129 148 183 135 139 189 240 160 359 351 343 357 475 465 450 458 484 481 352 313 314 333 284 301 299 290 273 252 249 261 208 205 194 198 197 190 204 237 202 221 208 128 178 169 157
109 146 104 127 152 178 162 199 336 349 339 348 481 456 456 450 456 475 361 322 308 329 298 277 264 291 284 257 243 241 252 205 206 196 197 186 157 180 192 195 209 189 148 189 162
136 116 167 155 155 170 130 244 359 349 338 348 487 462 460 434 447 485 372 335 307 299 335 279 275 289 289 270 253 244 241 233 214 203 199 212 203 189 214 177 199 216 185 188 178
138 121 101 124 143 190 179 246 358 351 334 343 485 460 470 446 417 444 369 337 312 299 330 325 281 283 281 286 267 253 237 236 222 202 196 199 196 214 200 211 210 196 183 143 186
124 97 152 168 155 158 127 260 201 348 332 341 459 462 469 417 415 445 354 325 309 303 334 323 308 273 281 281 272 265 253 239 236 221 200 205 207 229 228 212 200 211 190 204 181
122 138 159 159 135 167 122 283 337 343 333 319 433 476 462 420 420 443 352 320 314 306 296 313 311 280 307 271 268 267 264 257 252 236 226 212 207 213 217 234 217 207 214 192 179
174 128 131 143 156 134 160 187 177 306 337 323 422 428 445 444 427 369 350 321 306 296 339 301 317 297 266 273 275 265 267 263 256 258 245 235 222 234 239 240 236 210 208 217 192
108 160 136 176 135 159 151 127 260 320 337 330 399 436 464 444 468 362 338 326 305 287 289 311 307 292 299 270 275 268 265 266 263 262 261 269 278 312 272 262 262 220 213 237 212
159 143 141 126 172 169 163 118 317 175 193 331 373 464 462 457 438 343 327 323 300 282 305 299 301 292 282 277 283 278 302 273 296 274 270 269 269 256 245 272 257 225 252 245 217
166 153 140 173 145 150 141 112 354 207 324 318 345 421 481 491 378 334 324 323 295 299 283 286 289 285 287 304 293 257 311 272 322 275 269 269 273 253 290 270 254 257 246 246 236
169 145 158 160 149 170 170 180 115 172 337 319 246 424 479 477 359 326 320 313 296 287 280 289 293 292 291 292 291 274 270 287 326 288 271 333 353 271 290 290 301 248 249 242 241
140 141 164 123 170 131 237 166 135 240 326 169 304 404 461 473 345 319 311 302 286 303 283 278 288 297 297 291 295 284 269 293 324 313 284 298 387 258 289 284 284 293 245 243 251
162 149 147 158 146 198 126 173 222 140 140 316 309 329 414 443 332 316 309 311 295 289 306 291 293 294 308 303 289 292 287 261 276 314 298 280 350 385 312 294 288 289 288 246 243
158 133 102 188 166 139 169 163 135 108 158 233 302 307 435 410 329 307 310 293 296 296 283 277 275 285 288 287 282 279 275 292 278 276 301 284 277 335 366 301 293 289 287 289 252
152 138 139 124 161 161 243 149 120 225 116 255 283 272 327 427 332 309 280 302 299 295 281 290 276 281 281 283 279 282 283 286 285 261 280 282 267 281 332 339 301 286 287 286 290
158 159 144 139 154 198 153 191 228 130 122 317 305 296 309 436 385 310 290 295 301 288 287 288 284 276 272 271 290 291 288 288 286 273 276 271 275 291 266 300 326 331 262 298 286
118 154 140 122 136 152 161 171 128 285 267 135 137 283 289 302 400 314 298 292 288 287 295 277 276 271 273 267 262 265 266 275 280 282 288 276 244 265 273 285 281 316 332 303 280
132 174 150 144 152 135 164 166 154 170 348 131 157 270 288 282 294 338 308 303 297 281 277 274 279 264 278 272 271 265 268 265 267 267 277 235 274 248 270 283 291 271 292 316 330
123 147 154 148 146 128 164 163 170 147 376 334 129 108 291 282 276 290 294 314 303 289 286 278 275 266 262 270 263 274 278 276 273 266 264 277 277 257 276 278 295 291 273 295 301
146 156 143 113 138 137 219 149 174 164 186 137 140 193 273 287 280 277 270 282 273 297 315 295 290 288 287 280 281 273 273 299 315 321 321 308 325 314 324 337 335 336 299 299 302
157 136 112 126 149 160 164 146 192 110 387 148 118 181 305 292 285 277 274 267 261 287 280 278 275 290 305 304 306 302 292 289 286 284 293 289 282 296 302 310 308 307 309 118 291

GFSSW_2pvu_pres_054.txt.gz
Presure
121 129 128 122 125 125 105 133 156 227 361 369 454 502 484 245 401 376 362 357 328 326 329 336 294 238 217 206 242 188 250 245 165 155 168 201 177 192 190 107 134 163 89 75 79
114 120 119 117 113 93 129 138 171 216 264 368 397 487 472 454 478 375 339 355 327 327 320 284 313 287 230 210 212 216 234 168 202 159 187 164 205 152 184 191 170 133 138 151 84
136 123 117 133 124 116 102 170 233 366 209 368 380 515 472 453 453 381 353 351 326 324 320 350 323 300 271 232 213 216 197 217 187 183 166 182 152 159 189 179 187 183 131 94 90
126 137 118 130 138 119 123 135 240 161 324 362 370 499 495 464 442 467 354 327 328 321 316 330 357 298 271 259 226 215 199 224 194 167 208 167 177 195 199 195 188 187 168 167 135
167 86 152 120 154 127 182 167 253 136 371 359 366 498 479 481 454 464 354 336 328 319 312 338 302 282 288 263 238 225 208 191 196 155 215 195 164 178 205 197 187 166 186 187 171
121 127 124 102 140 125 147 189 234 243 364 357 360 484 482 466 470 452 380 337 320 327 312 292 286 306 300 264 254 255 216 192 186 164 179 199 197 160 215 205 200 186 168 169 183
129 133 109 112 108 141 194 144 186 127 362 354 357 483 468 464 467 458 403 334 320 326 315 297 281 298 287 277 257 242 225 206 188 228 186 177 192 188 154 216 197 183 199 168 174
171 131 108 127 141 144 191 144 139 262 336 351 353 482 466 463 474 465 450 337 320 319 359 304 285 277 301 288 261 247 231 216 199 190 188 185 70 178 204 151 192 192 160 177 158
123 183 129 136 140 153 194 185 200 308 359 349 346 477 466 451 458 467 490 343 322 312 323 295 291 283 255 293 269 250 239 228 211 231 224 180 173 160 218 190 153 184 187 188 170
135 114 142 117 147 131 163 142 127 371 356 348 347 473 479 420 411 468 462 349 322 303 304 332 287 290 271 320 270 253 246 231 223 206 219 223 206 186 193 172 188 177 208 198 189
151 169 115 161 125 157 143 178 203 203 352 347 346 471 470 416 415 450 409 338 324 312 293 323 285 276 295 271 277 266 249 242 228 221 240 194 205 192 189 198 148 180 183 221 210
93 172 148 171 202 169 143 177 119 202 162 341 313 475 456 417 420 401 377 343 338 311 290 305 312 274 280 281 276 261 257 246 239 232 227 231 212 227 187 190 214 182 229 187 157
107 152 147 134 142 184 164 172 113 121 122 339 319 476 423 416 450 430 371 349 327 308 286 305 321 280 261 273 273 273 260 253 244 238 237 252 231 211 200 204 193 196 200 207 176
154 144 128 141 137 145 173 132 134 120 348 340 350 469 434 407 415 415 367 334 322 303 288 282 297 307 264 261 260 270 270 261 252 246 242 235 256 224 197 194 206 188 195 184 188
159 134 176 133 121 130 193 121 176 364 301 135 358 471 471 397 343 386 335 331 320 300 292 287 305 306 296 261 253 267 264 270 261 253 249 247 249 246 220 196 193 196 199 199 198
148 169 128 142 155 141 162 194 132 186 152 334 352 395 465 402 372 366 355 333 318 302 291 291 282 318 295 279 257 262 274 269 274 263 257 255 248 231 232 221 207 194 201 200 199
157 137 126 140 131 180 147 186 204 204 215 113 112 480 473 422 372 371 347 321 305 293 291 314 291 298 300 298 280 263 278 271 273 271 264 264 265 255 245 234 229 219 202 198 201
162 151 141 140 188 127 127 167 173 189 118 117 189 475 456 427 357 346 330 308 299 289 280 290 308 316 306 296 287 272 260 261 271 262 259 261 266 257 259 260 255 242 220 215 208
146 149 141 143 129 137 149 144 182 188 189 130 270 452 420 369 354 336 319 306 297 295 295 311 299 305 315 295 289 278 265 252 291 290 289 270 327 326 262 264 265 252 259 254 242
149 143 157 132 138 162 156 149 165 164 351 201 186 291 409 347 337 329 317 307 296 294 285 283 293 283 283 284 297 285 287 276 272 264 263 283 302 314 315 311 271 301 277 262 257
150 142 154 124 146 124 146 116 168 185 277 341 257 238 435 344 325 317 298 306 302 292 291 285 278 284 272 299 271 270 274 294 271 260 262 276 305 296 297 277 283 285 263 304 295
150 148 164 159 132 139 138 147 147 158 317 325 329 120 126 344 326 316 305 311 304 304 307 285 271 288 272 266 276 278 274 272 280 276 259 247 264 283 298 284 298 283 352 298 263
139 161 153 130 121 119 142 150 156 162 160 193 300 121 151 390 324 313 300 316 273 281 302 287 283 267 230 265 270 275 272 267 271 270 272 275 255 272 275 287 278 280 323 333 351
140 133 145 163 157 155 137 145 165 157 170 294 332 320 307 115 336 298 298 287 282 277 284 273 284 266 264 262 263 266 268 274 278 276 275 276 267 257 264 274 285 287 273 303 323
136 159 143 118 147 133 149 152 194 157 178 183 136 276 271 241 124 314 303 295 307 285 275 290 278 270 265 275 274 274 260 262 263 268 277 266 269 263 276 273 290 277 279 283 271
134 159 150 93 158 170 124 175 158 160 246 382 361 289 321 305 294 317 315 306 293 284 284 287 270 275 258 266 266 263 276 276 279 271 263 274 261 274 280 284 289 293 269 277 280
140 140 189 163 112 123 132 144 153 133 174 209 199 193 325 140 301 260 282 278 312 318 312 303 304 293 294 282 268 274 269 287 278 279 294 313 312 305 277 302 307 313 300 299 278

GFSSW_2pvu_pres_057.txt.gz
Presure
131 157 154 127 123 129 107 127 140 168 148 243 143 333 398 461 477 411 402 205 366 345 342 355 329 321 233 225 190 173 172 209 184 201 162 193 184 200 173 158 179 175 137 150 151
91 173 123 139 165 127 127 147 81 170 161 241 201 366 399 500 446 419 408 359 362 346 334 349 335 323 271 227 206 222 177 164 173 183 224 204 198 186 178 188 135 176 156 138 72
158 166 181 136 111 117 149 193 157 131 209 216 293 364 397 492 482 418 420 378 357 348 333 343 354 320 307 263 224 205 220 178 183 199 179 216 196 185 201 174 192 187 154 72 86
174 129 170 115 148 114 128 132 131 202 146 142 306 361 394 526 460 440 426 367 327 343 336 337 343 315 306 269 242 222 207 203 181 214 187 236 174 213 189 186 196 77 164 123 159
150 195 158 120 99 131 119 181 135 168 207 143 375 358 395 502 476 439 425 371 343 337 343 327 324 303 310 274 267 240 214 198 179 172 196 180 232 199 183 188 181 197 176 176 173
135 166 116 155 144 118 149 135 147 186 136 304 368 299 453 489 495 445 429 388 342 319 341 330 312 315 313 294 268 265 224 209 191 184 169 195 177 178 183 215 180 179 177 166 167
162 170 177 134 118 116 162 137 149 140 203 378 364 350 492 462 471 477 422 427 339 321 339 326 313 315 337 297 281 299 264 217 199 189 181 203 188 144 172 143 213 154 168 187 181
143 202 172 173 155 155 145 135 179 207 358 233 126 333 460 472 476 472 428 423 339 326 323 320 315 305 297 314 284 285 269 229 206 200 191 202 101 153 161 156 159 189 150 178 145
143 214 174 169 126 146 197 134 155 187 122 124 130 346 479 453 477 469 450 418 330 321 317 326 299 305 290 320 305 287 259 260 241 208 197 197 192 195 181 219 151 176 189 187 180
143 223 144 224 117 121 151 142 147 127 159 150 224 432 448 418 415 491 444 412 328 320 305 300 293 301 297 323 297 286 277 268 271 224 204 195 193 191 140 236 188 158 159 185 161
156 162 171 164 164 137 124 151 188 119 142 140 349 485 147 425 424 476 443 388 327 317 299 308 348 296 292 316 324 277 269 262 249 255 219 203 199 191 180 184 135 179 214 137 144
150 169 156 148 175 143 248 152 155 110 173 356 233 478 421 406 441 455 423 356 329 314 308 289 346 316 278 324 315 279 282 268 254 243 231 217 207 185 191 145 178 246 171 188 200
222 135 126 155 153 141 126 152 166 181 283 268 117 184 387 421 405 398 381 348 325 318 302 299 329 323 285 287 272 294 276 264 259 247 239 227 223 211 189 191 187 177 208 221 176
128 196 150 132 133 151 160 139 161 182 190 159 116 112 425 419 379 391 379 351 325 313 297 295 294 326 297 269 285 252 273 277 261 252 241 239 243 221 200 188 148 181 222 202 241
218 186 166 178 126 122 128 128 134 172 112 359 125 115 432 414 380 372 369 342 326 303 290 285 313 300 272 271 262 293 306 280 263 255 249 239 238 224 213 198 190 191 236 225 187
137 160 153 160 127 122 166 131 137 172 307 352 506 299 423 406 383 383 354 337 324 296 288 281 286 310 275 288 263 271 257 300 265 256 256 246 240 233 225 222 205 197 188 189 221
147 165 147 160 126 122 131 124 140 186 235 350 450 401 134 388 394 378 352 359 314 297 289 285 300 305 297 261 275 268 270 299 276 258 252 249 241 240 237 228 223 223 216 227 191
152 104 152 174 155 146 127 134 155 151 168 227 396 411 117 130 393 387 357 324 311 292 286 284 282 284 313 290 260 258 273 267 283 267 254 250 252 247 241 238 231 223 237 204 222
127 165 160 147 146 117 155 151 146 158 180 353 346 436 355 148 367 389 334 322 300 289 286 298 280 277 295 292 275 256 260 272 258 268 260 255 256 250 251 252 248 242 229 242 238
126 194 147 139 181 128 126 137 168 137 167 198 342 116 391 131 313 343 328 312 306 290 290 278 282 271 288 296 283 277 263 264 268 267 268 259 259 261 258 260 250 247 245 238 250
161 135 167 161 114 124 148 159 126 127 160 179 341 298 369 356 348 322 307 297 290 284 282 287 293 243 297 279 290 278 222 274 264 246 245 256 262 251 266 266 262 262 260 260 251
136 129 166 233 120 125 132 156 156 167 168 170 339 213 389 124 122 323 316 320 285 288 287 293 299 264 271 288 273 274 277 277 274 278 274 265 260 279 281 285 272 315 202 268 274
134 143 154 141 136 140 122 126 138 151 168 163 222 331 203 357 341 324 327 308 301 297 292 287 281 290 222 281 276 284 274 284 284 278 274 265 267 246 268 271 289 318 306 279 279
201 139 156 127 128 117 124 151 156 169 182 143 176 337 325 244 344 306 289 294 310 293 286 284 278 275 269 256 258 265 269 268 269 267 273 269 274 276 264 263 277 278 306 296 291
149 123 155 136 153 128 131 145 117 141 178 181 272 347 329 319 356 335 306 288 284 288 276 282 282 259 254 262 260 263 259 263 260 260 264 265 265 269 271 281 276 256 278 291 302
146 141 165 162 106 142 135 122 150 142 143 146 165 195 112 321 309 346 322 316 305 292 263 276 273 271 264 253 249 260 260 260 260 271 273 273 268 270 268 282 273 276 275 263 282
133 130 235 126 168 126 112 123 138 126 140 104 164 196 356 280 277 307 317 314 246 300 290 284 270 285 262 267 271 274 266 262 264 262 264 272 265 269 283 274 272 281 287 294 286

GFSSW_2pvu_pres_060.txt.gz
Presure
129 149 147 152 165 120 108 149 125 138 149 115 146 115 185 156 393 551 428 418 342 355 373 355 339 326 322 307 238 202 185 248 204 194 196 155 199 166 177 197 149 82 137 166 87
118 130 116 151 178 154 146 129 129 142 144 151 80 313 137 288 401 484 422 419 441 354 366 355 349 323 319 303 286 241 184 253 218 194 198 145 180 209 170 109 139 186 109 130 125
127 110 135 163 160 171 226 144 126 111 148 142 151 160 141 367 404 470 418 407 429 362 357 353 357 332 313 311 302 258 219 187 203 205 203 170 160 186 202 166 180 185 74 170 154
122 116 126 135 147 122 228 144 145 139 144 129 162 155 248 369 438 498 419 414 416 369 352 348 369 320 312 317 317 278 192 188 172 173 160 204 161 178 204 219 181 187 190 185 140
127 131 133 156 174 227 131 255 146 136 144 142 167 134 124 127 518 506 418 403 418 365 347 347 345 331 301 318 325 282 239 200 179 169 169 172 187 184 166 207 192 183 195 191 169
135 139 128 151 204 167 202 157 143 126 154 158 142 223 346 282 481 507 412 403 408 361 337 343 338 326 297 307 302 291 231 218 192 181 205 168 185 180 178 193 212 183 180 195 178
135 137 104 133 174 203 150 143 179 154 142 157 163 127 324 450 472 387 457 399 401 358 340 338 335 331 335 307 298 325 279 224 212 202 181 169 168 217 176 185 205 166 191 190 177
135 170 139 145 220 183 175 223 149 147 166 145 202 176 363 489 480 474 448 407 398 352 342 333 333 321 323 339 307 300 288 270 213 206 182 180 166 176 161 175 189 152 190 173 184
130 179 139 147 205 187 190 144 192 180 114 171 141 307 312 399 381 482 480 414 410 346 331 322 319 312 308 341 316 296 322 276 266 211 196 200 178 169 131 99 182 198 204 193 184
147 144 174 123 211 209 150 190 214 144 115 162 164 231 132 407 432 442 474 419 408 329 334 310 318 313 307 314 373 299 300 273 269 261 214 205 198 176 173 120 72 180 192 163 216
145 144 154 163 173 172 126 171 162 152 139 146 151 131 116 129 424 461 473 412 390 326 318 310 314 321 309 327 338 284 314 278 271 269 252 219 206 189 180 164 200 64 181 152 152
147 136 161 189 169 184 152 141 149 143 131 187 225 319 125 208 438 486 428 394 335 315 313 312 291 312 333 310 303 267 275 272 270 265 254 236 208 203 186 180 158 180 187 183 227
144 145 145 141 188 213 142 153 141 146 142 146 248 396 429 443 259 428 412 357 325 312 308 312 293 315 315 298 290 302 305 275 278 289 287 252 230 205 197 187 185 165 195 183 190
142 129 159 157 237 175 160 134 225 137 139 146 169 425 399 378 246 411 373 340 311 312 300 300 308 303 329 290 284 284 283 279 296 285 287 292 245 216 202 189 196 188 182 195 185
145 215 144 159 238 128 162 148 157 134 168 149 194 427 170 127 282 393 353 327 313 300 300 294 316 329 299 279 285 307 283 279 276 278 282 275 265 240 217 201 197 190 191 194 194
144 131 158 149 157 147 141 137 158 142 164 131 270 480 116 237 316 390 352 327 309 298 299 296 300 302 337 302 290 276 270 302 308 280 283 285 261 244 263 226 214 202 195 196 192
143 140 159 132 141 177 146 141 132 125 132 133 191 446 374 132 383 358 363 327 313 309 297 300 299 286 293 343 305 276 313 322 308 299 281 272 278 258 241 251 232 226 210 201 197
192 127 142 162 139 184 143 131 152 161 174 187 181 397 118 145 273 376 350 332 319 313 291 287 290 300 293 337 289 298 285 283 257 285 264 289 263 263 247 238 244 243 227 214 202
134 157 143 152 126 149 139 134 132 121 136 128 254 369 357 194 133 355 381 348 313 290 295 290 285 289 331 309 300 274 270 282 297 243 283 257 282 266 260 248 248 241 238 225 221
133 150 205 135 190 169 128 132 156 121 131 175 202 370 385 367 398 359 367 347 300 296 288 284 283 284 300 298 324 282 278 271 259 272 296 294 270 273 273 261 251 243 239 234 235
132 164 134 160 188 141 128 139 154 143 182 142 152 392 363 389 378 384 337 306 304 295 289 285 282 309 306 292 302 266 278 270 258 262 263 248 294 269 265 265 264 253 248 242 236
147 129 140 158 227 132 126 116 176 149 166 129 143 203 368 366 339 337 328 320 303 296 233 286 288 264 276 304 297 293 259 256 271 262 266 275 274 274 278 259 254 255 257 253 239
131 132 137 129 153 134 152 137 117 141 137 154 145 219 311 360 165 298 322 286 270 295 289 244 283 270 271 260 269 283 282 274 262 259 263 254 265 268 266 270 268 268 264 258 255
139 149 152 174 149 138 152 126 117 121 140 129 139 170 346 212 342 331 292 319 313 302 283 277 284 275 279 272 292 284 279 272 274 270 269 266 258 255 252 256 271 288 279 265 260
153 132 154 115 159 161 133 141 110 138 127 141 127 166 144 309 326 313 322 295 280 289 264 281 297 287 299 277 283 286 290 282 275 266 273 271 268 270 276 278 271 264 275 286 284
137 136 148 130 181 135 115 119 122 126 136 132 181 138 126 340 132 351 311 318 225 322 286 260 288 276 259 269 262 268 229 263 264 283 219 266 274 260 263 267 269 276 283 279 272
145 158 133 139 204 163 168 123 119 120 126 153 224 154 164 303 157 327 319 331 305 298 305 274 300 277 264 286 264 248 261 253 256 238 268 264 260 262 262 263 293 280 269 276 286

GFSSW_2pvu_pres_063.txt.gz
Presure
111 117 124 116 134 143 119 88 148 157 223 180 135 132 149 141 152 76 158 457 441 411 500 366 389 353 346 332 307 315 237 206 211 192 212 137 84 158 157 183 180 192 168 142 138
154 120 125 123 129 147 124 143 190 183 161 169 161 155 156 188 148 146 131 451 336 410 429 361 370 361 346 322 308 300 260 224 234 205 202 211 183 131 227 183 187 188 185 176 179
150 126 160 125 130 150 123 134 150 124 234 164 162 149 167 266 131 145 187 393 392 409 417 366 359 357 341 325 316 296 277 221 225 214 190 203 195 174 177 169 161 193 162 188 157
114 122 208 129 144 114 167 132 151 173 208 171 126 139 167 175 149 154 460 415 413 407 396 363 350 357 347 318 316 301 287 263 206 202 200 209 246 191 169 175 189 71 173 191 178
142 134 158 131 144 130 131 132 121 146 186 162 123 160 117 162 148 389 515 424 404 401 386 383 350 352 341 309 313 311 278 293 182 231 193 188 234 201 179 156 203 190 188 181 189
121 190 157 141 143 120 129 244 170 150 185 136 173 147 120 157 148 297 522 418 400 404 384 377 343 352 334 312 311 300 277 295 294 242 186 196 232 219 185 178 165 195 194 185 196
147 143 131 146 133 159 167 151 149 135 171 166 170 160 219 151 122 487 133 415 398 392 396 367 340 352 340 316 295 312 274 280 274 193 192 178 236 226 184 184 173 157 200 169 170
137 137 118 146 153 142 148 134 142 139 175 146 112 142 151 146 247 125 478 411 401 397 391 360 333 353 334 309 303 286 280 281 265 186 193 180 203 235 189 180 179 164 177 196 166
105 149 151 143 136 165 114 145 149 172 151 176 124 150 147 339 113 333 494 404 387 403 370 350 328 356 333 317 304 294 300 278 270 273 254 202 175 239 206 190 178 184 157 183 193
124 145 132 140 154 122 143 153 171 161 170 149 165 143 149 115 110 433 458 405 385 386 359 348 329 331 322 315 312 299 294 292 277 282 212 278 187 203 230 162 82 101 182 161 185
127 143 131 142 131 128 220 161 149 217 206 134 157 146 422 432 441 349 422 444 384 384 358 343 323 338 322 372 303 292 290 287 280 267 252 270 197 189 204 196 162 198 183 171 158
128 146 176 142 133 154 141 129 148 194 179 166 167 145 141 440 320 377 480 411 378 399 345 337 320 310 328 328 300 285 283 285 282 277 273 266 215 203 177 173 171 161 195 187 171
138 143 145 138 123 159 161 173 153 146 127 152 132 141 449 425 217 454 424 399 379 346 326 327 317 308 309 308 347 293 281 295 278 280 282 266 270 214 196 182 176 170 161 196 192
137 144 142 133 133 157 218 149 129 130 163 151 137 186 433 383 445 419 369 352 342 340 322 308 326 314 307 304 337 353 293 277 287 287 286 289 261 258 205 199 180 179 169 198 210
136 150 144 133 137 199 138 132 160 162 164 126 140 432 441 134 391 220 346 330 314 315 334 302 308 293 327 302 302 287 333 304 298 264 278 284 287 264 253 203 198 187 189 168 167
140 139 184 134 167 203 140 154 138 141 133 131 134 413 408 414 114 281 342 327 310 319 316 317 313 291 290 311 303 295 274 304 287 278 296 303 296 275 262 260 198 197 195 191 182
135 128 142 141 137 138 165 163 136 150 140 155 159 172 417 410 263 342 317 322 317 299 301 310 302 290 299 311 311 302 320 307 275 270 292 301 299 281 268 263 255 228 207 197 193
138 124 140 142 136 217 147 159 136 144 146 170 133 293 215 386 362 346 319 308 302 301 302 311 307 319 293 319 316 293 288 304 275 293 278 275 297 301 275 268 257 246 236 212 201
142 125 139 132 128 125 133 143 146 149 122 129 143 175 406 214 222 335 321 319 302 310 297 318 297 298 301 330 294 309 281 276 298 292 286 289 289 285 298 289 282 249 245 232 219
147 125 153 236 126 155 209 135 136 141 157 132 128 166 196 402 358 345 330 308 307 306 297 296 293 297 286 289 320 277 286 272 264 282 267 278 277 271 274 272 295 279 296 267 237
142 165 159 163 131 183 207 143 136 135 139 135 133 160 169 383 381 334 327 330 314 316 299 295 288 286 288 276 297 330 316 297 277 264 261 262 280 304 299 300 300 277 280 267 258
184 171 151 144 151 139 214 140 127 134 110 201 128 153 342 115 345 400 361 344 305 301 312 295 283 275 278 306 299 309 304 291 278 293 290 279 271 263 273 274 274 270 300 270 268
210 180 130 136 141 139 141 119 137 147 126 144 145 185 147 177 198 301 339 325 316 205 288 287 272 278 272 323 292 295 307 290 287 284 279 263 266 269 262 249 291 289 263 273 286
211 235 131 235 128 151 186 135 131 128 125 127 106 162 170 147 335 116 292 323 252 254 295 287 288 285 296 278 276 282 293 292 283 275 279 271 260 258 254 265 253 268 286 296 282
191 215 131 164 137 186 127 156 161 129 123 123 115 131 118 127 157 328 322 322 305 304 288 281 286 272 278 278 288 272 280 287 283 274 264 266 272 271 267 260 266 268 264 284 283
187 126 236 137 136 229 151 170 134 128 123 134 120 218 151 172 272 342 176 187 311 302 303 288 289 285 276 288 283 297 261 262 291 273 273 274 272 269 266 263 260 247 260 274 276
196 130 231 154 139 176 200 181 152 128 161 125 120 188 154 168 202 131 309 134 282 318 305 296 305 292 292 289 287 269 280 271 271 286 242 248 255 259 260 269 278 276 274 277 275

GFSSW_2pvu_pres_066.txt.gz
Presure
120 111 129 124 126 162 119 120 128 143 131 142 118 187 134 142 151 152 169 166 142 165 162 178 248 370 348 370 337 308 308 304 274 193 243 205 184 193 177 177 167 198 173 175 166
122 113 118 147 122 142 119 143 160 115 112 99 149 111 166 177 159 151 182 177 137 150 153 465 478 362 354 378 332 309 317 291 310 215 243 215 79 194 180 165 183 161 189 177 166
123 125 119 146 148 178 188 126 129 141 122 136 203 127 188 186 127 163 136 129 177 164 170 164 399 349 355 362 328 315 329 284 310 265 98 228 197 181 194 177 162 162 193 219 156
132 122 123 106 149 106 135 165 117 132 127 113 196 143 181 160 146 141 138 134 162 171 404 399 409 367 347 365 315 326 318 281 320 298 209 228 204 188 195 187 158 170 161 182 163
132 110 129 146 126 152 129 127 135 118 141 109 129 185 156 169 159 120 125 165 173 407 387 417 384 356 345 362 333 321 332 297 197 308 227 217 224 191 187 189 174 148 179 195 195
124 131 135 139 149 138 157 147 122 137 131 134 143 165 155 157 162 161 158 242 118 260 393 403 376 376 348 349 290 328 306 281 300 288 252 161 225 107 192 224 177 169 182 171 175
124 110 116 133 127 128 177 126 130 146 114 167 169 150 173 163 139 156 171 135 122 400 374 391 377 344 348 341 305 331 300 292 282 312 299 226 227 221 192 196 189 166 166 185 184
126 132 118 113 150 128 145 155 99 116 172 141 203 170 137 168 131 165 455 110 127 181 365 387 376 350 347 322 297 320 300 286 277 291 312 252 223 185 192 192 234 179 168 161 190
122 123 124 133 139 135 152 121 96 173 147 154 160 153 141 134 146 290 140 338 201 400 355 372 376 342 356 338 294 281 330 280 276 281 281 273 230 204 205 185 197 192 175 170 183
124 157 138 128 146 143 144 112 204 139 137 142 152 169 161 172 323 447 364 130 171 386 381 360 362 334 338 321 312 294 289 306 269 277 281 306 210 191 222 188 193 210 184 173 165
133 119 125 135 140 146 122 152 123 187 172 173 162 146 133 152 433 426 124 484 400 382 368 369 357 331 328 322 302 286 304 264 301 259 265 281 261 218 216 208 186 195 225 179 161
191 126 135 135 144 139 138 132 159 143 136 156 156 125 134 252 430 469 113 446 396 374 360 370 346 328 322 319 314 297 274 266 267 273 286 295 261 218 207 211 180 193 195 202 100
187 196 132 149 141 128 134 147 197 146 155 138 149 132 274 315 455 468 123 186 379 375 348 348 330 312 317 327 308 290 281 270 263 256 256 274 287 261 191 216 194 183 190 227 181
191 151 151 157 153 125 136 123 150 172 155 171 157 142 147 458 430 181 124 371 378 345 335 347 317 302 329 318 294 284 274 277 271 255 257 261 256 276 289 233 196 194 166 221 227
138 213 228 105 149 125 158 159 149 141 172 166 152 187 154 421 396 391 114 365 345 338 333 330 305 306 292 335 296 289 273 273 273 276 260 262 268 275 273 175 267 203 178 226 229
192 137 188 139 145 121 143 157 146 129 149 151 154 142 181 365 362 354 347 363 337 332 330 328 309 303 302 313 309 295 291 279 273 265 274 264 264 264 281 296 253 217 185 202 230
189 126 123 132 134 130 141 124 139 132 167 176 145 137 160 374 354 342 339 331 350 328 316 330 308 306 295 303 308 293 315 286 289 267 264 280 277 267 274 269 275 288 202 187 192
238 155 171 131 125 127 174 136 114 154 158 155 133 139 146 212 352 320 317 306 336 323 307 314 289 283 318 306 302 283 292 294 288 275 288 286 290 303 282 277 279 272 276 200 188
237 186 123 198 129 165 138 232 137 167 157 140 120 135 142 346 351 196 317 313 303 319 314 296 296 296 306 324 328 311 349 278 272 268 280 281 280 280 284 272 284 280 278 263 202
249 169 137 137 127 211 129 215 164 181 140 145 129 132 137 194 343 208 329 321 304 320 320 326 297 296 296 290 322 314 292 338 274 272 275 276 285 266 290 268 296 295 297 285 265
205 216 179 127 149 132 143 167 123 182 192 146 148 325 137 166 344 294 317 318 316 308 305 312 282 297 297 297 272 320 313 302 293 268 266 303 299 291 275 297 301 311 306 245 234
182 172 133 128 195 129 133 134 172 155 146 147 142 133 124 117 247 326 325 324 323 298 297 292 284 290 287 289 288 327 343 291 286 298 320 296 292 283 282 283 289 289 281 288 299
240 230 208 127 175 134 130 216 151 130 138 164 132 123 135 138 118 139 288 178 311 310 316 299 284 283 277 282 291 286 324 318 309 302 279 296 273 281 297 294 267 276 277 274 277
184 139 212 203 132 169 134 223 194 122 148 133 148 132 126 122 212 326 266 112 321 136 220 295 290 291 280 283 306 302 303 325 322 284 319 303 279 268 268 277 279 275 288 296 295
229 200 199 229 132 131 135 208 135 203 141 152 140 136 135 132 116 219 321 325 197 261 142 293 289 285 271 307 304 285 286 297 296 301 289 291 289 294 292 289 287 277 276 272 270
190 224 174 195 208 132 134 146 137 178 167 156 131 121 142 116 121 173 176 157 243 320 120 309 290 294 294 285 286 272 278 284 291 300 295 289 286 282 272 268 261 266 269 268 270
224 212 145 149 132 145 146 149 207 164 168 156 154 135 130 108 131 120 173 140 210 127 146 279 313 304 301 307 291 283 282 278 271 283 287 289 286 279 274 270 271 275 275 274 263

GFSSW_2pvu_pres_069.txt.gz
Presure
168 127 112 118 109 116 119 123 126 138 131 155 113 126 130 143 135 168 159 197 141 180 182 150 138 160 152 79 98 355 335 320 358 325 336 333 270 177 181 191 226 168 186 76 138
132 129 116 122 113 118 113 150 142 154 143 159 156 124 109 126 174 250 203 139 138 165 178 159 161 160 171 152 324 369 344 316 334 338 304 205 223 173 210 206 187 172 175 183 172
144 138 138 122 121 120 116 124 140 153 206 152 123 122 95 129 123 158 183 170 155 181 127 112 174 159 156 352 377 410 340 321 330 331 298 327 265 250 178 222 199 172 176 168 161
120 139 130 128 129 120 125 125 127 146 212 122 137 95 151 106 157 175 171 174 135 153 124 120 167 165 513 356 357 136 319 322 302 305 290 306 247 248 187 193 194 193 161 207 148
123 122 139 122 126 122 141 124 150 118 154 125 135 120 138 162 187 158 164 148 163 180 123 147 324 304 309 383 353 367 323 306 338 299 289 297 242 241 193 206 195 223 172 139 167
128 143 136 130 129 122 129 125 138 143 149 114 149 135 148 150 184 191 142 170 152 165 162 220 292 122 382 379 364 375 321 328 318 303 288 297 279 240 216 192 195 197 189 181 174
131 130 127 124 125 119 123 121 142 123 147 136 143 143 189 150 163 170 135 125 137 147 410 110 117 129 372 336 332 336 305 291 306 286 303 297 298 203 227 203 196 196 173 183 136
131 129 122 125 130 118 114 127 131 126 155 131 128 151 136 184 165 145 150 161 198 422 391 167 126 327 337 331 343 310 295 283 290 290 283 299 293 246 227 202 197 70 191 172 189
126 133 135 120 127 117 112 138 131 140 138 121 136 173 191 158 158 172 154 167 461 413 235 126 304 353 343 322 325 297 292 293 295 276 305 280 302 249 226 203 199 196 202 198 188
149 134 131 115 116 134 118 132 141 133 114 141 150 158 176 144 124 151 151 460 484 405 119 388 360 353 355 313 301 289 292 335 283 283 322 265 305 277 228 187 214 198 169 182 175
177 134 133 131 119 130 124 132 215 131 139 120 150 182 152 176 150 161 459 470 489 113 381 383 345 356 340 347 298 291 287 284 272 252 275 284 284 275 233 226 219 207 178 184 183
207 250 218 242 160 131 129 136 140 133 120 143 185 138 141 161 158 380 466 482 201 327 364 376 348 357 320 316 310 303 309 293 280 259 261 272 279 295 252 211 223 218 202 165 183
171 174 187 205 137 127 130 168 183 126 138 157 153 143 155 155 156 171 477 478 111 150 351 363 355 332 333 297 303 296 271 284 271 268 279 271 269 286 281 205 209 207 205 201 176
260 281 235 232 187 209 131 203 130 142 161 158 150 168 160 142 151 399 419 395 353 262 343 357 349 327 342 311 292 284 280 287 285 265 255 293 254 243 311 230 195 198 194 164 174
182 177 200 184 170 133 137 137 129 121 170 148 187 142 121 142 170 388 375 374 345 361 379 328 335 315 290 295 302 297 276 281 275 264 260 260 271 279 263 290 233 196 190 210 167
233 238 235 189 126 217 135 131 131 135 192 145 143 145 147 139 297 161 379 312 347 346 353 325 329 319 311 281 275 275 281 282 278 270 258 254 298 258 257 272 289 253 203 206 211
245 182 201 250 126 167 142 130 113 144 140 200 164 126 164 145 223 147 337 354 344 353 357 323 324 297 284 319 284 273 264 257 259 277 271 278 270 280 254 272 283 287 236 218 215
174 256 209 187 196 175 124 127 146 151 145 151 154 171 165 146 203 361 340 148 355 198 324 303 303 319 298 311 286 277 281 272 253 252 250 256 266 279 285 272 256 280 278 202 210
245 258 180 235 241 181 133 135 114 160 139 146 156 151 137 131 138 218 351 294 333 315 304 301 303 318 295 292 303 293 265 258 271 269 256 251 266 271 263 269 289 285 290 295 270
179 251 247 205 128 148 130 149 172 144 143 161 174 156 140 124 130 137 258 329 176 304 305 281 297 312 301 296 311 282 293 269 269 261 262 260 258 258 260 261 264 267 268 271 284
262 250 239 192 136 134 168 160 157 190 136 162 143 150 148 123 119 160 325 131 304 182 297 288 286 291 305 328 299 319 282 286 283 275 270 268 264 266 269 267 267 268 272 267 273
249 241 207 231 201 129 130 127 132 134 144 164 157 134 109 134 117 132 322 145 320 306 120 301 303 292 297 295 315 301 300 369 296 269 277 269 265 275 275 272 271 264 273 275 272
235 193 162 180 184 165 208 134 139 131 249 134 144 132 150 132 172 144 117 314 150 230 271 273 294 296 300 300 296 320 332 307 288 296 296 297 288 287 288 292 293 285 259 267 286
206 233 217 188 141 196 136 146 145 139 159 150 169 139 157 165 139 130 316 136 315 110 304 137 249 280 296 295 297 297 318 349 316 289 320 301 306 294 295 287 277 282 295 294 232
238 185 211 132 194 182 139 132 164 142 158 167 150 160 124 171 118 144 118 284 203 309 116 140 293 156 286 290 294 303 297 303 341 333 310 317 311 330 320 302 280 295 297 294 291
175 230 157 219 205 142 140 132 164 201 133 154 168 142 148 159 141 104 121 167 263 174 161 143 220 118 314 317 312 303 308 309 317 286 335 336 298 313 306 288 314 276 279 267 269
233 195 213 198 196 155 127 133 148 134 129 142 173 183 180 165 155 112 119 135 189 123 131 249 118 233 120 320 325 316 300 302 295 293 303 312 314 311 294 303 312 315 310 303 289

GFSSW_2pvu_pres_072.txt.gz
Presure
132 174 125 142 126 135 114 101 103 114 119 125 91 137 133 120 172 149 99 109 124 145 147 194 228 181 179 140 149 141 128 124 127 140 84 151 142 141 174 276 240 210 152 179 178
134 131 183 125 144 125 118 122 122 108 119 130 133 142 126 152 131 135 140 122 145 137 195 210 178 160 132 138 165 143 148 112 136 136 147 159 356 357 325 304 249 230 236 211 153
127 168 136 143 206 161 135 116 121 116 119 126 140 129 143 161 127 102 133 157 149 170 195 227 142 127 146 143 154 138 128 144 143 155 316 330 348 345 317 328 247 210 231 209 198
202 172 135 143 131 168 127 118 126 117 131 121 141 151 151 144 123 136 149 112 159 210 217 183 170 145 152 154 158 150 161 175 164 328 331 199 338 335 314 303 242 226 224 205 173
127 180 158 139 176 128 140 150 129 116 138 140 123 130 131 141 162 121 129 156 213 168 180 187 153 156 135 156 117 124 384 365 330 350 342 321 327 341 324 298 256 212 220 215 161
144 173 185 189 137 144 187 126 131 117 131 118 119 152 133 151 136 134 135 203 177 144 139 135 143 165 175 169 414 159 322 355 320 313 307 304 313 328 345 308 242 229 206 215 163
229 233 158 188 141 145 149 124 127 119 137 129 135 129 155 125 127 145 165 183 221 155 135 139 141 137 113 372 419 119 342 337 324 305 291 307 290 325 330 281 245 230 211 224 167
241 194 189 131 194 134 127 130 123 119 138 113 121 131 131 129 125 154 229 139 155 161 161 162 221 390 368 347 383 323 135 325 311 287 295 319 296 305 329 273 231 221 201 218 156
182 220 199 256 130 140 124 126 120 131 119 122 134 152 135 139 145 224 167 140 125 158 168 432 387 380 351 273 236 321 360 319 294 291 288 302 280 313 328 275 241 212 217 194 177
175 302 274 126 222 144 127 125 120 123 122 127 119 135 123 141 154 155 173 151 160 165 178 421 373 117 290 327 378 336 360 312 286 276 298 299 289 289 292 284 230 218 217 207 184
303 340 269 340 160 203 122 119 122 120 120 126 147 148 142 152 147 168 151 152 161 182 403 401 117 116 338 337 356 343 305 290 285 262 300 272 296 284 269 267 236 216 190 226 199
321 335 250 150 128 126 153 176 174 172 125 137 123 132 129 207 207 153 149 153 182 407 396 314 117 308 329 340 318 318 290 289 280 281 275 269 299 287 258 258 238 223 203 219 202
271 154 230 209 228 208 253 119 274 123 134 145 134 131 229 164 138 151 151 301 174 391 380 374 351 334 346 329 311 301 278 280 273 267 275 281 276 315 281 254 230 225 212 206 200
235 344 318 296 223 265 241 265 164 221 140 167 133 157 141 165 139 153 152 162 406 373 371 350 345 338 325 308 294 297 287 295 278 269 265 278 262 288 316 245 239 225 212 216 209
353 269 283 308 259 244 216 263 185 212 211 235 147 168 165 211 149 160 156 391 371 360 363 348 344 336 303 304 295 267 297 304 291 284 283 276 265 277 293 242 235 229 208 215 204
286 342 246 140 242 257 227 173 129 163 182 137 133 207 135 156 144 156 144 360 364 355 361 349 339 340 312 290 297 278 281 264 280 269 271 270 248 256 273 277 235 233 228 200 212
241 319 177 244 232 261 226 130 198 149 148 143 171 193 133 127 140 149 149 369 309 362 343 321 320 292 307 278 286 280 273 268 265 258 268 267 261 256 257 281 247 229 231 212 205
208 251 204 246 257 251 208 131 249 156 166 121 164 168 177 138 129 149 150 219 363 337 336 306 315 290 277 291 289 283 272 260 272 262 262 270 249 254 276 282 279 235 230 228 225
257 190 253 244 189 221 144 202 155 178 117 154 146 192 138 224 141 149 134 149 335 277 323 307 305 294 281 273 298 283 277 246 276 286 258 262 256 279 270 281 277 272 236 232 227
261 250 166 255 183 246 232 248 125 133 172 343 143 137 202 145 135 120 227 244 271 262 321 268 298 305 293 282 277 281 268 276 270 262 273 259 261 261 263 275 262 278 281 237 226
236 240 167 196 206 240 212 178 139 205 187 189 144 192 158 158 117 156 132 136 192 166 309 141 252 297 298 301 289 288 292 298 271 267 270 274 275 276 263 284 274 264 269 284 234
251 253 247 237 233 239 239 216 118 152 128 141 146 164 137 126 149 159 121 128 155 138 300 137 310 335 303 291 283 269 264 274 291 261 273 280 282 275 277 277 294 267 266 268 276
236 243 239 232 224 233 135 204 164 161 156 152 145 200 145 275 182 116 126 142 118 258 142 303 294 129 171 309 279 292 288 280 278 271 274 261 262 273 265 266 262 267 289 293 289
242 230 174 227 233 160 142 134 181 200 180 142 165 181 178 195 155 234 129 143 132 140 219 247 233 216 306 313 340 330 325 308 296 287 283 276 270 275 269 264 268 273 268 267 265
246 233 206 228 229 180 137 162 233 221 152 141 156 185 165 132 152 160 153 164 130 321 140 300 204 303 307 291 311 294 320 365 324 311 297 283 281 274 275 272 270 270 271 267 267
233 226 233 222 230 195 239 146 142 146 137 150 150 152 213 154 157 112 141 110 132 121 115 319 155 131 301 209 349 335 335 307 295 295 374 317 308 308 299 294 283 286 287 284 287
235 234 200 200 175 172 219 144 189 139 158 135 163 143 213 152 186 147 167 110 121 157 254 111 131 244 229 247 200 153 315 330 276 327 310 306 318 294 308 292 323 328 300 294 298

GFSSW_2pvu_pres_075.txt.gz
Presure
130 133 127 131 132 138 140 144 137 124 114 119 123 126 127 135 129 148 154 110 168 118 140 184 169 149 153 169 187 152 171 117 183 133 181 159 131 147 162 147 137 136 125 148 144
160 156 148 128 137 136 142 144 142 121 106 102 103 125 128 129 119 145 114 148 146 121 134 186 165 145 169 119 254 276 153 175 140 145 150 159 132 165 143 126 130 83 78 145 136
202 169 193 141 133 136 141 138 165 209 130 127 123 111 113 131 135 164 132 122 156 125 146 110 157 166 169 163 183 160 163 136 131 131 160 142 130 152 140 139 141 136 146 155 145
172 206 146 219 143 189 155 144 149 150 223 228 127 117 127 132 136 130 140 160 132 279 111 111 157 165 262 268 208 179 136 131 178 156 152 115 80 133 140 140 142 146 143 180 194
218 229 218 178 231 184 172 219 162 145 149 120 131 123 114 126 136 142 191 133 166 132 138 159 189 280 217 166 161 151 139 141 159 131 148 103 127 133 142 145 158 158 228 210 202
273 273 265 188 202 180 134 191 218 146 183 165 130 116 128 138 130 202 145 142 136 148 145 185 256 224 153 149 136 145 153 162 175 159 169 119 158 163 166 136 272 335 200 223 239
282 274 287 185 257 211 173 217 193 151 157 133 126 126 125 139 142 139 127 154 136 159 172 260 205 163 136 134 142 144 178 299 185 191 353 322 221 174 169 246 166 307 240 228 212
275 244 280 280 290 303 290 185 244 240 151 126 127 122 132 127 146 127 153 132 159 158 257 162 180 163 175 173 144 180 150 203 243 361 341 328 330 329 324 244 328 330 231 214 212
250 237 278 283 282 236 304 331 251 252 128 129 126 129 124 141 141 253 127 159 149 235 158 156 143 176 173 180 241 375 410 422 366 355 316 315 333 313 302 305 299 315 233 214 199
282 293 298 292 305 309 243 246 151 129 128 126 121 138 134 129 155 114 152 146 184 158 149 170 170 181 180 327 355 397 417 373 360 322 325 305 320 301 307 300 288 278 217 220 231
297 305 273 307 297 315 254 129 199 126 124 128 128 143 146 144 201 132 136 266 136 157 157 133 168 184 209 350 119 335 346 357 317 328 291 286 307 286 296 303 302 256 223 211 193
285 295 236 234 314 252 169 291 315 131 272 179 127 135 137 154 137 156 266 149 156 168 166 194 192 345 165 346 339 321 366 330 299 294 286 303 290 286 311 295 285 237 215 202 186
285 315 217 258 270 152 260 261 124 205 258 228 215 159 129 155 150 143 151 153 156 167 182 200 347 327 332 344 377 348 336 296 298 290 283 277 277 295 291 303 266 259 231 210 206
394 358 347 356 319 215 297 134 165 198 248 131 156 220 136 125 140 191 157 170 137 169 190 346 337 322 325 361 308 339 314 291 281 291 264 275 262 270 297 300 247 240 218 219 212
458 281 395 334 275 284 242 244 238 265 260 143 154 141 155 154 155 150 154 152 158 169 363 337 332 326 343 307 337 301 295 288 277 282 290 281 267 269 294 297 246 240 219 217 210
455 536 412 400 352 214 273 257 170 200 226 158 194 177 140 160 131 151 142 157 154 330 346 342 334 330 323 316 306 297 285 281 269 270 280 266 251 282 302 300 306 244 229 223 214
454 395 499 267 280 158 138 122 239 274 171 144 161 175 146 188 135 150 158 244 155 368 141 337 323 314 299 306 296 296 280 267 272 266 256 276 265 267 285 317 297 234 232 224 217
475 644 373 264 254 244 159 265 216 180 221 187 159 140 142 169 130 142 155 156 256 306 327 329 320 296 292 294 287 282 298 281 274 270 279 281 282 282 273 295 292 243 236 226 226
304 272 266 274 265 189 206 127 246 203 219 149 131 127 156 173 136 126 169 150 138 244 126 292 229 289 280 292 281 281 279 274 266 261 280 252 286 264 277 280 279 258 233 238 218
283 262 272 266 186 261 159 115 211 129 318 201 143 138 163 176 135 156 266 140 184 152 310 189 306 273 288 281 276 281 285 285 255 276 269 279 278 270 260 284 276 254 240 237 221
260 261 261 251 153 244 244 187 192 162 141 183 158 181 173 178 118 130 137 152 236 148 202 144 250 279 278 283 281 277 271 292 278 271 268 271 271 273 263 270 274 255 248 245 229
268 134 253 258 251 237 207 183 128 364 112 129 140 181 160 344 139 132 123 146 129 144 135 141 145 303 288 133 289 294 269 263 273 268 265 277 278 260 273 264 266 279 244 250 224
257 250 249 249 239 174 167 193 181 127 156 149 143 145 167 170 256 126 125 127 130 136 139 179 147 203 185 305 136 274 309 283 279 276 262 270 271 261 287 276 272 275 286 252 253
249 221 247 232 222 233 209 169 238 138 164 150 135 152 112 255 132 163 132 163 127 153 137 145 282 164 240 307 161 221 292 323 310 284 281 282 278 273 278 291 275 271 289 290 289
249 243 234 245 244 198 199 228 142 192 148 165 137 175 228 185 180 159 328 134 128 273 116 140 138 143 165 142 227 168 307 302 292 142 326 300 281 292 286 286 272 282 289 308 297
243 240 161 220 131 241 227 270 147 139 169 141 177 137 173 161 175 148 189 150 135 167 105 229 199 294 297 139 332 338 373 298 304 298 287 270 280 276 291 283 284 285 273 273 272
239 217 236 209 224 238 165 146 151 142 175 142 210 160 195 203 194 176 156 176 214 143 105 112 131 156 118 162 172 210 262 273 190 322 199 336 314 243 273 270 285 285 277 276 271

GFSSW_2pvu_pres_078.txt.gz
Presure
171 212 167 141 174 125 128 139 133 137 141 161 119 123 117 108 112 135 138 140 122 125 125 160 116 139 134 124 115 233 151 159 167 238 161 184 149 80 89 112 158 129 144 133 134
190 214 229 222 161 181 130 138 134 132 137 136 152 135 119 116 135 135 124 127 131 146 110 158 149 124 102 165 107 138 112 160 211 181 92 266 224 140 147 201 140 136 132 133 133
166 227 211 229 164 174 193 143 147 143 128 145 151 152 103 106 110 125 125 135 141 121 159 151 227 118 148 147 131 160 152 90 209 255 292 159 252 141 131 189 147 130 137 111 130
241 274 272 255 243 276 141 136 158 142 196 142 148 146 128 124 125 120 128 134 124 144 149 194 130 130 180 147 156 147 153 165 195 196 175 265 147 126 131 174 134 167 143 129 144
271 240 223 266 242 258 273 188 141 138 160 142 150 152 126 131 135 121 127 135 140 147 145 156 150 145 148 140 150 160 217 278 285 226 221 179 160 154 146 148 74 131 133 132 140
265 266 257 270 190 244 285 257 216 268 222 192 210 166 149 186 119 128 127 140 142 149 160 255 148 117 119 158 169 271 269 284 259 175 163 164 144 164 157 134 140 146 141 123 141
255 263 266 233 279 274 261 276 258 253 273 195 164 144 137 142 133 127 128 148 144 158 144 103 137 158 167 205 276 267 174 191 160 154 152 114 140 134 131 138 131 122 121 137 130
275 254 263 258 262 271 274 244 242 215 255 251 272 135 156 136 136 132 132 135 196 139 145 147 145 165 298 238 153 258 153 137 150 143 144 152 140 138 142 137 137 127 140 120 134
289 274 265 267 237 268 276 280 286 295 275 263 290 345 136 134 132 134 134 140 137 151 123 157 161 201 213 139 170 164 151 154 137 138 148 138 132 170 272 182 159 175 146 144 158
293 290 293 271 274 274 236 244 265 277 318 307 193 192 137 129 134 142 125 143 136 150 130 154 159 146 136 162 182 189 183 189 191 368 375 142 222 326 331 313 208 181 174 167 166
298 281 299 297 284 291 294 288 298 320 290 142 352 196 138 135 143 127 141 146 156 125 143 207 145 142 154 158 182 201 195 285 505 439 371 362 335 333 329 331 334 370 344 300 224
369 315 287 305 303 284 268 281 296 289 210 141 330 141 136 141 138 138 155 152 134 144 256 145 149 166 177 201 195 241 385 395 246 377 221 346 327 321 324 325 347 355 313 274 224
405 378 351 334 334 303 304 288 284 233 140 356 236 125 145 163 141 167 151 193 149 161 191 162 173 174 192 191 348 374 373 363 318 328 320 313 314 301 301 320 343 303 295 274 214
422 430 402 381 366 306 311 305 333 189 344 137 133 135 123 266 199 155 146 133 196 227 173 171 177 192 358 347 346 326 341 342 313 293 305 294 297 296 290 332 308 295 285 255 226
396 396 394 396 390 371 356 359 318 279 271 283 144 227 289 130 155 139 154 183 155 137 163 242 275 325 328 389 351 323 310 305 290 286 295 298 283 287 301 326 287 290 263 234 231
408 404 407 424 408 199 260 322 180 241 228 147 136 165 151 217 140 133 188 136 157 157 169 284 266 325 358 326 329 296 296 284 288 283 290 286 280 289 293 275 302 278 225 214 219
423 432 431 457 513 296 355 291 252 153 200 149 187 149 273 184 152 204 167 146 165 163 333 325 313 349 317 314 310 284 288 284 272 282 291 278 273 280 272 286 289 274 225 216 215
414 425 434 466 384 307 289 140 280 290 131 205 165 229 174 129 151 159 149 141 156 158 144 308 324 305 331 333 303 284 291 284 293 283 284 275 266 276 265 272 307 238 244 213 210
454 454 452 294 307 295 284 287 239 143 131 203 144 158 119 115 167 156 125 143 136 151 288 198 318 297 305 302 295 275 280 272 279 274 280 265 260 259 271 299 276 238 236 219 215
325 317 300 288 294 204 266 242 214 166 234 221 250 229 138 147 186 141 141 142 152 144 163 152 218 233 301 289 290 283 282 268 280 276 297 272 268 272 275 308 275 250 215 224 221
242 261 291 274 261 248 180 186 276 195 258 172 163 140 142 178 175 151 128 136 132 156 208 150 161 122 272 297 287 277 285 278 277 262 251 265 260 273 264 282 298 251 231 229 229
279 247 211 258 149 265 308 310 298 220 193 134 136 146 168 194 194 190 131 138 135 149 159 163 119 154 145 194 308 299 278 289 275 268 268 267 273 278 269 275 289 240 291 232 234
258 258 251 261 280 183 212 169 214 150 126 134 177 138 166 195 174 168 151 123 118 165 295 163 117 160 139 138 195 286 269 290 307 281 274 280 266 272 278 275 266 278 269 261 232
252 279 239 233 196 335 212 381 163 162 152 134 143 171 167 203 141 185 238 121 123 114 128 120 191 114 228 112 204 288 212 158 277 284 285 284 285 296 297 281 284 282 282 223 241
219 306 280 206 254 263 193 179 329 138 143 168 135 238 307 123 169 261 279 159 137 115 280 122 112 285 144 142 189 260 140 291 181 284 275 218 283 295 268 302 289 257 287 300 265
242 168 201 194 219 275 179 204 155 152 188 141 161 177 161 196 162 214 175 135 128 132 247 123 113 119 144 124 150 305 139 329 331 300 291 287 290 290 292 273 269 279 288 279 265
264 208 214 260 193 225 232 188 144 262 164 143 157 142 198 164 183 178 161 157 183 143 251 244 247 147 240 202 215 148 151 206 233 279 266 259 256 147 236 306 301 309 307 318 319

GFSSW_2pvu_pres_081.txt.gz
Presure
251 254 169 155 153 167 169 173 131 147 128 131 151 158 126 114 128 121 117 131 133 136 119 120 140 125 118 154 173 158 149 176 177 100 131 105 123 108 118 135 123 107 97 126 132
222 216 229 267 202 225 178 237 148 140 172 134 137 137 143 151 132 120 122 125 116 139 138 148 116 158 139 158 142 134 209 158 198 144 137 170 157 122 159 135 150 114 76 131 169
236 226 218 233 255 290 282 244 222 273 246 127 160 137 137 137 140 125 117 117 132 126 133 145 168 118 146 114 126 125 135 146 146 157 104 111 127 144 78 111 136 131 134 169 130
206 249 253 266 234 288 293 282 198 219 258 264 133 176 130 136 135 152 157 118 123 126 125 137 153 151 158 180 122 101 123 151 248 108 153 148 165 75 94 270 147 186 244 167 122
235 260 209 252 205 211 295 283 280 241 251 250 235 146 143 144 130 141 151 110 121 120 138 137 136 136 143 166 138 123 140 123 124 133 150 151 140 175 272 160 190 110 155 161 150
223 183 201 195 260 267 192 288 253 269 276 260 226 186 181 138 192 138 139 119 122 128 141 139 147 140 142 177 133 133 126 146 139 150 132 160 138 199 185 158 248 140 138 148 176
253 266 251 256 264 269 281 294 279 270 270 282 280 154 217 247 312 265 138 142 137 260 132 139 152 155 136 145 160 136 140 140 139 133 137 159 261 273 270 154 198 200 108 125 173
201 266 260 272 268 269 280 297 279 276 273 265 266 284 188 315 296 280 141 120 276 171 137 125 232 136 138 154 114 134 141 140 137 172 268 279 234 279 171 310 184 193 177 133 139
266 278 279 281 285 287 289 301 281 274 268 270 275 285 287 303 236 271 145 199 137 229 148 155 141 142 150 142 141 216 155 216 267 265 243 278 272 171 264 103 172 161 161 141 154
308 307 309 301 299 293 295 298 288 277 275 274 279 277 283 312 147 132 144 222 145 146 125 137 136 148 120 138 153 159 240 274 158 151 162 153 147 143 142 149 146 154 157 134 129
353 349 360 328 321 315 299 304 290 285 276 281 283 292 285 145 130 282 355 304 157 131 131 145 144 274 126 144 158 171 143 142 141 141 149 150 148 142 143 144 149 145 139 150 141
380 375 367 364 355 344 329 313 296 289 275 286 280 266 278 274 320 140 141 162 134 125 131 151 140 137 141 193 179 146 141 150 150 150 237 198 193 156 191 188 144 158 157 158 134
400 397 378 371 369 352 345 321 301 292 295 292 233 275 161 229 126 280 147 128 125 150 155 132 135 337 163 145 143 158 170 164 191 191 298 380 363 347 351 340 328 326 284 279 173
427 435 425 397 381 368 357 332 314 299 298 306 301 140 129 343 161 125 137 162 139 153 163 152 366 173 151 153 157 199 219 331 384 377 378 377 346 341 330 332 332 330 345 380 278
415 412 402 412 428 427 380 348 328 291 275 278 235 302 142 144 129 128 137 160 157 151 157 170 162 158 170 205 358 377 326 339 327 325 341 347 317 341 314 318 335 319 334 313 264
392 417 401 387 397 403 401 364 319 328 265 239 268 237 154 122 138 194 113 135 144 212 156 143 167 177 196 315 350 335 313 304 293 306 297 317 308 303 311 322 316 374 306 283 254
377 399 399 382 386 391 350 310 330 352 300 223 119 136 181 142 141 329 159 147 237 141 155 163 165 369 334 142 306 298 292 279 290 291 290 305 292 293 293 296 283 290 266 275 251
379 404 411 389 389 385 324 253 350 177 295 110 133 157 140 166 143 149 150 203 161 155 137 147 343 318 311 311 300 274 299 282 279 300 298 299 291 288 289 290 265 273 252 260 248
390 426 415 391 198 388 135 327 241 287 133 158 140 182 201 288 148 136 184 141 142 157 158 146 343 299 307 289 279 282 284 272 293 277 271 282 278 293 273 276 254 282 257 256 246
458 458 370 314 273 200 280 218 259 248 261 138 138 236 288 187 136 135 173 131 139 151 129 247 234 139 201 289 296 295 288 272 272 292 271 267 275 272 265 258 259 278 256 241 247
321 276 312 300 181 291 273 243 250 200 150 126 163 163 200 144 142 201 161 131 158 130 125 134 139 137 145 234 293 264 282 275 286 275 265 266 269 264 257 254 271 277 258 249 243
273 265 271 118 230 193 265 270 261 312 317 151 172 233 140 147 170 185 181 133 140 136 109 200 139 268 147 127 184 278 279 289 164 260 269 271 264 261 269 251 272 263 246 253 227
160 220 288 290 275 222 286 290 271 268 378 152 132 139 127 152 168 189 160 148 123 135 126 156 165 254 162 254 236 150 166 202 284 287 262 263 269 270 278 263 278 266 245 248 243
240 272 235 323 199 325 274 213 176 182 125 129 167 142 231 195 292 264 145 140 122 120 117 136 114 127 111 181 133 132 146 176 142 284 263 287 277 241 267 270 202 291 250 222 245
186 185 185 186 208 212 302 251 130 121 132 164 135 183 167 274 150 274 221 238 230 126 120 115 116 120 109 114 142 284 102 273 289 179 280 263 267 271 263 250 300 281 297 244 234
186 293 320 386 402 301 318 199 300 132 141 140 150 131 170 267 188 192 152 258 171 171 160 156 270 113 136 123 112 104 321 318 147 149 302 294 294 299 295 298 290 276 265 279 256
141 219 193 218 220 245 166 131 139 161 154 143 155 170 166 165 158 234 221 206 214 172 167 186 159 242 136 167 172 145 103 253 168 236 254 254 197 263 277 289 312 299 335 354 308

GFSSW_2pvu_pres_084.txt.gz
Presure
242 236 252 232 233 204 208 153 202 161 156 174 126 138 169 147 187 122 127 149 143 118 116 126 127 135 130 142 118 122 132 149 193 153 164 168 175 128 113 142 195 148 125 102 188
208 224 242 251 233 238 234 242 247 202 247 211 183 180 137 146 172 147 121 118 130 136 130 121 122 121 133 131 129 160 143 137 169 146 163 112 87 130 147 116 125 68 151 111 155
206 188 230 226 255 271 241 233 230 232 243 154 154 198 303 138 138 174 152 144 122 126 122 121 129 136 124 100 128 111 135 141 152 145 132 155 142 148 124 130 137 149 152 162 124
216 238 215 198 252 216 251 269 268 272 235 239 240 278 130 189 139 143 145 144 139 120 130 120 124 127 135 127 135 88 213 140 139 142 152 140 183 144 103 93 247 127 127 211 147
252 190 187 229 240 241 226 223 205 251 263 265 262 250 246 230 300 136 135 142 166 140 123 159 122 126 141 143 146 184 150 213 168 98 111 138 103 174 218 146 86 81 156 151 156
255 246 258 245 241 259 177 259 219 230 223 230 236 283 281 310 220 170 135 141 136 157 126 120 120 137 135 132 125 153 154 133 141 136 135 98 125 146 117 121 132 155 131 140 280
257 269 256 259 252 214 250 226 243 250 253 231 217 167 270 236 289 287 208 136 140 265 148 147 127 118 112 138 137 156 218 182 111 132 127 275 143 129 132 163 158 150 147 318 233
267 264 267 268 258 256 256 242 246 259 266 252 222 271 222 297 285 289 137 162 146 137 155 148 126 123 134 136 149 139 134 153 110 167 135 133 134 133 153 139 135 152 157 206 152
291 233 282 281 269 271 269 263 247 262 269 258 216 274 290 294 287 285 294 270 177 289 149 161 198 149 126 215 139 153 134 124 161 126 138 142 142 144 157 133 140 141 149 210 231
364 358 352 339 326 306 287 275 270 274 272 277 295 299 292 291 288 288 291 301 248 283 137 192 261 145 340 125 130 136 135 149 146 152 144 129 134 142 150 219 157 266 260 286 293
380 378 370 357 341 328 322 307 300 299 290 295 291 293 295 289 288 195 288 310 308 324 152 359 142 306 138 136 137 131 149 126 141 135 138 149 151 153 299 272 249 242 283 211 276
395 394 377 372 369 358 341 323 313 302 299 297 296 302 289 284 221 296 291 232 131 158 136 143 136 125 130 135 143 253 153 152 170 152 151 192 168 237 138 145 320 363 162 283 149
402 412 414 390 371 365 354 359 349 326 315 295 295 294 289 291 294 304 278 125 150 129 306 159 130 136 140 149 153 154 158 140 142 153 230 149 147 150 147 143 142 146 145 141 142
404 410 420 420 396 376 356 350 348 364 339 307 307 306 159 295 303 166 267 149 221 165 136 134 134 147 156 138 137 141 186 370 376 206 150 150 139 148 146 160 147 153 143 146 148
373 391 401 409 419 374 364 360 352 349 351 318 312 287 119 293 228 131 133 140 131 132 136 148 154 138 152 150 358 144 150 149 141 148 143 159 161 178 318 191 193 180 172 157 153
360 374 413 396 399 385 358 349 352 284 334 317 126 201 205 122 238 172 185 180 231 146 139 133 152 149 165 146 155 152 157 210 209 324 316 331 343 336 345 347 340 330 339 314 282
354 380 405 388 404 395 357 350 350 302 115 220 288 166 208 178 134 132 183 142 146 222 157 189 196 165 141 162 233 301 299 296 238 296 298 307 326 322 320 321 321 324 331 291 265
358 389 397 400 381 357 166 370 349 253 309 298 125 226 158 183 129 186 145 155 143 152 196 145 153 181 300 304 300 302 298 289 293 302 293 305 315 314 312 307 303 314 305 256 248
152 315 316 396 381 373 351 346 313 287 190 286 246 196 120 135 178 139 342 190 155 172 145 152 149 158 289 300 287 147 282 297 293 296 296 285 295 300 287 285 295 316 254 249 244
475 422 291 364 120 301 273 316 233 159 238 275 242 182 278 126 328 146 149 137 180 142 149 161 144 141 292 150 298 220 294 300 235 291 281 283 283 272 268 273 278 273 250 237 238
322 325 191 231 284 117 219 300 201 251 148 248 185 361 223 149 165 140 131 181 192 136 137 152 140 145 131 260 249 274 296 178 218 173 275 276 279 262 272 271 261 266 255 250 257
242 272 278 300 268 232 237 202 277 278 163 219 370 198 183 157 152 145 138 280 135 127 159 131 239 144 126 139 226 254 277 279 273 266 270 282 270 261 264 260 261 256 273 243 236
266 267 250 283 204 286 295 314 334 236 354 136 143 139 188 138 145 280 182 156 321 137 132 133 138 142 134 117 139 150 127 258 245 266 132 286 178 275 257 266 250 253 276 248 218
325 317 221 329 345 284 288 382 345 239 142 165 147 141 135 175 201 181 314 311 164 159 123 118 132 288 140 120 138 105 137 146 291 260 139 121 268 237 214 266 270 258 262 267 239
198 344 208 206 198 196 254 136 149 170 184 120 160 134 177 167 202 294 276 229 149 140 125 135 118 114 116 111 278 105 236 247 105 119 152 259 268 261 276 268 243 214 265 230 267
195 205 335 184 200 273 181 115 120 136 327 132 154 159 270 189 186 179 188 263 174 171 164 272 137 137 145 259 140 118 129 250 307 142 315 230 307 294 284 278 281 280 241 292 246
170 377 285 204 265 187 162 137 134 167 141 145 222 193 161 158 188 160 180 261 171 182 167 182 215 235 183 177 257 179 162 253 177 253 131 240 169 255 163 270 266 282 306 314 299

GFSSW_2pvu_pres_087.txt.gz
Presure
190 191 236 235 218 248 241 266 221 209 247 253 165 189 168 166 161 141 166 142 132 119 118 134 118 138 128 146 122 124 123 136 162 147 171 149 139 184 135 165 123 112 117 114 124
200 237 206 197 245 236 229 253 252 237 248 264 192 262 225 165 170 131 137 146 179 127 146 123 124 177 132 132 130 135 123 124 127 200 181 147 177 177 181 136 121 108 97 111 147
179 179 218 227 200 213 239 219 251 257 277 233 248 258 180 243 160 249 116 145 146 130 127 187 108 111 95 120 120 116 149 128 148 147 170 155 151 111 173 158 143 142 147 135 90
226 209 174 233 240 198 217 249 219 207 214 272 270 276 254 240 262 265 172 151 261 145 127 129 146 132 128 123 125 124 127 120 146 166 114 126 162 76 127 133 156 90 132 89 117
244 214 240 181 242 243 248 213 214 211 236 203 241 245 233 241 278 200 241 251 165 131 188 122 156 125 136 138 126 130 122 125 127 123 118 145 144 155 157 170 218 145 138 150 147
251 250 253 252 246 228 240 253 252 212 232 261 252 240 237 236 276 204 276 288 256 258 184 151 126 135 126 125 123 121 114 132 130 139 123 179 149 144 191 103 108 125 186 144 125
266 259 257 257 259 255 261 256 259 266 264 206 216 238 219 242 228 240 269 238 174 176 176 124 156 132 133 130 126 126 125 132 136 135 210 131 99 138 124 128 104 147 143 167 154
343 310 289 281 270 269 264 265 263 258 266 267 263 221 238 271 217 226 235 171 225 180 307 149 156 142 127 137 130 131 134 137 142 130 148 158 152 157 107 129 78 209 188 182 220
372 357 343 337 313 295 287 280 274 268 267 245 264 259 255 207 268 253 253 273 185 276 255 144 149 159 151 139 141 119 124 139 136 138 144 173 165 157 139 137 135 136 133 148 141
401 400 375 357 349 331 314 293 288 276 274 278 276 208 270 269 271 272 279 260 270 164 310 148 189 147 153 148 166 129 138 130 142 154 149 137 229 139 141 177 153 131 173 194 146
391 392 392 394 391 364 350 326 319 297 285 282 274 279 274 275 275 280 279 277 320 305 148 267 143 144 140 159 352 150 136 163 178 338 141 131 136 148 141 138 151 147 142 130 137
401 407 404 403 387 383 371 354 345 324 307 304 291 277 277 274 279 285 283 302 308 298 188 225 170 204 203 157 146 281 162 140 152 138 142 142 143 313 154 232 140 138 140 137 142
375 395 404 405 402 377 365 359 344 333 314 309 301 296 295 292 289 296 309 315 295 302 219 206 156 228 138 127 279 241 213 141 141 148 145 147 145 149 151 141 139 142 150 148 147
379 378 405 419 415 380 368 357 349 337 316 314 303 299 299 299 304 311 308 303 207 170 184 295 134 267 148 328 322 135 139 141 151 156 155 159 161 142 143 147 146 144 231 252 178
360 385 393 428 401 367 366 358 352 340 329 331 316 302 264 300 302 287 304 256 127 139 139 137 165 222 141 143 136 141 148 154 156 141 140 133 140 151 152 167 154 137 141 151 151
358 372 403 409 390 341 342 340 348 362 358 346 338 238 252 294 290 300 290 242 130 268 271 234 259 138 137 139 177 258 152 249 141 140 152 280 133 141 169 167 162 149 150 148 142
372 391 405 423 399 342 347 340 343 328 223 351 338 321 313 246 131 174 204 215 266 142 144 138 140 130 142 146 207 166 144 152 170 168 161 161 160 162 158 156 156 155 156 154 151
411 411 411 355 370 357 352 120 203 235 312 327 319 122 165 183 292 181 146 143 140 131 187 153 150 143 162 147 153 165 148 157 163 285 314 320 320 324 313 318 319 306 297 296 310
400 414 368 376 354 350 329 342 334 229 148 140 136 239 134 258 139 144 135 302 145 149 149 184 155 167 158 162 146 303 273 303 301 300 308 300 306 303 302 304 291 289 277 282 284
160 384 391 364 342 191 321 310 314 259 230 232 231 137 131 142 171 139 140 142 141 157 163 150 152 154 160 150 296 206 287 188 297 284 283 280 283 281 292 296 272 269 267 254 247
319 207 334 322 315 317 319 314 215 180 178 262 178 209 239 196 156 147 148 160 152 154 170 152 153 166 124 128 125 120 122 288 250 160 276 274 275 273 285 280 262 256 256 254 246
182 190 273 269 268 277 268 216 142 290 212 199 224 192 175 136 182 144 146 132 300 165 146 140 146 125 139 142 131 113 155 277 291 113 275 271 265 114 276 278 250 253 249 246 243
337 281 285 294 207 219 200 200 205 129 144 180 178 166 152 174 154 147 142 294 305 184 126 145 153 125 130 149 138 159 137 120 116 279 109 122 269 240 272 280 261 254 248 245 229
202 273 354 361 161 188 148 271 134 181 145 164 201 149 140 136 149 199 165 301 155 167 127 130 134 138 127 211 147 140 134 160 105 199 130 116 141 188 241 234 180 250 243 246 236
191 190 179 301 318 170 184 176 150 220 158 152 133 138 143 182 177 182 155 176 165 177 315 153 138 118 121 205 283 127 121 120 128 268 137 199 198 273 281 274 254 249 275 241 257
200 180 169 180 132 187 175 182 205 147 158 147 140 340 177 176 179 177 331 176 255 169 172 206 164 146 142 196 301 144 133 141 315 121 263 135 304 120 295 279 276 275 260 264 252
130 224 254 152 147 134 135 138 155 147 157 145 172 204 174 173 151 153 168 264 234 193 170 192 167 242 168 222 199 158 154 165 146 149 168 156 115 167 117 269 126 283 285 308 264

GFSSW_2pvu_pres_090.txt.gz
Presure
208 191 210 213 221 174 227 227 236 222 261 246 240 205 156 161 156 158 159 168 165 133 148 125 161 129 151 144 131 133 138 164 162 112 199 173 150 158 184 152 153 144 133 138 104
233 176 183 197 209 240 193 224 235 213 233 259 247 248 253 252 183 157 166 156 172 132 160 151 161 133 193 130 132 131 124 146 141 137 150 133 148 146 143 134 185 121 101 124 130
238 200 176 228 223 195 231 248 166 222 217 247 232 239 254 244 264 262 258 166 135 161 142 163 144 183 133 150 132 197 194 136 137 123 146 131 136 136 173 177 154 152 135 139 125
251 243 168 213 235 241 147 232 197 238 213 216 218 243 215 239 264 249 250 250 164 136 142 172 176 146 125 143 120 130 137 132 138 129 144 121 147 133 82 135 155 199 136 133 158
268 259 257 249 240 242 232 229 232 210 219 254 204 215 253 210 226 233 279 250 181 278 179 141 157 151 136 176 138 101 139 130 131 113 136 134 135 140 137 169 146 185 166 151 149
334 290 276 263 259 255 254 240 236 227 249 237 242 234 220 254 241 233 236 236 243 262 263 140 179 171 151 176 133 118 127 130 134 129 121 131 131 118 148 190 153 151 145 129 150
367 345 333 283 279 274 265 257 255 249 203 251 217 230 246 226 214 214 243 229 265 222 150 128 134 135 176 135 152 141 138 130 133 131 135 123 131 145 159 134 159 72 138 202 116
263 369 355 352 294 295 287 267 266 219 251 252 249 254 254 253 258 261 220 225 241 249 227 237 142 151 275 133 136 133 139 139 136 136 131 132 138 133 140 134 148 135 108 124 150
412 410 381 335 369 346 320 292 267 260 259 261 262 260 256 220 257 255 270 244 261 258 268 230 167 197 195 175 214 139 134 126 126 131 133 115 107 140 120 112 118 217 150 146 165
408 414 421 418 432 396 347 323 308 290 275 270 264 265 263 262 266 269 270 276 281 276 270 271 241 228 244 259 186 137 133 134 138 129 124 118 139 129 134 139 130 151 141 209 149
399 391 398 402 404 391 379 342 319 309 297 286 277 273 272 272 270 276 277 269 283 277 269 210 270 292 307 157 133 166 134 133 133 117 117 126 133 137 131 136 132 123 136 177 143
382 382 400 398 407 386 384 354 331 314 294 296 282 282 282 279 282 280 277 225 284 281 274 257 291 142 148 288 156 155 155 141 139 129 131 130 144 128 133 141 134 140 142 159 129
360 365 384 404 399 391 357 345 328 323 306 296 290 285 286 288 285 280 281 282 285 288 293 295 302 159 320 155 148 144 156 155 137 156 156 141 282 133 224 147 142 253 141 165 151
359 362 389 419 403 379 351 346 340 322 327 314 296 294 293 293 292 294 289 286 284 287 299 322 338 332 131 151 192 140 132 143 233 156 147 179 144 155 144 148 137 140 137 147 142
370 375 402 426 386 371 364 342 341 345 339 341 309 309 303 298 298 298 299 294 299 319 147 319 132 288 336 154 143 149 143 137 146 171 144 146 148 152 154 157 152 141 142 142 137
380 399 432 392 377 361 360 342 344 350 350 331 319 309 312 312 311 303 299 313 315 307 253 247 235 332 136 270 211 209 146 219 171 154 141 143 145 148 148 139 142 147 151 149 146
407 416 381 371 362 365 355 339 331 318 317 328 335 313 312 306 296 300 306 304 135 185 272 143 329 226 192 149 144 149 150 156 153 152 147 149 147 150 153 153 141 142 236 145 143
378 364 344 355 354 367 345 330 338 326 330 324 329 336 316 317 310 318 289 139 274 274 318 296 220 142 153 312 171 143 144 153 156 308 172 148 150 156 182 185 184 180 190 164 154
381 292 129 181 138 323 340 334 339 356 351 163 354 236 128 156 293 296 269 262 133 123 154 158 282 139 139 142 144 157 161 161 167 172 131 157 176 184 207 185 185 185 183 285 188
336 349 347 128 312 329 140 218 149 322 151 135 137 143 233 284 136 113 146 151 215 135 141 140 154 148 159 157 170 158 144 149 234 180 288 297 296 287 285 289 289 286 279 267 256
255 220 242 243 325 190 309 304 301 179 248 287 194 220 141 137 307 142 140 147 175 150 152 174 156 155 150 156 137 136 184 211 243 168 197 229 118 110 279 275 167 275 265 259 254
317 236 241 300 138 213 184 207 188 128 278 137 142 248 141 147 145 148 295 184 166 177 158 153 161 146 148 276 146 127 126 123 230 109 113 275 155 265 223 276 269 289 264 253 259
323 324 297 336 221 246 143 138 149 141 225 324 286 286 149 163 150 151 134 137 142 192 262 146 143 123 128 136 210 288 128 123 148 132 142 263 272 229 158 260 267 271 274 255 241
181 174 185 281 247 130 128 230 309 153 225 154 156 149 143 149 222 140 177 242 294 163 154 125 142 128 125 138 116 129 142 109 175 108 132 197 270 185 179 146 249 237 235 249 275
179 171 261 211 150 149 150 182 174 173 143 134 140 141 160 165 174 175 216 206 200 257 158 126 193 133 132 128 128 156 179 154 189 123 148 158 137 115 238 226 275 119 211 246 230
169 169 174 172 139 137 131 136 130 336 163 202 332 324 207 323 188 158 177 160 161 177 309 301 238 183 176 214 144 141 130 167 131 117 287 127 136 147 249 182 121 116 168 185 260
214 146 158 185 131 126 155 176 186 160 173 192 187 256 251 237 152 152 168 172 212 183 179 166 158 170 167 213 160 166 248 201 175 142 245 205 157 207 125 130 130 134 250 261 261

GFSSW_2pvu_pres_093.txt.gz
Presure
212 207 204 228 215 210 206 238 203 203 216 220 236 241 259 163 190 184 162 159 167 153 172 112 130 133 107 169 118 121 129 128 137 164 144 167 138 147 157 139 167 153 158 144 132
267 258 253 242 226 220 206 203 185 236 192 168 213 222 249 242 257 216 191 166 156 166 155 123 129 137 133 122 116 136 104 113 107 147 144 146 183 158 156 163 158 166 136 157 149
241 305 272 265 259 198 242 215 226 194 206 211 227 205 215 238 226 250 159 251 160 148 162 164 124 136 117 139 134 127 165 145 142 138 134 159 160 181 162 142 168 166 135 155 152
185 193 250 302 220 223 240 247 236 220 209 220 202 203 211 215 228 248 260 249 260 261 164 136 134 139 141 126 114 136 152 135 141 196 132 155 148 171 157 174 142 151 138 157 154
238 261 212 197 263 225 262 242 254 242 238 216 230 218 206 226 198 232 220 214 259 254 258 192 170 148 168 157 144 152 133 142 153 144 166 151 189 135 112 123 150 137 142 177 140
257 258 268 270 262 259 267 286 243 253 241 225 193 220 227 218 242 206 238 229 234 242 233 236 228 147 177 144 176 268 134 166 140 147 138 166 138 179 94 173 147 180 146 161 132
450 459 419 400 303 287 282 293 300 251 256 242 234 236 213 214 197 226 197 212 214 260 248 170 250 227 141 146 151 151 154 180 142 132 148 130 138 138 65 120 131 136 134 136 78
422 419 424 407 374 357 341 325 316 271 267 255 243 240 234 231 224 206 216 249 226 227 226 224 253 246 156 229 150 284 256 132 124 141 142 142 148 195 149 168 141 137 150 149 135
385 399 400 403 386 360 347 320 308 260 263 263 251 248 245 213 185 224 230 199 228 258 250 238 236 245 269 198 169 211 231 158 154 119 123 134 117 117 143 136 138 107 156 137 143
371 398 386 392 403 390 355 323 305 307 309 267 262 249 244 198 245 219 239 259 259 229 247 235 261 237 167 257 215 149 222 170 162 165 133 135 136 138 137 97 135 138 140 136 134
360 378 401 389 394 422 404 324 310 308 311 293 276 247 249 249 251 229 260 254 257 252 253 253 251 269 286 236 143 140 305 215 134 145 132 137 78 108 125 124 127 131 136 133 137
359 357 367 402 402 394 376 380 326 313 309 296 289 293 275 265 265 257 258 259 262 266 270 272 274 277 291 289 210 309 155 194 136 129 131 170 86 312 123 127 140 141 149 145 131
374 359 371 433 384 372 359 365 349 337 320 294 297 291 289 288 287 277 264 264 272 280 282 282 282 288 288 291 303 142 139 149 129 278 133 133 123 123 130 133 130 140 133 135 131
361 368 407 386 348 351 340 335 341 320 310 318 289 291 284 286 286 286 287 287 284 281 278 285 290 290 304 325 350 340 172 151 172 140 339 155 139 130 149 121 145 131 150 131 144
373 399 470 354 361 327 318 318 318 320 307 311 296 287 305 300 296 293 296 286 283 285 290 293 296 325 317 365 361 301 150 144 158 163 165 144 163 159 162 147 160 141 157 150 151
419 442 390 339 346 335 328 321 326 331 312 307 305 302 297 298 295 292 296 309 313 314 321 325 316 304 340 333 273 307 167 155 153 157 159 157 174 162 147 144 286 146 179 330 175
417 421 360 365 335 327 328 317 320 328 324 321 306 303 304 298 300 305 305 313 314 308 315 295 301 314 325 316 322 310 318 154 145 141 171 139 143 152 341 221 140 155 146 142 142
373 379 156 362 338 336 336 342 351 329 330 340 343 326 335 334 315 324 304 303 289 293 158 272 314 301 319 282 141 294 310 137 297 293 286 160 293 151 144 141 147 147 149 143 138
137 357 234 352 344 348 330 332 321 323 341 326 322 312 318 310 304 301 286 177 253 345 312 288 116 296 123 287 128 139 140 146 141 146 146 154 152 147 151 157 158 154 144 166 180
235 257 333 341 350 260 311 331 328 110 214 150 140 326 320 315 302 138 140 322 222 138 293 139 255 204 154 152 233 230 228 146 146 145 160 151 203 175 227 240 174 174 186 215 217
292 262 284 249 228 165 277 141 140 245 296 298 148 230 139 139 146 148 330 299 137 131 150 163 191 139 140 140 145 145 158 152 151 157 145 163 107 296 283 283 254 179 281 284 279
133 315 306 288 295 289 135 266 180 134 132 266 141 302 314 315 134 155 159 258 141 136 140 141 144 150 153 155 155 163 133 130 116 136 147 197 167 129 230 197 119 281 185 268 279
168 148 222 300 304 132 279 322 320 181 319 138 152 180 148 149 305 275 259 246 257 167 255 149 184 253 141 148 141 125 183 127 136 133 111 112 125 121 147 260 263 110 171 259 231
155 223 203 132 140 264 262 168 154 162 163 152 157 155 151 155 150 131 135 140 221 295 279 205 140 145 123 140 166 135 151 140 122 136 266 113 122 176 124 209 199 260 194 223 227
160 168 159 184 177 147 147 139 135 141 141 143 231 142 258 173 162 164 286 290 288 259 293 140 136 140 125 287 131 128 124 164 169 131 121 137 260 265 119 119 252 261 252 256 242
145 241 138 144 136 121 217 195 135 140 167 169 324 327 167 166 160 176 160 270 162 170 165 206 156 294 295 139 128 193 113 123 118 154 303 109 141 122 127 144 123 154 160 134 132
171 182 134 118 155 153 133 143 138 149 244 243 188 212 153 181 161 155 183 237 237 242 237 156 170 201 151 158 203 244 225 169 234 237 217 220 257 152 294 158 221 241 143 136 174

GFSSW_2pvu_pres_096.txt.gz
Presure
298 287 261 241 229 229 192 208 197 218 208 214 221 210 231 230 188 150 150 155 159 160 167 162 160 122 140 156 121 145 136 119 133 119 138 151 137 161 128 164 156 160 197 141 119
260 266 298 289 264 252 250 222 220 210 217 207 218 230 202 215 222 245 232 169 154 157 160 167 158 173 138 123 176 120 153 142 144 119 116 147 144 147 136 151 143 139 157 125 133
245 242 240 271 267 300 290 262 244 226 212 210 225 205 182 212 212 208 234 243 230 159 157 161 167 172 130 118 147 135 123 162 118 140 123 121 136 123 152 143 185 184 156 143 150
275 263 260 257 283 275 287 323 267 247 247 216 219 229 224 217 216 229 215 208 229 257 253 181 192 170 163 178 141 126 135 117 143 165 122 140 142 132 157 147 155 166 155 113 188
350 269 261 281 259 257 259 284 297 272 259 249 216 214 207 216 210 208 206 215 228 215 230 255 251 204 179 164 173 122 135 126 132 126 152 128 113 134 132 176 150 195 173 184 155
304 321 331 342 353 252 263 268 280 186 277 256 253 233 229 204 211 213 226 213 198 226 230 219 254 238 226 214 168 143 142 122 149 125 143 126 168 146 151 143 147 164 164 150 139
393 354 366 458 372 338 296 279 281 267 279 292 260 251 241 235 204 217 205 206 226 211 212 208 222 230 244 238 163 154 125 180 144 154 147 140 149 150 140 201 139 152 148 135 144
375 377 394 422 418 421 325 347 293 279 259 208 268 249 213 244 243 232 220 226 213 214 212 221 213 233 224 246 247 249 137 132 171 149 149 169 147 177 152 148 145 131 170 140 154
357 361 391 387 400 404 414 309 341 281 254 253 253 263 255 257 245 238 235 226 225 221 218 223 224 207 227 229 247 251 240 174 150 199 215 172 151 183 148 116 135 147 141 130 145
355 363 382 388 386 394 404 388 288 289 259 250 246 237 230 248 254 236 239 238 223 221 237 222 207 214 221 234 255 232 241 243 220 256 174 154 156 131 163 145 151 101 161 174 135
366 381 372 414 402 389 393 361 335 319 275 302 243 242 249 240 251 262 244 236 238 224 226 239 220 212 215 211 224 230 272 140 144 147 152 73 107 70 115 99 137 145 132 140 134
360 374 380 423 389 373 372 345 316 311 348 265 280 258 245 251 258 274 249 245 244 239 241 230 252 229 212 224 222 249 280 253 270 142 150 158 193 161 156 138 96 134 138 135 142
371 378 407 387 353 340 336 325 308 307 326 315 293 281 275 275 264 270 256 260 251 246 245 250 252 249 259 265 269 242 276 293 318 334 260 148 180 106 71 80 135 149 136 138 138
386 410 373 343 336 336 341 303 304 305 317 306 288 284 277 275 274 270 258 259 261 251 252 256 232 262 267 271 279 284 319 329 333 380 185 150 162 401 140 145 134 125 134 130 134
428 359 343 339 342 347 320 309 319 297 307 298 295 294 294 294 288 280 277 273 264 265 263 265 275 279 285 280 316 325 335 374 352 337 378 166 379 138 151 150 143 135 127 147 168
383 355 338 335 335 322 327 327 304 301 294 310 309 304 301 308 307 306 298 302 299 300 306 300 301 307 312 314 347 359 332 355 355 298 143 381 179 394 163 161 133 161 159 159 159
340 341 328 329 326 314 327 329 316 296 302 296 296 301 315 296 300 313 306 300 303 299 303 318 316 335 335 329 308 329 275 321 331 336 288 155 232 141 165 188 147 151 150 158 147
359 338 338 336 325 322 325 315 308 317 299 317 316 308 318 314 303 301 294 324 331 322 315 309 314 320 307 309 302 294 296 214 301 299 150 241 132 160 148 148 148 147 146 170 158
354 355 337 341 144 322 323 315 309 308 305 305 302 314 318 323 320 301 317 294 294 289 350 314 301 296 272 292 291 275 293 275 276 272 165 149 157 154 265 299 158 158 180 146 145
124 127 138 143 347 343 193 244 341 328 331 324 321 320 321 320 266 285 278 305 324 232 295 288 281 280 287 265 290 291 126 280 279 287 212 236 169 146 144 147 149 146 148 184 282
320 139 132 312 164 172 327 360 142 137 204 311 305 305 295 280 271 264 140 200 289 288 236 169 171 285 146 241 279 245 277 275 150 143 145 150 153 148 156 156 206 292 288 116 285
134 229 341 324 148 307 166 260 149 286 282 268 267 248 255 325 301 195 151 146 158 159 262 285 268 271 147 144 142 142 143 143 157 148 156 144 137 139 111 123 144 256 119 111 151
150 161 163 166 150 152 144 142 138 300 296 140 140 178 306 140 142 143 142 142 135 133 145 143 139 140 141 152 151 151 182 139 140 134 165 127 217 123 120 136 150 128 279 262 110
132 148 148 147 143 142 140 143 140 140 141 144 148 150 145 145 146 142 139 148 154 155 150 194 152 149 150 146 140 136 130 141 133 263 139 117 212 137 132 125 195 119 194 134 254
165 139 232 163 229 231 163 162 160 160 202 197 204 169 292 256 255 285 295 281 290 278 242 245 148 147 143 139 154 281 139 133 172 119 127 123 144 110 211 116 120 232 115 225 158
155 156 166 158 134 128 175 182 165 157 167 178 162 160 236 157 307 157 251 250 160 255 309 288 141 137 135 142 131 148 126 133 121 151 121 143 167 116 120 198 220 245 130 172 143
132 140 111 196 135 149 195 211 188 189 225 138 161 199 170 155 241 161 165 166 236 209 174 226 237 240 219 161 151 143 213 194 147 231 234 227 221 223 222 249 250 217 178 190 257

GFSSW_2pvu_pres_099.txt.gz
Presure
239 228 257 298 301 278 266 238 223 221 209 214 215 216 219 205 222 190 184 142 147 150 156 158 135 171 154 179 124 133 133 127 124 129 149 116 141 118 130 139 157 146 151 171 133
253 234 216 234 234 259 299 285 240 227 211 214 206 214 216 206 212 229 237 199 144 146 150 152 157 158 169 162 153 126 126 138 142 173 138 147 116 123 114 114 156 121 183 130 142
385 369 250 228 230 234 252 275 281 297 256 219 208 212 215 214 207 216 229 221 227 151 143 151 154 157 151 165 140 169 160 173 175 119 160 129 139 127 145 145 136 151 134 137 158
403 407 316 386 251 257 237 231 242 257 300 252 224 214 220 216 202 206 207 222 224 233 238 235 161 154 151 158 158 168 177 162 134 147 132 135 131 136 118 138 138 149 141 171 130
368 365 280 368 380 360 280 216 253 244 291 285 249 221 152 218 212 225 209 215 212 223 211 234 236 194 192 159 162 157 164 172 182 174 124 129 171 150 112 102 141 142 141 201 153
325 332 340 346 347 356 257 258 271 257 247 242 282 256 234 229 224 216 215 215 211 215 214 219 208 224 243 252 225 164 173 149 155 127 156 135 147 124 148 124 109 139 139 179 149
417 323 295 285 219 328 342 357 349 292 241 265 251 268 261 239 237 220 217 210 213 204 214 226 211 221 230 240 219 244 247 169 175 257 168 174 120 150 155 126 132 111 175 144 146
387 388 387 384 394 435 319 336 274 321 251 254 263 243 287 272 237 238 227 219 208 206 211 207 216 220 213 213 220 237 228 237 241 269 122 134 180 126 119 130 123 119 157 99 183
364 357 362 367 399 412 413 433 389 308 272 272 240 239 253 288 262 245 238 227 223 222 211 217 213 220 209 227 231 230 231 237 229 252 204 136 157 146 141 103 156 144 141 154 143
363 349 363 376 396 407 397 386 388 310 207 221 254 244 200 232 191 237 243 237 225 235 222 216 218 207 218 214 218 228 212 227 226 238 222 232 206 145 145 242 149 147 144 154 168
371 375 378 373 400 391 392 411 366 338 328 335 308 249 243 254 274 254 264 247 237 238 218 229 229 222 213 215 215 225 225 238 256 252 243 254 136 253 152 205 268 156 158 152 132
378 376 390 424 389 378 381 352 337 340 303 323 336 255 242 248 244 262 277 219 266 249 243 236 235 239 239 235 237 229 216 237 240 236 257 254 254 286 69 250 161 149 208 147 123
414 407 392 366 368 356 326 319 325 354 279 327 306 251 244 254 250 248 249 270 273 254 249 249 231 243 242 241 246 243 238 233 244 266 260 241 232 273 91 136 96 114 130 139 141
352 355 352 356 319 314 306 326 331 332 321 286 298 262 292 249 235 243 239 238 235 278 262 247 249 245 241 249 248 251 252 250 263 257 277 225 316 336 145 259 372 136 245 284 92
351 327 336 310 311 318 305 295 295 321 322 266 292 271 291 291 248 241 241 243 240 241 240 240 240 268 254 256 259 258 262 270 275 290 316 417 422 148 409 423 137 82 91 146 150
338 333 312 331 311 304 302 298 321 305 315 313 278 269 303 277 274 255 255 259 256 253 255 268 268 277 277 265 268 278 274 262 334 369 331 339 339 195 257 281 187 300 135 142 127
353 329 325 310 299 297 305 300 308 311 308 303 300 301 269 261 270 285 268 261 270 286 249 289 288 289 280 277 314 328 362 349 331 327 325 322 301 318 346 255 175 131 352 260 169
130 163 333 327 316 318 307 304 303 305 319 308 300 301 301 295 292 287 289 289 285 287 291 292 300 358 355 342 335 340 322 308 311 308 300 304 303 139 295 322 308 310 281 133 158
365 348 229 307 340 326 310 298 290 293 299 312 321 339 319 349 329 342 294 333 342 341 331 332 332 323 309 306 307 301 300 298 303 295 294 293 303 152 163 147 156 149 150 150 148
243 141 352 235 136 280 307 318 328 330 306 324 303 309 315 320 332 338 321 315 325 338 327 305 300 292 292 299 302 279 275 291 206 281 289 224 142 146 145 153 148 157 291 240 239
135 213 195 299 356 310 137 140 239 329 321 317 317 314 309 304 325 331 314 312 308 299 293 289 284 290 282 284 272 184 275 289 231 142 291 284 260 283 129 146 151 151 149 155 235
219 150 135 134 129 131 150 152 144 151 303 294 284 331 321 307 301 299 299 294 151 284 280 268 226 273 278 267 260 140 142 138 130 146 147 144 150 153 153 146 147 149 161 264 295
212 142 142 136 135 146 148 191 144 152 153 141 170 219 148 273 138 137 250 150 277 271 269 270 268 248 143 145 146 149 149 149 144 151 148 144 142 137 139 198 139 264 134 158 136
173 190 192 179 139 235 312 166 245 274 318 218 227 302 150 150 148 147 148 195 136 163 143 140 132 131 136 144 143 146 221 275 167 141 150 138 195 133 132 239 191 128 124 267 125
161 185 141 134 200 185 161 163 173 165 161 159 211 243 257 317 249 259 301 298 250 281 147 147 145 142 146 146 146 144 267 142 133 134 171 226 238 126 116 138 136 111 133 132 124
129 189 135 183 198 145 165 175 185 195 146 223 226 154 157 172 214 157 157 159 242 239 158 239 148 150 142 141 138 145 133 249 168 137 252 139 141 123 255 118 123 261 133 116 260
157 116 151 117 212 167 152 177 178 189 183 161 201 188 204 202 190 163 189 173 203 210 172 168 195 205 152 179 171 160 154 123 159 133 205 162 215 142 217 191 216 243 234 235 197

GFSSW_2pvu_pres_102.txt.gz
Presure
264 188 195 268 251 229 267 276 254 229 231 227 218 222 205 190 235 243 182 135 143 140 146 149 160 164 166 154 157 135 149 125 137 142 160 124 125 132 87 118 143 125 142 123 160
431 409 364 248 231 260 206 206 291 265 228 231 229 214 214 212 214 228 231 237 143 141 137 140 143 158 157 167 168 162 151 146 133 136 144 151 130 123 162 141 146 177 133 163 119
366 411 390 388 177 265 272 231 209 266 262 234 226 223 233 215 211 225 225 218 228 236 142 145 141 146 150 156 159 163 174 161 153 137 131 136 122 137 129 133 137 131 119 124 145
334 307 396 377 380 390 276 261 227 235 289 257 241 229 221 230 215 220 210 215 221 214 235 235 148 143 148 151 153 157 167 146 152 182 130 140 128 123 127 132 131 118 126 124 133
329 338 345 372 392 368 369 280 260 250 244 220 268 252 240 223 223 218 208 213 201 211 219 224 200 201 148 149 150 151 158 161 164 177 141 132 123 139 149 149 147 123 115 119 146
389 302 316 337 359 375 385 370 290 276 239 215 225 282 275 245 225 217 219 208 210 199 216 208 214 207 199 152 153 151 156 158 158 156 162 174 132 167 129 157 135 136 137 132 149
383 388 317 297 314 341 361 386 384 345 279 269 234 234 267 273 254 230 214 206 213 205 203 207 204 215 220 227 184 151 151 156 148 155 121 144 170 140 157 137 135 130 113 111 136
356 372 380 395 317 292 329 352 363 369 403 281 241 224 236 264 267 257 236 221 206 217 207 208 197 216 209 216 218 211 234 233 158 228 158 158 164 166 173 125 129 140 133 112 106
342 345 359 365 374 396 349 294 336 346 363 392 352 231 218 239 238 244 278 240 221 208 222 209 207 210 215 214 217 217 230 229 212 190 239 197 258 170 131 147 178 148 125 132 139
345 350 360 360 375 405 419 427 288 316 337 308 376 268 244 219 225 241 277 266 234 219 210 209 220 219 214 210 213 216 216 217 223 238 238 236 235 228 219 174 135 122 132 137 118
373 382 377 403 409 421 404 400 397 290 305 330 355 348 247 243 242 232 277 262 246 235 227 221 217 221 217 216 216 220 214 221 231 224 234 235 238 250 201 256 265 170 172 122 142
417 431 441 436 424 382 369 377 380 342 269 310 343 338 278 241 237 244 237 256 251 250 240 229 225 226 221 217 217 219 215 197 226 222 224 218 237 237 248 251 161 266 135 142 149
332 339 341 351 355 349 353 358 366 353 331 303 327 333 321 239 254 254 244 233 244 268 270 257 237 237 234 226 227 226 232 234 236 233 241 244 248 254 259 267 271 193 202 129 171
325 326 338 324 342 338 344 348 349 350 289 315 314 331 333 257 262 239 234 238 246 217 271 269 258 246 238 239 239 242 240 238 238 243 250 261 261 268 272 280 159 88 382 246 132
322 311 317 329 309 331 330 326 325 307 275 296 252 315 315 317 249 245 233 244 247 254 263 225 263 260 215 252 245 249 251 258 264 262 253 256 266 274 279 192 351 401 390 429 410
309 312 312 314 304 311 314 315 301 276 283 310 329 314 317 315 300 252 237 240 244 240 249 252 267 275 279 281 279 277 271 265 268 273 269 265 278 281 295 286 424 426 136 127 88
323 304 305 316 296 298 297 306 306 294 276 267 304 310 319 308 292 240 244 245 251 247 243 240 240 241 236 241 250 254 209 271 286 303 320 328 311 325 320 331 330 285 417 360 326
339 313 324 309 307 307 292 294 292 296 299 266 268 293 285 303 300 262 295 276 258 244 242 246 252 258 264 262 297 306 314 342 332 325 317 326 314 310 308 300 145 317 319 165 164
369 146 322 322 323 295 302 296 295 298 299 296 287 273 270 298 294 293 295 292 280 288 300 295 293 298 303 310 337 318 303 313 309 301 300 295 295 298 312 305 306 277 327 345 174
132 133 340 218 323 316 306 325 333 328 315 300 301 302 301 296 295 270 273 305 303 300 333 367 345 334 314 302 301 289 294 285 288 283 290 281 288 288 281 285 143 284 296 195 159
151 296 132 200 139 268 346 338 338 328 330 334 337 340 339 335 340 346 354 362 355 333 313 294 297 307 296 273 284 280 277 277 298 265 281 282 276 267 276 276 281 283 140 153 155
190 187 242 152 156 143 137 316 317 309 302 335 329 327 325 328 328 323 313 300 293 300 293 288 296 271 277 277 281 274 267 144 275 240 274 249 156 275 152 243 239 152 150 152 268
198 164 177 138 156 162 272 288 327 211 249 275 280 222 306 302 292 140 277 255 280 200 279 287 279 272 265 258 238 257 180 268 264 277 156 156 153 143 145 148 151 152 145 219 266
239 189 134 148 189 210 220 195 226 261 294 222 147 143 138 140 139 214 289 239 282 285 285 284 209 149 151 151 153 154 122 133 156 150 144 146 146 149 165 220 138 144 142 140 143
189 165 186 163 192 159 174 179 211 168 208 158 204 134 131 237 238 216 211 148 144 142 142 136 134 137 139 144 145 255 235 254 265 150 147 141 214 240 162 148 136 135 126 242 157
213 193 182 150 248 161 139 154 189 175 182 159 213 214 162 159 157 156 159 208 179 144 144 136 145 141 148 144 141 143 217 221 143 139 133 137 141 134 130 193 141 139 126 123 227
127 117 129 204 185 189 192 228 257 214 180 144 172 176 184 191 185 182 208 211 206 195 166 150 147 143 151 145 159 147 156 127 144 182 188 166 138 199 160 130 131 132 147 137 133

GFSSW_2pvu_pres_105.txt.gz
Presure
353 387 400 406 183 199 253 222 218 207 253 232 225 219 204 218 232 239 226 179 148 141 144 148 152 183 126 166 168 163 140 129 193 139 141 125 157 126 153 110 111 109 158 101 135
362 325 367 374 398 181 262 264 233 213 251 234 244 230 215 218 213 222 227 217 194 166 144 140 141 148 152 152 158 158 163 174 131 134 138 140 128 130 137 140 153 140 89 155 130
383 365 311 357 369 313 375 275 267 237 237 231 257 244 231 216 211 201 192 226 225 191 183 146 144 141 147 149 153 161 156 180 174 121 132 140 148 136 126 158 120 128 125 129 186
392 396 439 280 354 387 391 384 288 193 238 228 219 262 249 228 209 224 218 221 227 242 249 222 185 143 141 139 149 155 156 157 164 168 140 133 125 138 141 128 128 114 135 138 128
378 385 412 362 344 353 376 368 382 286 249 248 234 219 264 248 222 211 216 223 205 191 226 195 194 168 166 143 142 142 151 158 166 160 167 151 133 140 138 138 174 130 121 180 149
367 364 390 421 331 338 382 364 371 364 273 267 239 236 211 263 241 218 214 216 219 223 220 212 196 221 231 172 140 151 147 150 149 157 163 168 149 126 132 133 135 119 134 131 131
350 361 381 416 324 329 341 364 356 377 350 277 265 233 203 208 263 231 221 209 221 214 216 193 207 215 226 223 191 165 148 151 149 158 152 162 165 168 139 144 166 139 125 132 138
360 341 350 381 399 290 333 347 385 370 353 349 273 254 226 216 216 256 233 223 215 218 212 205 197 216 205 217 229 219 235 234 152 151 158 159 164 169 167 161 139 159 134 133 168
340 343 349 365 380 334 297 336 362 384 356 366 309 217 254 217 220 243 275 235 217 204 205 211 212 210 203 214 205 215 213 216 209 217 216 179 157 164 167 123 129 130 135 156 139
366 358 364 366 373 375 390 288 328 361 394 363 362 278 199 248 206 215 249 264 230 218 214 212 214 215 215 214 206 209 214 212 210 208 225 217 157 225 159 161 164 161 162 127 166
452 412 397 373 380 391 436 426 279 329 351 374 380 366 260 255 221 203 217 257 266 236 226 222 217 208 215 208 210 214 210 209 216 214 222 224 233 231 237 134 240 167 118 139 179
340 352 373 430 418 400 390 412 368 296 327 345 365 369 336 264 229 218 214 218 231 244 268 249 229 218 217 216 208 214 220 221 214 213 215 221 224 228 238 232 226 241 247 142 184
333 336 346 356 367 362 367 375 397 271 319 329 327 356 338 336 349 263 224 235 233 245 255 257 249 231 224 225 220 210 213 218 220 223 231 233 232 232 227 232 242 247 253 215 250
328 347 350 361 357 359 346 349 357 271 281 314 317 340 331 336 344 261 213 216 231 231 237 232 242 262 263 237 233 226 223 224 226 228 237 241 241 236 240 242 244 246 261 267 285
308 310 307 334 333 333 339 336 343 290 265 302 321 330 170 320 328 288 230 214 222 235 221 225 268 260 256 253 239 235 234 237 241 244 243 250 251 244 248 256 267 275 170 306 80
301 302 304 297 296 314 303 295 296 272 285 325 323 323 315 314 311 302 252 243 225 231 233 231 235 239 242 261 282 276 275 270 268 258 251 254 257 265 280 298 285 297 347 446 442
310 302 304 307 298 282 285 271 279 289 343 315 317 238 321 316 324 309 269 237 244 251 242 233 235 241 244 258 276 277 276 277 283 289 276 277 265 274 341 329 327 349 364 319 316
317 310 301 301 298 303 295 303 276 264 276 309 308 312 312 314 294 246 258 240 238 235 232 241 249 252 247 249 248 243 239 240 237 255 282 336 320 302 319 316 343 351 301 194 302
323 346 339 320 299 293 291 292 293 274 268 306 311 309 301 300 304 312 256 207 240 237 234 242 242 243 236 235 239 253 322 354 340 311 295 301 297 292 287 282 291 296 302 300 310
224 283 352 343 338 317 304 305 303 300 297 291 279 277 301 302 302 303 267 273 266 264 296 295 262 272 332 356 338 326 294 297 290 287 283 272 275 264 270 274 275 268 268 270 222
170 156 277 341 327 331 351 347 339 325 316 310 311 310 313 256 310 311 313 310 311 340 346 349 344 318 304 294 285 283 297 272 282 267 271 265 262 252 253 269 259 252 255 269 260
201 199 138 131 148 315 313 323 329 331 332 333 334 339 341 326 328 325 309 307 300 302 306 297 289 280 279 270 266 271 267 259 250 256 260 264 237 235 261 243 251 255 270 194 150
156 194 244 140 156 164 144 135 142 259 258 290 287 160 279 268 280 292 296 293 296 285 277 278 274 274 276 281 266 266 271 277 264 264 247 248 243 252 253 259 168 150 151 261 259
126 180 158 164 246 188 202 207 180 128 136 178 183 134 252 254 228 181 272 284 216 283 287 288 284 286 276 268 260 252 259 259 271 258 267 175 186 248 222 258 250 270 196 150 148
199 215 210 236 240 222 170 177 159 175 181 127 126 153 221 207 207 181 140 217 164 215 139 138 152 143 145 144 139 145 141 124 153 168 160 207 142 142 143 146 243 247 251 252 141
149 148 210 174 219 219 239 151 176 233 167 168 185 171 188 161 153 149 223 134 137 138 134 133 134 135 140 139 139 141 222 223 221 220 217 143 203 222 140 135 216 221 141 207 140
125 115 165 183 203 202 220 230 143 231 192 207 226 188 171 166 198 192 184 163 165 156 148 144 147 150 151 204 183 138 139 140 133 145 142 140 136 127 130 132 146 135 133 133 122

GFSSW_2pvu_pres_108.txt.gz
Presure
436 256 380 378 298 252 195 188 208 201 218 203 251 236 210 224 220 211 198 174 167 140 144 153 151 137 156 163 164 172 167 116 147 139 140 139 129 128 127 116 133 129 110 148 118
392 309 382 366 371 363 290 214 229 198 218 213 209 257 234 217 219 216 221 232 186 171 165 142 149 148 152 184 177 164 142 166 128 141 149 140 132 134 124 125 135 121 134 129 132
389 388 301 375 362 358 360 407 271 255 232 223 220 221 212 242 233 216 219 210 226 224 174 194 137 143 156 155 151 161 176 133 167 159 121 130 144 166 138 143 132 141 111 126 195
361 374 386 386 394 358 335 346 409 283 206 178 232 234 219 232 242 229 229 210 200 224 234 184 169 145 146 148 155 150 153 171 138 160 172 129 126 130 151 146 137 137 151 139 139
352 353 367 382 401 395 352 336 375 386 271 262 235 234 226 202 201 232 222 222 223 198 219 223 192 168 201 153 139 147 153 163 162 182 157 160 169 179 148 141 149 142 138 132 139
354 366 368 384 393 418 382 344 314 378 416 344 189 258 208 215 207 235 228 224 213 215 202 199 230 228 183 185 179 140 143 148 151 148 171 174 187 162 169 126 137 157 161 159 130
356 355 349 387 390 397 381 342 303 370 221 390 330 217 250 215 205 205 250 238 216 220 211 213 204 216 229 227 181 185 153 137 160 155 154 153 160 179 160 167 130 134 126 140 141
351 342 328 363 386 388 348 332 344 332 357 371 365 198 260 248 213 230 210 208 247 226 223 219 184 209 202 218 221 228 222 157 141 153 144 153 154 117 158 165 169 178 133 130 138
357 343 350 342 372 372 331 328 337 383 356 366 366 256 269 261 231 234 218 208 255 240 224 217 210 201 206 215 210 201 225 227 240 165 143 148 148 150 158 160 161 169 185 159 131
410 369 357 360 368 369 331 330 336 375 359 248 352 361 326 243 195 229 217 206 254 252 232 217 217 213 216 215 197 212 218 213 204 220 233 232 213 234 153 157 156 159 161 167 159
370 410 403 373 368 371 336 282 325 349 380 345 357 352 340 267 237 242 232 228 214 237 253 231 218 215 209 215 217 213 208 197 213 210 214 225 222 235 231 231 230 161 159 165 164
380 378 394 421 420 428 400 282 331 345 367 355 335 346 333 338 264 238 205 199 226 214 224 251 237 226 220 220 219 196 219 193 223 220 216 216 216 219 224 231 221 232 215 162 181
344 358 382 379 399 413 425 277 335 338 364 341 337 345 338 268 275 263 238 212 206 219 239 236 242 244 229 224 217 214 211 213 215 222 220 224 229 214 219 226 238 237 232 243 187
300 314 362 367 384 400 260 267 337 338 337 355 362 342 344 332 333 259 203 252 217 208 215 232 238 264 249 235 222 218 217 221 227 228 223 225 217 223 228 226 236 239 238 244 252
296 295 308 322 363 275 264 263 322 321 324 347 342 342 353 343 331 305 213 219 200 203 210 211 217 271 267 257 239 233 231 232 232 231 231 234 232 235 236 240 240 245 254 265 261
292 284 284 303 278 270 261 274 298 316 332 330 272 294 338 339 328 345 246 211 231 208 210 214 229 231 224 245 253 260 258 259 260 256 253 245 247 245 247 250 259 278 295 306 345
312 304 290 289 280 293 304 310 319 330 329 325 322 323 323 321 322 347 337 260 224 211 219 210 221 228 224 232 224 225 269 264 261 261 264 293 289 283 278 285 281 325 355 368 321
312 313 308 307 306 281 277 300 307 311 309 316 332 327 307 308 326 318 332 323 270 208 209 212 213 223 228 227 228 231 237 244 246 265 265 270 266 259 255 308 306 308 310 297 286
167 333 298 306 288 299 299 293 297 298 297 302 309 314 310 317 305 309 313 304 250 240 235 236 228 224 239 239 238 245 252 254 252 251 249 292 311 302 290 283 270 282 287 287 288
154 281 174 327 311 296 289 292 301 290 277 287 290 300 240 304 288 305 313 302 285 225 229 237 239 239 233 237 242 241 243 242 308 300 297 289 281 278 270 276 272 271 270 270 271
240 158 147 236 335 361 325 317 309 303 300 294 296 299 291 298 299 258 301 280 249 241 241 235 233 241 245 247 293 313 301 296 295 282 279 269 264 272 259 254 261 255 261 260 269
229 188 205 200 148 150 301 294 311 303 317 325 356 365 363 329 331 340 339 335 348 350 335 318 312 298 296 292 285 284 297 275 261 272 272 254 249 254 227 261 250 272 249 259 260
197 243 215 232 185 196 138 141 164 196 291 293 295 301 303 300 299 294 298 297 293 296 298 292 287 285 285 280 277 274 277 258 262 280 268 274 231 260 248 259 253 267 277 263 254
183 160 219 147 160 182 211 172 131 137 139 143 238 185 134 271 288 290 289 284 287 286 284 280 283 279 255 283 273 286 264 259 273 276 251 256 259 254 243 239 241 149 242 240 242
152 208 220 213 219 222 245 250 224 156 135 148 192 204 150 221 237 240 212 166 234 236 236 235 234 235 232 230 226 224 224 226 224 225 221 219 222 196 192 166 149 149 150 160 165
118 187 150 212 210 228 170 150 217 221 189 245 215 174 187 183 163 184 133 134 135 192 133 133 133 133 139 158 187 188 179 141 139 126 132 133 174 174 141 138 140 143 144 143 145
173 182 177 193 196 210 146 199 223 213 210 181 220 209 248 234 218 218 225 176 147 135 133 134 135 136 138 135 136 142 139 177 163 160 180 216 149 148 147 175 146 133 138 140 138

GFSSW_2pvu_pres_111.txt.gz
Presure
417 423 298 224 206 276 241 170 193 193 272 268 301 238 218 225 236 234 207 206 170 156 140 142 148 143 162 139 171 144 172 175 144 105 159 144 138 158 116 131 111 130 136 138 136
394 404 394 401 378 314 206 202 163 215 194 190 254 286 247 231 219 233 229 216 204 175 167 152 140 152 150 151 169 152 162 162 175 147 177 164 141 137 154 145 144 145 105 129 124
389 375 387 375 385 357 359 372 258 226 180 198 202 207 199 251 224 229 206 229 227 196 198 164 165 150 140 154 156 172 133 160 126 170 172 134 128 143 142 139 135 138 150 120 119
365 365 360 378 382 365 349 167 374 282 158 214 165 176 237 185 235 223 224 223 225 225 183 201 171 172 160 156 148 158 164 167 175 163 169 171 157 124 128 149 143 143 148 124 119
358 358 356 359 373 398 358 354 357 361 326 207 175 185 188 199 184 243 244 225 219 219 223 225 193 181 180 166 148 150 150 152 168 168 166 173 149 169 174 124 124 178 172 140 141
349 356 355 358 396 385 392 383 359 360 364 387 242 242 181 213 187 203 224 239 220 227 214 215 221 208 213 178 167 167 160 150 150 149 154 159 127 178 140 170 167 128 140 156 150
359 355 338 347 399 387 410 390 384 355 354 359 399 152 257 162 189 205 201 189 227 222 215 217 195 208 214 214 240 170 168 140 145 155 157 154 157 165 172 139 143 175 142 135 133
372 356 350 345 373 374 380 373 372 355 344 339 401 391 194 231 204 213 199 201 184 229 226 220 216 215 207 209 211 226 233 179 137 144 146 154 155 151 135 133 173 168 180 171 169
383 358 356 348 359 368 355 374 361 340 342 330 307 390 398 262 216 180 218 200 199 198 231 227 220 215 217 215 210 204 220 231 204 178 139 149 144 149 157 156 141 144 167 191 191
451 381 362 357 361 359 355 351 336 333 346 311 336 366 390 367 227 244 229 217 205 202 193 242 232 215 219 218 215 219 203 206 228 236 188 215 138 187 144 150 156 160 156 163 156
395 442 384 365 375 351 331 323 333 364 351 272 341 359 360 363 264 206 236 226 218 192 199 195 257 233 212 211 219 213 211 210 210 212 219 220 232 235 226 192 145 143 148 155 164
394 414 420 315 302 328 327 330 349 355 346 346 343 333 349 334 339 211 250 243 193 217 208 202 197 254 243 226 217 216 222 220 207 204 204 212 211 215 213 219 224 219 221 201 232
282 273 293 297 320 333 335 348 369 323 337 338 323 331 328 325 307 292 193 218 243 188 197 222 207 200 211 253 236 229 216 218 216 222 225 219 218 218 206 217 220 224 217 192 230
278 270 275 273 329 347 355 368 359 342 334 334 327 321 218 329 317 323 241 254 215 197 204 218 209 200 230 267 248 239 227 226 222 220 215 221 218 228 231 224 223 228 232 234 236
323 273 275 306 317 315 320 345 353 328 332 326 318 331 318 318 319 340 198 201 223 243 227 217 211 209 214 220 238 249 242 230 230 228 225 225 225 189 223 234 235 245 248 254 263
285 228 326 320 323 331 339 337 342 336 357 224 337 308 334 316 330 326 286 266 233 247 226 210 195 201 207 240 240 231 248 252 246 244 243 243 241 238 239 242 249 263 285 297 311
311 302 311 317 309 305 316 320 315 206 319 238 334 336 334 319 324 353 319 282 243 235 219 212 212 208 210 219 218 219 265 262 259 258 258 265 269 275 267 274 276 280 284 284 305
327 313 305 276 300 299 301 308 305 312 329 314 307 317 336 317 323 335 342 292 253 236 225 199 203 207 205 209 220 237 241 235 234 238 232 236 247 256 261 271 267 259 306 299 300
115 303 187 316 304 285 291 290 301 302 314 303 308 311 315 330 332 331 334 256 250 223 211 236 217 210 223 210 216 222 231 237 241 242 244 255 269 260 256 309 292 287 287 287 282
135 184 115 92 317 308 299 294 294 293 293 297 301 310 308 308 316 318 323 318 251 248 244 225 211 217 219 224 235 235 244 244 246 247 251 250 273 301 292 282 277 278 275 271 270
216 159 174 111 216 285 341 344 318 309 296 291 295 298 299 187 303 303 303 307 310 309 303 251 245 237 239 240 242 238 242 246 249 290 306 295 290 280 268 268 267 267 268 250 271
143 177 235 237 135 146 138 233 316 312 316 328 337 340 327 305 300 275 252 251 254 243 244 239 241 238 239 243 247 299 303 302 290 290 281 275 245 264 260 255 241 266 272 257 254
218 155 159 225 235 168 135 136 141 235 160 261 303 300 305 309 311 317 315 322 319 319 319 307 306 301 297 298 299 292 288 273 282 286 284 261 262 264 243 236 228 226 222 223 231
194 214 206 219 192 188 164 155 156 173 170 211 214 232 254 282 285 293 298 297 300 304 298 284 289 297 299 267 277 270 264 239 232 227 222 222 219 216 212 213 214 208 204 206 206
181 168 189 142 176 227 214 250 183 187 239 195 234 177 184 189 159 159 211 217 220 222 222 220 216 216 213 210 209 209 206 201 200 197 196 197 199 227 236 221 140 202 203 173 174
185 169 191 199 141 219 197 150 210 254 217 227 231 238 165 162 243 172 141 187 139 237 140 141 141 142 142 240 187 140 143 142 141 137 115 124 133 132 180 239 163 142 140 142 143
177 162 186 156 191 194 212 208 199 216 211 207 244 226 219 217 223 226 164 154 158 160 133 133 133 133 159 140 134 133 134 136 138 143 192 265 263 258 204 159 176 173 137 186 156

GFSSW_2pvu_pres_114.txt.gz
Presure
407 402 408 165 170 174 152 174 175 186 313 251 251 244 235 221 229 217 220 211 185 152 149 140 145 149 145 153 119 172 172 150 153 151 153 160 161 155 116 121 118 112 117 121 134
391 389 386 388 388 304 357 273 174 169 154 193 296 255 233 229 226 234 220 226 203 202 170 153 143 144 151 149 147 132 171 172 170 112 144 160 110 147 150 141 151 126 124 125 126
371 382 370 376 403 359 346 333 348 166 192 167 155 311 272 243 235 234 230 229 231 212 180 212 168 153 142 149 151 148 140 119 118 172 169 177 174 146 134 138 139 144 134 154 110
358 356 367 373 358 379 345 342 360 355 166 189 210 156 288 281 296 248 242 224 219 226 231 202 172 170 155 140 141 149 152 134 181 143 157 166 135 180 175 152 176 175 146 141 165
368 359 359 360 368 372 343 331 353 355 293 232 247 164 166 185 287 296 234 238 226 226 221 235 207 194 212 170 148 140 147 149 142 150 148 159 158 148 162 176 160 165 161 163 142
359 355 359 352 357 372 357 341 342 360 361 302 239 180 171 174 188 281 282 283 240 225 221 211 226 218 204 194 196 164 151 139 142 153 144 151 165 131 174 156 173 170 167 125 127
370 362 343 344 384 409 384 345 342 343 346 359 374 276 250 171 172 167 273 274 239 234 220 212 213 210 223 220 203 186 165 180 159 141 142 171 152 172 138 131 157 147 174 171 186
376 366 355 360 381 383 395 377 345 353 348 369 362 287 263 203 191 170 162 241 218 277 240 221 221 211 200 214 221 220 185 189 195 166 145 142 159 157 153 164 172 160 163 132 130
386 374 362 371 359 391 388 398 375 340 341 340 343 377 277 251 169 178 175 178 187 182 284 234 222 215 212 212 222 219 222 198 165 166 164 167 163 149 146 149 153 153 160 151 177
298 352 377 374 356 376 359 374 375 378 359 337 349 394 392 268 244 209 190 177 196 180 176 196 232 224 221 215 215 212 204 211 221 218 210 199 166 170 170 171 150 158 165 158 160
351 344 338 327 326 330 339 337 336 338 337 344 352 377 387 394 257 224 173 165 191 197 180 196 253 245 239 227 231 209 212 219 197 203 212 211 206 218 238 239 136 140 143 149 155
322 344 338 329 329 328 329 324 347 348 368 407 325 379 384 393 348 272 236 184 197 176 195 191 194 188 188 228 222 223 223 220 212 200 209 221 212 204 207 217 221 230 241 167 137
336 337 356 343 349 358 365 336 331 345 323 352 349 346 375 382 334 344 318 255 194 178 195 196 192 195 192 189 233 229 219 216 219 215 222 222 216 213 214 211 210 220 220 218 217
339 351 352 369 351 372 338 348 329 336 334 323 338 338 328 350 320 311 326 307 250 177 211 207 196 193 196 189 187 189 236 240 236 223 211 210 203 209 219 227 229 220 216 230 223
283 324 318 339 341 327 332 344 283 317 330 323 320 312 316 336 338 322 316 337 259 192 172 201 203 204 187 187 192 191 192 196 207 245 235 234 231 226 229 192 184 225 233 239 241
286 267 318 314 308 314 328 316 324 333 322 210 323 309 311 331 328 343 312 319 284 178 196 201 217 184 192 190 206 209 205 198 242 265 262 258 245 241 237 227 231 239 247 257 267
311 310 317 307 313 299 301 319 329 329 333 320 96 320 318 320 321 324 316 314 262 176 248 238 215 188 189 189 203 198 203 206 214 231 238 270 254 252 255 255 263 269 269 262 262
156 102 303 301 308 299 300 296 305 324 317 319 318 315 310 322 316 321 308 305 298 278 255 247 237 194 204 217 211 201 202 208 219 214 220 226 260 244 244 239 231 234 248 265 264
136 183 304 102 298 299 300 292 296 299 311 338 304 306 318 343 332 317 313 300 297 287 249 249 224 222 217 220 198 203 204 207 213 216 219 224 232 239 243 248 258 258 264 302 287
188 247 101 302 329 305 289 302 306 304 297 306 314 314 305 309 316 318 307 296 293 261 208 241 231 227 228 201 222 210 207 207 218 229 237 242 243 246 252 279 306 295 294 288 262
233 197 185 186 144 284 336 351 319 306 303 300 300 299 302 304 308 315 317 299 294 255 244 237 225 231 241 206 206 214 223 237 240 238 246 254 297 309 297 290 258 255 269 272 257
155 228 239 242 137 173 227 244 306 320 340 332 302 306 302 296 300 305 307 251 246 247 240 244 244 241 244 239 232 232 240 243 295 318 309 286 290 258 268 270 252 239 235 234 234
204 151 220 225 238 201 225 158 206 232 261 296 310 318 324 324 255 258 261 279 269 258 250 256 235 237 243 262 304 324 317 301 294 295 270 265 241 232 230 227 221 218 220 217 220
194 164 213 228 215 240 229 204 258 226 251 184 187 243 270 288 300 305 306 304 310 310 314 313 302 301 303 283 273 257 245 233 227 226 224 226 215 226 239 238 238 234 234 239 235
164 158 211 197 204 223 214 227 241 216 235 223 190 210 195 214 218 220 224 225 227 227 226 227 224 228 223 221 218 240 213 243 236 244 239 237 276 290 279 267 270 171 138 231 261
132 179 188 175 190 181 204 214 219 211 218 241 230 153 159 232 152 215 241 197 197 198 200 208 231 234 236 245 261 271 281 286 133 134 140 141 141 141 139 135 212 231 239 227 244
183 171 199 152 189 167 159 185 232 214 214 218 205 209 210 215 182 142 140 138 135 135 133 134 137 216 140 143 142 168 140 141 142 143 148 206 215 228 228 222 234 236 168 238 221

GFSSW_2pvu_pres_117.txt.gz
Presure
334 292 111 316 231 136 278 368 224 268 219 246 237 231 216 182 190 213 209 213 189 174 142 141 141 139 144 154 171 188 166 167 177 97 138 177 145 123 114 103 95 97 100 109 107
397 386 308 384 360 392 273 278 277 240 244 218 266 229 237 213 214 222 219 211 209 195 209 151 138 145 140 141 153 149 190 148 169 131 145 143 164 149 154 174 137 144 116 114 119
387 369 370 384 374 360 353 342 279 204 195 250 283 243 224 236 227 237 216 192 211 212 214 196 159 146 143 139 143 149 149 152 182 182 110 160 146 105 105 157 146 166 175 119 111
371 359 371 369 387 351 341 342 341 344 153 170 169 238 281 217 217 215 235 218 236 197 201 209 217 157 151 146 137 139 148 150 131 176 173 176 173 161 161 119 76 156 148 151 175
369 358 360 371 351 339 331 337 326 331 351 248 169 170 204 259 181 198 215 232 221 218 231 208 202 206 174 161 149 152 139 145 151 146 149 143 179 185 176 161 165 168 175 140 147
362 357 367 366 350 340 333 327 323 329 354 338 399 163 147 178 174 278 238 216 219 225 217 213 220 199 187 200 191 154 153 150 143 152 153 147 137 130 118 143 185 161 153 143 172
373 366 360 358 377 333 337 329 334 324 339 345 336 398 171 178 174 164 241 151 223 226 220 219 218 217 212 183 177 174 199 156 156 144 144 149 151 152 150 159 166 141 156 167 168
393 383 367 382 386 422 343 326 326 329 328 355 365 408 242 171 221 214 163 281 236 236 232 222 213 216 216 218 221 222 205 197 177 198 157 139 140 146 150 149 145 144 151 173 169
339 350 370 368 393 401 380 339 338 346 345 362 369 280 370 211 179 166 172 196 189 289 247 235 230 225 204 223 213 215 220 226 201 194 172 164 157 147 136 139 138 149 151 155 156
349 335 334 349 358 398 419 356 336 323 333 351 349 359 394 319 168 186 224 172 175 273 288 284 278 261 226 224 225 221 214 211 218 225 215 196 195 210 164 155 139 137 139 144 148
354 357 341 331 330 337 357 385 340 332 339 336 338 361 380 317 283 208 176 171 199 159 268 276 275 270 231 224 226 224 201 198 214 211 200 211 217 212 217 224 194 185 170 170 172
363 375 366 343 332 336 333 333 380 367 333 328 337 358 357 388 309 310 179 188 182 177 177 205 233 271 269 257 232 225 216 211 205 207 204 202 211 208 209 209 211 218 217 182 210
339 344 356 340 332 327 318 350 351 328 329 334 364 350 378 366 323 297 275 201 175 193 172 196 179 169 266 267 262 250 231 215 208 206 209 219 227 226 207 206 202 202 217 217 217
330 339 328 324 329 337 322 343 347 337 404 347 332 363 369 328 316 247 266 244 209 187 166 186 170 173 180 167 239 261 243 233 229 234 233 219 221 217 219 220 217 217 198 192 221
315 309 328 324 327 314 325 336 344 339 337 336 336 363 368 335 328 317 283 257 184 174 177 175 178 162 177 173 189 186 245 185 222 231 228 215 230 221 235 239 238 235 235 221 226
110 308 309 317 330 327 313 308 306 266 319 312 317 342 381 325 319 318 318 267 250 205 194 187 195 190 186 184 182 189 188 184 190 193 190 191 196 195 200 222 263 265 263 264 264
319 316 308 310 315 320 323 314 310 322 324 317 331 339 377 320 311 335 348 355 260 245 232 157 158 199 194 191 190 187 190 192 199 193 202 196 216 197 214 230 239 255 254 255 260
228 325 310 309 307 315 322 304 310 313 308 307 308 320 310 193 317 309 304 323 349 254 180 198 185 168 207 199 199 192 200 186 194 193 211 202 202 209 244 217 219 236 233 233 234
143 238 260 277 311 285 314 325 300 312 330 325 302 302 319 345 320 322 313 315 321 339 291 241 248 204 201 201 205 209 192 204 197 214 196 203 203 207 212 221 225 229 235 243 259
189 255 264 241 309 309 300 305 314 313 304 317 316 306 305 304 303 308 304 312 313 314 292 281 234 208 211 219 196 197 203 212 200 199 197 201 205 216 237 244 241 281 302 288 283
178 236 246 248 233 251 319 312 299 296 302 303 302 298 296 296 298 292 291 179 291 293 288 273 245 234 230 226 216 219 225 219 203 203 205 205 240 240 298 301 287 268 273 269 252
151 204 229 240 177 225 226 265 317 321 302 284 294 303 300 296 291 288 288 280 281 283 284 244 234 234 229 228 227 220 204 204 201 240 234 306 296 286 280 263 252 243 234 231 226
143 219 216 224 239 238 143 219 173 249 292 310 324 260 264 287 286 268 258 254 245 253 257 272 262 244 220 212 225 236 232 235 327 303 285 265 253 241 234 230 230 240 238 257 257
204 206 184 173 219 222 236 234 195 240 228 231 249 274 295 305 312 279 254 254 254 249 246 243 234 237 274 280 307 302 292 276 262 244 232 236 254 288 272 272 252 250 242 248 247
168 198 185 180 197 176 218 219 221 231 258 238 241 221 220 230 240 251 269 278 282 285 285 282 281 278 271 258 245 231 221 225 254 256 250 243 234 228 230 243 230 231 246 239 160
197 181 152 128 148 185 197 212 208 219 221 219 237 236 138 279 235 236 236 209 207 242 211 242 207 298 289 269 258 246 243 238 238 229 230 246 241 252 230 186 142 142 157 226 247
177 189 195 178 195 178 186 198 147 197 199 210 209 209 214 166 150 136 134 132 131 130 131 152 149 232 174 209 203 214 211 152 189 198 154 184 189 159 213 222 221 223 216 206 220